Wetterdaten: Dienstag, 17.10.2017
Datum Zeit Temp. A. Pool Temp. Feuchte A. Luftdruck Regen Wind Richtung Richtung Sonnenschein ET UV Solar Taupunkt Windchill Windben Empfang
17.10.2017 00:00 9,4 C 11,7 C 94 % 1025,6 hPa 0,0 l/m 0,0 km/h (0 Bft) S 175 0 min 0,000 mm 0,0 UV-I 0 W/m 8,5 C 9,4 C 0,0 km/h (0 Bft) 100,00 %
17.10.2017 00:02 9,4 C 11,7 C 94 % 1025,7 hPa 0,0 l/m 0,0 km/h (0 Bft) S 175 0 min 0,000 mm 0,0 UV-I 0 W/m 8,5 C 9,4 C 0,0 km/h (0 Bft) 100,00 %
17.10.2017 00:04 9,4 C 11,7 C 94 % 1025,6 hPa 0,0 l/m 0,0 km/h (0 Bft) S 175 0 min 0,000 mm 0,0 UV-I 0 W/m 8,5 C 9,4 C 0,0 km/h (0 Bft) 98,44 %
17.10.2017 00:06 9,3 C 11,7 C 94 % 1025,6 hPa 0,0 l/m 0,0 km/h (0 Bft) S 175 0 min 0,000 mm 0,0 UV-I 0 W/m 8,4 C 9,3 C 0,0 km/h (0 Bft) 100,00 %
17.10.2017 00:08 9,3 C 11,7 C 94 % 1025,6 hPa 0,0 l/m 2,3 km/h (1 Bft) S 175 0 min 0,000 mm 0,0 UV-I 0 W/m 8,4 C 9,3 C 3,2 km/h (1 Bft) 100,00 %
17.10.2017 00:10 9,2 C 11,7 C 94 % 1025,6 hPa 0,0 l/m 0,5 km/h (0 Bft) S 175 0 min 0,000 mm 0,0 UV-I 0 W/m 8,3 C 9,2 C 3,2 km/h (1 Bft) 100,00 %
17.10.2017 00:12 9,1 C 11,7 C 94 % 1025,6 hPa 0,0 l/m 0,0 km/h (0 Bft) S 175 0 min 0,000 mm 0,0 UV-I 0 W/m 8,2 C 9,1 C 0,0 km/h (0 Bft) 98,11 %
17.10.2017 00:14 9,1 C 11,7 C 94 % 1025,6 hPa 0,0 l/m 0,0 km/h (0 Bft) S 175 0 min 0,000 mm 0,0 UV-I 0 W/m 8,2 C 9,1 C 0,0 km/h (0 Bft) 94,00 %
17.10.2017 00:16 9,0 C 11,7 C 94 % 1025,6 hPa 0,0 l/m 0,0 km/h (0 Bft) S 175 0 min 0,000 mm 0,0 UV-I 0 W/m 8,1 C 9,0 C 0,0 km/h (0 Bft) 97,56 %
17.10.2017 00:19 9,1 C 11,7 C 95 % 1025,6 hPa 0,0 l/m 0,0 km/h (0 Bft) S 175 0 min 0,000 mm 0,0 UV-I 0 W/m 8,3 C 9,1 C 0,0 km/h (0 Bft) 96,05 %
17.10.2017 00:20 9,1 C 11,7 C 95 % 1025,6 hPa 0,0 l/m 0,0 km/h (0 Bft) S 175 0 min 0,000 mm 0,0 UV-I 0 W/m 8,3 C 9,1 C 0,0 km/h (0 Bft) 95,83 %
17.10.2017 00:22 9,1 C 11,7 C 94 % 1025,6 hPa 0,0 l/m 0,0 km/h (0 Bft) S 175 0 min 0,000 mm 0,0 UV-I 0 W/m 8,2 C 9,1 C 0,0 km/h (0 Bft) 97,87 %
17.10.2017 00:24 9,1 C 11,7 C 95 % 1025,7 hPa 0,0 l/m 0,0 km/h (0 Bft) S 175 0 min 0,000 mm 0,0 UV-I 0 W/m 8,3 C 9,1 C 0,0 km/h (0 Bft) 92,68 %
17.10.2017 00:26 9,1 C 11,7 C 95 % 1025,7 hPa 0,0 l/m 0,0 km/h (0 Bft) S 175 0 min 0,000 mm 0,0 UV-I 0 W/m 8,3 C 9,1 C 0,0 km/h (0 Bft) 96,23 %
17.10.2017 00:28 9,2 C 11,7 C 95 % 1025,7 hPa 0,0 l/m 0,0 km/h (0 Bft) S 175 0 min 0,000 mm 0,0 UV-I 0 W/m 8,4 C 9,2 C 0,0 km/h (0 Bft) 97,87 %
17.10.2017 00:30 9,3 C 11,7 C 95 % 1025,7 hPa 0,0 l/m 0,0 km/h (0 Bft) S 175 0 min 0,000 mm 0,0 UV-I 0 W/m 8,5 C 9,3 C 0,0 km/h (0 Bft) 97,56 %
17.10.2017 00:32 9,2 C 11,7 C 95 % 1025,7 hPa 0,0 l/m 0,0 km/h (0 Bft) S 175 0 min 0,000 mm 0,0 UV-I 0 W/m 8,4 C 9,2 C 0,0 km/h (0 Bft) 97,87 %
17.10.2017 00:34 9,1 C 11,7 C 94 % 1025,7 hPa 0,0 l/m 1,9 km/h (1 Bft) S 175 0 min 0,000 mm 0,0 UV-I 0 W/m 8,2 C 9,1 C 3,2 km/h (1 Bft) 98,00 %
17.10.2017 00:36 9,0 C 11,7 C 95 % 1025,7 hPa 0,0 l/m 2,5 km/h (1 Bft) S 175 0 min 0,000 mm 0,0 UV-I 0 W/m 8,2 C 9,0 C 3,2 km/h (1 Bft) 96,00 %
17.10.2017 00:38 8,8 C 11,7 C 94 % 1025,7 hPa 0,0 l/m 2,7 km/h (1 Bft) S 175 0 min 0,000 mm 0,0 UV-I 0 W/m 7,9 C 8,8 C 3,2 km/h (1 Bft) 93,62 %
17.10.2017 00:40 8,7 C 11,7 C 94 % 1025,7 hPa 0,0 l/m 3,1 km/h (1 Bft) S 175 0 min 0,000 mm 0,0 UV-I 0 W/m 7,8 C 8,7 C 3,2 km/h (1 Bft) 97,37 %
17.10.2017 00:42 8,6 C 11,7 C 94 % 1025,6 hPa 0,0 l/m 3,1 km/h (1 Bft) S 175 0 min 0,000 mm 0,0 UV-I 0 W/m 7,7 C 8,6 C 4,8 km/h (1 Bft) 97,67 %
17.10.2017 00:44 8,4 C 11,7 C 94 % 1025,6 hPa 0,0 l/m 3,0 km/h (1 Bft) S 175 0 min 0,000 mm 0,0 UV-I 0 W/m 7,5 C 8,4 C 4,8 km/h (1 Bft) 98,18 %
17.10.2017 00:46 8,4 C 11,7 C 94 % 1025,6 hPa 0,0 l/m 3,1 km/h (1 Bft) S 175 0 min 0,000 mm 0,0 UV-I 0 W/m 7,5 C 8,4 C 4,8 km/h (1 Bft) 98,11 %
17.10.2017 00:48 8,4 C 11,7 C 95 % 1025,6 hPa 0,0 l/m 2,3 km/h (1 Bft) S 175 0 min 0,000 mm 0,0 UV-I 0 W/m 7,6 C 8,4 C 3,2 km/h (1 Bft) 97,44 %
17.10.2017 00:50 8,6 C 11,7 C 95 % 1025,6 hPa 0,0 l/m 1,8 km/h (1 Bft) S 175 0 min 0,000 mm 0,0 UV-I 0 W/m 7,8 C 8,6 C 3,2 km/h (1 Bft) 98,00 %
17.10.2017 00:52 8,7 C 11,7 C 95 % 1025,7 hPa 0,0 l/m 1,7 km/h (1 Bft) S 175 0 min 0,000 mm 0,0 UV-I 0 W/m 7,9 C 8,7 C 3,2 km/h (1 Bft) 95,83 %
17.10.2017 00:54 8,8 C 11,7 C 95 % 1025,7 hPa 0,0 l/m 2,0 km/h (1 Bft) S 175 0 min 0,000 mm 0,0 UV-I 0 W/m 8,0 C 8,8 C 3,2 km/h (1 Bft) 97,18 %
17.10.2017 00:56 8,7 C 11,7 C 95 % 1025,7 hPa 0,0 l/m 2,2 km/h (1 Bft) S 175 0 min 0,000 mm 0,0 UV-I 0 W/m 7,9 C 8,7 C 3,2 km/h (1 Bft) 96,00 %
17.10.2017 00:58 8,7 C 11,7 C 95 % 1025,6 hPa 0,0 l/m 1,2 km/h (1 Bft) S 175 0 min 0,000 mm 0,0 UV-I 0 W/m 7,9 C 8,7 C 1,6 km/h (1 Bft) 97,37 %
17.10.2017 01:00 8,6 C 11,7 C 95 % 1025,7 hPa 0,0 l/m 1,0 km/h (0 Bft) S 175 0 min 0,000 mm 0,0 UV-I 0 W/m 7,8 C 8,6 C 1,6 km/h (1 Bft) 94,00 %
17.10.2017 01:02 8,6 C 11,7 C 95 % 1025,7 hPa 0,0 l/m 0,0 km/h (0 Bft) S 175 0 min 0,000 mm 0,0 UV-I 0 W/m 7,8 C 8,6 C 1,6 km/h (1 Bft) 98,00 %
17.10.2017 01:04 8,6 C 11,7 C 95 % 1025,7 hPa 0,0 l/m 1,5 km/h (1 Bft) S 175 0 min 0,000 mm 0,0 UV-I 0 W/m 7,8 C 8,6 C 3,2 km/h (1 Bft) 96,00 %
17.10.2017 01:06 8,5 C 11,7 C 95 % 1025,7 hPa 0,0 l/m 2,1 km/h (1 Bft) S 175 0 min 0,000 mm 0,0 UV-I 0 W/m 7,7 C 8,5 C 3,2 km/h (1 Bft) 97,14 %
17.10.2017 01:08 8,6 C 11,7 C 95 % 1025,6 hPa 0,0 l/m 1,7 km/h (1 Bft) S 175 0 min 0,000 mm 0,0 UV-I 0 W/m 7,8 C 8,6 C 3,2 km/h (1 Bft) 96,00 %
17.10.2017 01:10 8,5 C 11,7 C 95 % 1025,6 hPa 0,0 l/m 0,0 km/h (0 Bft) S 175 0 min 0,000 mm 0,0 UV-I 0 W/m 7,7 C 8,5 C 0,0 km/h (0 Bft) 98,11 %
17.10.2017 01:12 8,5 C 11,7 C 95 % 1025,6 hPa 0,0 l/m 0,1 km/h (0 Bft) S 175 0 min 0,000 mm 0,0 UV-I 0 W/m 7,7 C 8,5 C 1,6 km/h (1 Bft) 98,00 %
17.10.2017 01:14 8,6 C 11,7 C 95 % 1025,6 hPa 0,0 l/m 1,5 km/h (1 Bft) S 175 0 min 0,000 mm 0,0 UV-I 0 W/m 7,8 C 8,6 C 3,2 km/h (1 Bft) 100,00 %
17.10.2017 01:16 8,6 C 11,7 C 95 % 1025,5 hPa 0,0 l/m 0,1 km/h (0 Bft) S 175 0 min 0,000 mm 0,0 UV-I 0 W/m 7,8 C 8,6 C 1,6 km/h (1 Bft) 100,00 %
17.10.2017 01:18 8,6 C 11,7 C 95 % 1025,6 hPa 0,0 l/m 0,0 km/h (0 Bft) S 175 0 min 0,000 mm 0,0 UV-I 0 W/m 7,8 C 8,6 C 0,0 km/h (0 Bft) 96,00 %
17.10.2017 01:20 8,6 C 11,7 C 95 % 1025,6 hPa 0,0 l/m 0,0 km/h (0 Bft) S 175 0 min 0,000 mm 0,0 UV-I 0 W/m 7,8 C 8,6 C 0,0 km/h (0 Bft) 97,73 %
17.10.2017 01:22 8,6 C 11,7 C 95 % 1025,6 hPa 0,0 l/m 0,1 km/h (0 Bft) S 175 0 min 0,000 mm 0,0 UV-I 0 W/m 7,8 C 8,6 C 1,6 km/h (1 Bft) 96,00 %
17.10.2017 01:24 8,6 C 11,7 C 95 % 1025,5 hPa 0,0 l/m 0,0 km/h (0 Bft) S 175 0 min 0,000 mm 0,0 UV-I 0 W/m 7,8 C 8,6 C 0,0 km/h (0 Bft) 100,00 %
17.10.2017 01:26 8,4 C 11,7 C 95 % 1025,6 hPa 0,0 l/m 0,1 km/h (0 Bft) S 175 0 min 0,000 mm 0,0 UV-I 0 W/m 7,6 C 8,4 C 1,6 km/h (1 Bft) 95,83 %
17.10.2017 01:28 8,3 C 11,7 C 95 % 1025,6 hPa 0,0 l/m 0,3 km/h (0 Bft) S 175 0 min 0,000 mm 0,0 UV-I 0 W/m 7,5 C 8,3 C 1,6 km/h (1 Bft) 100,00 %
17.10.2017 01:30 8,2 C 11,7 C 95 % 1025,6 hPa 0,0 l/m 0,0 km/h (0 Bft) S 175 0 min 0,000 mm 0,0 UV-I 0 W/m 7,4 C 8,2 C 1,6 km/h (1 Bft) 100,00 %
17.10.2017 01:32 8,2 C 11,7 C 95 % 1025,6 hPa 0,0 l/m 0,0 km/h (0 Bft) S 175 0 min 0,000 mm 0,0 UV-I 0 W/m 7,4 C 8,2 C 0,0 km/h (0 Bft) 100,00 %
17.10.2017 01:34 8,2 C 11,7 C 95 % 1025,6 hPa 0,0 l/m 0,0 km/h (0 Bft) S 175 0 min 0,000 mm 0,0 UV-I 0 W/m 7,4 C 8,2 C 0,0 km/h (0 Bft) 97,37 %
17.10.2017 01:36 8,1 C 11,7 C 95 % 1025,6 hPa 0,0 l/m 0,1 km/h (0 Bft) S 175 0 min 0,000 mm 0,0 UV-I 0 W/m 7,3 C 8,1 C 1,6 km/h (1 Bft) 98,00 %
17.10.2017 01:38 8,1 C 11,7 C 95 % 1025,6 hPa 0,0 l/m 0,7 km/h (0 Bft) S 175 0 min 0,000 mm 0,0 UV-I 0 W/m 7,3 C 8,1 C 1,6 km/h (1 Bft) 100,00 %
17.10.2017 01:40 7,9 C 11,7 C 95 % 1025,5 hPa 0,0 l/m 0,3 km/h (0 Bft) S 175 0 min 0,000 mm 0,0 UV-I 0 W/m 7,1 C 7,9 C 1,6 km/h (1 Bft) 97,87 %
17.10.2017 01:42 7,9 C 11,7 C 95 % 1025,6 hPa 0,0 l/m 0,0 km/h (0 Bft) S 175 0 min 0,000 mm 0,0 UV-I 0 W/m 7,1 C 7,9 C 0,0 km/h (0 Bft) 98,11 %
17.10.2017 01:44 7,9 C 11,7 C 95 % 1025,6 hPa 0,0 l/m 0,0 km/h (0 Bft) S 175 0 min 0,000 mm 0,0 UV-I 0 W/m 7,1 C 7,9 C 0,0 km/h (0 Bft) 97,37 %
17.10.2017 01:46 8,1 C 11,7 C 95 % 1025,6 hPa 0,0 l/m 0,0 km/h (0 Bft) S 175 0 min 0,000 mm 0,0 UV-I 0 W/m 7,3 C 8,1 C 0,0 km/h (0 Bft) 95,74 %
17.10.2017 01:48 8,1 C 11,7 C 96 % 1025,5 hPa 0,0 l/m 0,0 km/h (0 Bft) S 175 0 min 0,000 mm 0,0 UV-I 0 W/m 7,5 C 8,1 C 0,0 km/h (0 Bft) 98,00 %
17.10.2017 01:50 8,0 C 11,7 C 95 % 1025,5 hPa 0,0 l/m 0,0 km/h (0 Bft) S 175 0 min 0,000 mm 0,0 UV-I 0 W/m 7,2 C 8,0 C 0,0 km/h (0 Bft) 96,00 %
17.10.2017 01:52 8,0 C 11,7 C 95 % 1025,4 hPa 0,0 l/m 0,0 km/h (0 Bft) S 175 0 min 0,000 mm 0,0 UV-I 0 W/m 7,2 C 8,0 C 0,0 km/h (0 Bft) 97,37 %
17.10.2017 01:54 7,9 C 11,7 C 95 % 1025,4 hPa 0,0 l/m 0,0 km/h (0 Bft) S 175 0 min 0,000 mm 0,0 UV-I 0 W/m 7,1 C 7,9 C 0,0 km/h (0 Bft) 96,00 %
17.10.2017 01:56 7,9 C 11,7 C 95 % 1025,5 hPa 0,0 l/m 0,0 km/h (0 Bft) S 175 0 min 0,000 mm 0,0 UV-I 0 W/m 7,1 C 7,9 C 0,0 km/h (0 Bft) 98,11 %
17.10.2017 01:58 7,8 C 11,7 C 95 % 1025,5 hPa 0,0 l/m 0,0 km/h (0 Bft) S 175 0 min 0,000 mm 0,0 UV-I 0 W/m 7,0 C 7,8 C 0,0 km/h (0 Bft) 95,74 %
17.10.2017 02:00 7,8 C 11,7 C 95 % 1025,5 hPa 0,0 l/m 0,0 km/h (0 Bft) S 175 0 min 0,000 mm 0,0 UV-I 0 W/m 7,0 C 7,8 C 0,0 km/h (0 Bft) 95,74 %
17.10.2017 02:02 7,8 C 11,7 C 95 % 1025,5 hPa 0,0 l/m 0,0 km/h (0 Bft) S 175 0 min 0,000 mm 0,0 UV-I 0 W/m 7,0 C 7,8 C 0,0 km/h (0 Bft) 97,22 %
17.10.2017 02:04 7,9 C 11,7 C 96 % 1025,5 hPa 0,0 l/m 0,0 km/h (0 Bft) S 175 0 min 0,000 mm 0,0 UV-I 0 W/m 7,3 C 7,9 C 0,0 km/h (0 Bft) 98,08 %
17.10.2017 02:06 7,9 C 11,7 C 95 % 1025,5 hPa 0,0 l/m 0,0 km/h (0 Bft) S 175 0 min 0,000 mm 0,0 UV-I 0 W/m 7,1 C 7,9 C 0,0 km/h (0 Bft) 94,87 %
17.10.2017 02:08 7,9 C 11,7 C 95 % 1025,5 hPa 0,0 l/m 0,0 km/h (0 Bft) S 175 0 min 0,000 mm 0,0 UV-I 0 W/m 7,1 C 7,9 C 0,0 km/h (0 Bft) 98,21 %
17.10.2017 02:10 7,9 C 11,7 C 95 % 1025,5 hPa 0,0 l/m 0,0 km/h (0 Bft) S 175 0 min 0,000 mm 0,0 UV-I 0 W/m 7,1 C 7,9 C 0,0 km/h (0 Bft) 96,00 %
17.10.2017 02:12 7,9 C 11,7 C 95 % 1025,5 hPa 0,0 l/m 0,0 km/h (0 Bft) S 175 0 min 0,000 mm 0,0 UV-I 0 W/m 7,1 C 7,9 C 0,0 km/h (0 Bft) 97,87 %
17.10.2017 02:14 7,8 C 11,7 C 95 % 1025,5 hPa 0,0 l/m 0,0 km/h (0 Bft) S 175 0 min 0,000 mm 0,0 UV-I 0 W/m 7,0 C 7,8 C 0,0 km/h (0 Bft) 97,56 %
17.10.2017 02:16 7,8 C 11,7 C 95 % 1025,5 hPa 0,0 l/m 0,0 km/h (0 Bft) S 175 0 min 0,000 mm 0,0 UV-I 0 W/m 7,0 C 7,8 C 0,0 km/h (0 Bft) 98,00 %
17.10.2017 02:18 7,8 C 11,7 C 95 % 1025,4 hPa 0,0 l/m 0,0 km/h (0 Bft) S 175 0 min 0,000 mm 0,0 UV-I 0 W/m 7,0 C 7,8 C 0,0 km/h (0 Bft) 97,87 %
17.10.2017 02:20 7,7 C 11,7 C 95 % 1025,5 hPa 0,0 l/m 0,0 km/h (0 Bft) S 175 0 min 0,000 mm 0,0 UV-I 0 W/m 7,0 C 7,7 C 0,0 km/h (0 Bft) 97,37 %
17.10.2017 02:22 7,7 C 11,7 C 95 % 1025,5 hPa 0,0 l/m 0,0 km/h (0 Bft) S 175 0 min 0,000 mm 0,0 UV-I 0 W/m 7,0 C 7,7 C 0,0 km/h (0 Bft) 100,00 %
17.10.2017 02:24 7,7 C 11,7 C 95 % 1025,5 hPa 0,0 l/m 0,0 km/h (0 Bft) S 175 0 min 0,000 mm 0,0 UV-I 0 W/m 7,0 C 7,7 C 0,0 km/h (0 Bft) 100,00 %
17.10.2017 02:26 7,6 C 11,7 C 95 % 1025,4 hPa 0,0 l/m 0,0 km/h (0 Bft) S 175 0 min 0,000 mm 0,0 UV-I 0 W/m 6,9 C 7,6 C 1,6 km/h (1 Bft) 94,29 %
17.10.2017 02:28 7,7 C 11,7 C 95 % 1025,5 hPa 0,0 l/m 0,0 km/h (0 Bft) S 175 0 min 0,000 mm 0,0 UV-I 0 W/m 7,0 C 7,7 C 0,0 km/h (0 Bft) 100,00 %
17.10.2017 02:30 7,7 C 11,7 C 95 % 1025,4 hPa 0,0 l/m 0,3 km/h (0 Bft) S 175 0 min 0,000 mm 0,0 UV-I 0 W/m 7,0 C 7,7 C 1,6 km/h (1 Bft) 96,00 %
17.10.2017 02:32 7,7 C 11,7 C 95 % 1025,4 hPa 0,0 l/m 0,1 km/h (0 Bft) S 175 0 min 0,000 mm 0,0 UV-I 0 W/m 7,0 C 7,7 C 1,6 km/h (1 Bft) 100,00 %
17.10.2017 02:34 7,7 C 11,7 C 95 % 1025,4 hPa 0,0 l/m 0,0 km/h (0 Bft) S 175 0 min 0,000 mm 0,0 UV-I 0 W/m 7,0 C 7,7 C 0,0 km/h (0 Bft) 100,00 %
17.10.2017 02:36 7,7 C 11,7 C 95 % 1025,4 hPa 0,0 l/m 0,0 km/h (0 Bft) S 175 0 min 0,000 mm 0,0 UV-I 0 W/m 7,0 C 7,7 C 0,0 km/h (0 Bft) 97,87 %
17.10.2017 02:38 7,6 C 11,7 C 95 % 1025,4 hPa 0,0 l/m 0,0 km/h (0 Bft) S 175 0 min 0,000 mm 0,0 UV-I 0 W/m 6,9 C 7,6 C 0,0 km/h (0 Bft) 97,87 %
17.10.2017 02:40 7,4 C 11,7 C 95 % 1025,4 hPa 0,0 l/m 0,0 km/h (0 Bft) S 175 0 min 0,000 mm 0,0 UV-I 0 W/m 6,7 C 7,4 C 0,0 km/h (0 Bft) 100,00 %
17.10.2017 02:42 7,4 C 11,7 C 95 % 1025,4 hPa 0,0 l/m 0,0 km/h (0 Bft) S 175 0 min 0,000 mm 0,0 UV-I 0 W/m 6,7 C 7,4 C 0,0 km/h (0 Bft) 100,00 %
17.10.2017 02:44 7,4 C 11,7 C 95 % 1025,3 hPa 0,0 l/m 0,0 km/h (0 Bft) S 175 0 min 0,000 mm 0,0 UV-I 0 W/m 6,7 C 7,4 C 0,0 km/h (0 Bft) 100,00 %
17.10.2017 02:46 7,5 C 11,7 C 96 % 1025,3 hPa 0,0 l/m 0,0 km/h (0 Bft) S 175 0 min 0,000 mm 0,0 UV-I 0 W/m 6,9 C 7,5 C 0,0 km/h (0 Bft) 97,87 %
17.10.2017 02:48 7,6 C 11,7 C 96 % 1025,3 hPa 0,0 l/m 0,0 km/h (0 Bft) S 175 0 min 0,000 mm 0,0 UV-I 0 W/m 7,0 C 7,6 C 0,0 km/h (0 Bft) 98,11 %
17.10.2017 02:50 7,7 C 11,7 C 96 % 1025,2 hPa 0,0 l/m 0,0 km/h (0 Bft) S 175 0 min 0,000 mm 0,0 UV-I 0 W/m 7,1 C 7,7 C 0,0 km/h (0 Bft) 98,00 %
17.10.2017 02:52 7,7 C 11,7 C 96 % 1025,3 hPa 0,0 l/m 0,0 km/h (0 Bft) S 175 0 min 0,000 mm 0,0 UV-I 0 W/m 7,1 C 7,7 C 0,0 km/h (0 Bft) 100,00 %
17.10.2017 02:54 7,8 C 11,7 C 96 % 1025,3 hPa 0,0 l/m 0,0 km/h (0 Bft) S 175 0 min 0,000 mm 0,0 UV-I 0 W/m 7,2 C 7,8 C 0,0 km/h (0 Bft) 100,00 %
17.10.2017 02:56 7,8 C 11,7 C 96 % 1025,2 hPa 0,0 l/m 0,0 km/h (0 Bft) S 175 0 min 0,000 mm 0,0 UV-I 0 W/m 7,2 C 7,8 C 0,0 km/h (0 Bft) 100,00 %
17.10.2017 02:58 7,7 C 11,7 C 95 % 1025,2 hPa 0,0 l/m 0,0 km/h (0 Bft) S 175 0 min 0,000 mm 0,0 UV-I 0 W/m 7,0 C 7,7 C 0,0 km/h (0 Bft) 100,00 %
17.10.2017 03:00 7,7 C 11,7 C 95 % 1025,2 hPa 0,0 l/m 0,0 km/h (0 Bft) S 175 0 min 0,000 mm 0,0 UV-I 0 W/m 7,0 C 7,7 C 0,0 km/h (0 Bft) 100,00 %
17.10.2017 03:02 7,7 C 11,7 C 96 % 1025,2 hPa 0,0 l/m 0,0 km/h (0 Bft) S 175 0 min 0,000 mm 0,0 UV-I 0 W/m 7,1 C 7,7 C 0,0 km/h (0 Bft) 100,00 %
17.10.2017 03:04 7,6 C 11,7 C 95 % 1025,2 hPa 0,0 l/m 0,0 km/h (0 Bft) S 175 0 min 0,000 mm 0,0 UV-I 0 W/m 6,9 C 7,6 C 0,0 km/h (0 Bft) 95,74 %
17.10.2017 03:06 7,4 C 11,7 C 95 % 1025,1 hPa 0,0 l/m 0,0 km/h (0 Bft) S 175 0 min 0,000 mm 0,0 UV-I 0 W/m 6,7 C 7,4 C 0,0 km/h (0 Bft) 97,87 %
17.10.2017 03:08 7,4 C 11,7 C 96 % 1025,2 hPa 0,0 l/m 0,0 km/h (0 Bft) S 175 0 min 0,000 mm 0,0 UV-I 0 W/m 6,8 C 7,4 C 0,0 km/h (0 Bft) 100,00 %
17.10.2017 03:10 7,4 C 11,7 C 96 % 1025,1 hPa 0,0 l/m 0,0 km/h (0 Bft) S 175 0 min 0,000 mm 0,0 UV-I 0 W/m 6,8 C 7,4 C 0,0 km/h (0 Bft) 97,56 %
17.10.2017 03:12 7,4 C 11,7 C 96 % 1025,1 hPa 0,0 l/m 0,1 km/h (0 Bft) S 175 0 min 0,000 mm 0,0 UV-I 0 W/m 6,8 C 7,4 C 1,6 km/h (1 Bft) 100,00 %
17.10.2017 03:14 7,4 C 11,7 C 96 % 1025,0 hPa 0,0 l/m 1,3 km/h (1 Bft) S 175 0 min 0,000 mm 0,0 UV-I 0 W/m 6,8 C 7,4 C 3,2 km/h (1 Bft) 100,00 %
17.10.2017 03:16 7,4 C 11,7 C 96 % 1025,1 hPa 0,0 l/m 0,2 km/h (0 Bft) S 175 0 min 0,000 mm 0,0 UV-I 0 W/m 6,8 C 7,4 C 1,6 km/h (1 Bft) 97,87 %
17.10.2017 03:18 7,5 C 11,7 C 96 % 1025,2 hPa 0,0 l/m 0,0 km/h (0 Bft) S 175 0 min 0,000 mm 0,0 UV-I 0 W/m 6,9 C 7,5 C 0,0 km/h (0 Bft) 100,00 %
17.10.2017 03:20 7,5 C 11,7 C 96 % 1025,1 hPa 0,0 l/m 0,1 km/h (0 Bft) S 175 0 min 0,000 mm 0,0 UV-I 0 W/m 6,9 C 7,5 C 1,6 km/h (1 Bft) 100,00 %
17.10.2017 03:22 7,4 C 11,7 C 96 % 1025,1 hPa 0,0 l/m 0,7 km/h (0 Bft) S 175 0 min 0,000 mm 0,0 UV-I 0 W/m 6,8 C 7,4 C 1,6 km/h (1 Bft) 100,00 %
17.10.2017 03:24 7,3 C 11,7 C 95 % 1025,1 hPa 0,0 l/m 0,9 km/h (0 Bft) S 175 0 min 0,000 mm 0,0 UV-I 0 W/m 6,6 C 7,3 C 1,6 km/h (1 Bft) 100,00 %
17.10.2017 03:26 7,3 C 11,7 C 95 % 1025,1 hPa 0,0 l/m 0,3 km/h (0 Bft) S 175 0 min 0,000 mm 0,0 UV-I 0 W/m 6,6 C 7,3 C 1,6 km/h (1 Bft) 100,00 %
17.10.2017 03:28 7,2 C 11,7 C 95 % 1025,1 hPa 0,0 l/m 0,1 km/h (0 Bft) S 175 0 min 0,000 mm 0,0 UV-I 0 W/m 6,5 C 7,2 C 1,6 km/h (1 Bft) 98,11 %
17.10.2017 03:30 7,3 C 11,7 C 96 % 1025,0 hPa 0,0 l/m 0,0 km/h (0 Bft) S 175 0 min 0,000 mm 0,0 UV-I 0 W/m 6,7 C 7,3 C 0,0 km/h (0 Bft) 98,00 %
17.10.2017 03:32 7,3 C 11,7 C 96 % 1025,1 hPa 0,0 l/m 0,0 km/h (0 Bft) S 175 0 min 0,000 mm 0,0 UV-I 0 W/m 6,7 C 7,3 C 0,0 km/h (0 Bft) 100,00 %
17.10.2017 03:34 7,3 C 11,7 C 96 % 1025,0 hPa 0,0 l/m 1,5 km/h (1 Bft) S 175 0 min 0,000 mm 0,0 UV-I 0 W/m 6,7 C 7,3 C 3,2 km/h (1 Bft) 100,00 %
17.10.2017 03:36 7,3 C 11,7 C 96 % 1025,0 hPa 0,0 l/m 2,7 km/h (1 Bft) S 175 0 min 0,000 mm 0,0 UV-I 0 W/m 6,7 C 7,3 C 3,2 km/h (1 Bft) 94,74 %
17.10.2017 03:38 7,3 C 11,7 C 96 % 1024,9 hPa 0,0 l/m 3,3 km/h (1 Bft) S 175 0 min 0,000 mm 0,0 UV-I 0 W/m 6,7 C 7,3 C 4,8 km/h (1 Bft) 96,43 %
17.10.2017 03:40 7,2 C 11,7 C 95 % 1025,0 hPa 0,0 l/m 2,7 km/h (1 Bft) S 175 0 min 0,000 mm 0,0 UV-I 0 W/m 6,5 C 7,2 C 3,2 km/h (1 Bft) 98,00 %
17.10.2017 03:42 7,0 C 11,7 C 95 % 1025,0 hPa 0,0 l/m 1,9 km/h (1 Bft) S 175 0 min 0,000 mm 0,0 UV-I 0 W/m 6,3 C 7,0 C 3,2 km/h (1 Bft) 97,56 %
17.10.2017 03:44 6,9 C 11,7 C 95 % 1025,0 hPa 0,0 l/m 2,8 km/h (1 Bft) S 175 0 min 0,000 mm 0,0 UV-I 0 W/m 6,2 C 6,9 C 3,2 km/h (1 Bft) 98,11 %
17.10.2017 03:46 6,9 C 11,7 C 96 % 1024,9 hPa 0,0 l/m 2,2 km/h (1 Bft) S 175 0 min 0,000 mm 0,0 UV-I 0 W/m 6,3 C 6,9 C 3,2 km/h (1 Bft) 97,37 %
17.10.2017 03:48 6,9 C 11,7 C 96 % 1024,9 hPa 0,0 l/m 0,7 km/h (0 Bft) S 175 0 min 0,000 mm 0,0 UV-I 0 W/m 6,3 C 6,9 C 1,6 km/h (1 Bft) 96,23 %
17.10.2017 03:50 7,0 C 11,7 C 96 % 1024,9 hPa 0,0 l/m 0,0 km/h (0 Bft) S 175 0 min 0,000 mm 0,0 UV-I 0 W/m 6,4 C 7,0 C 1,6 km/h (1 Bft) 96,00 %
17.10.2017 03:52 7,1 C 11,7 C 96 % 1024,8 hPa 0,0 l/m 0,3 km/h (0 Bft) S 175 0 min 0,000 mm 0,0 UV-I 0 W/m 6,5 C 7,1 C 1,6 km/h (1 Bft) 97,37 %
17.10.2017 03:54 7,1 C 11,7 C 96 % 1024,9 hPa 0,0 l/m 0,2 km/h (0 Bft) S 175 0 min 0,000 mm 0,0 UV-I 0 W/m 6,5 C 7,1 C 1,6 km/h (1 Bft) 96,00 %
17.10.2017 03:56 7,1 C 11,7 C 96 % 1024,9 hPa 0,0 l/m 0,3 km/h (0 Bft) S 175 0 min 0,000 mm 0,0 UV-I 0 W/m 6,5 C 7,1 C 1,6 km/h (1 Bft) 97,87 %
17.10.2017 03:58 7,0 C 11,7 C 96 % 1024,9 hPa 0,0 l/m 0,0 km/h (0 Bft) S 175 0 min 0,000 mm 0,0 UV-I 0 W/m 6,4 C 7,0 C 1,6 km/h (1 Bft) 97,87 %
17.10.2017 04:00 7,0 C 11,7 C 96 % 1024,9 hPa 0,0 l/m 0,0 km/h (0 Bft) S 175 0 min 0,000 mm 0,0 UV-I 0 W/m 6,4 C 7,0 C 0,0 km/h (0 Bft) 98,00 %
17.10.2017 04:02 6,9 C 11,7 C 96 % 1024,9 hPa 0,0 l/m 0,0 km/h (0 Bft) S 175 0 min 0,000 mm 0,0 UV-I 0 W/m 6,3 C 6,9 C 0,0 km/h (0 Bft) 100,00 %
17.10.2017 04:04 6,9 C 11,7 C 96 % 1024,8 hPa 0,0 l/m 0,0 km/h (0 Bft) S 175 0 min 0,000 mm 0,0 UV-I 0 W/m 6,3 C 6,9 C 0,0 km/h (0 Bft) 92,73 %
17.10.2017 04:06 6,9 C 11,7 C 96 % 1024,8 hPa 0,0 l/m 0,1 km/h (0 Bft) S 175 0 min 0,000 mm 0,0 UV-I 0 W/m 6,3 C 6,9 C 1,6 km/h (1 Bft) 93,62 %
17.10.2017 04:08 6,9 C 11,7 C 96 % 1024,8 hPa 0,0 l/m 0,7 km/h (0 Bft) S 175 0 min 0,000 mm 0,0 UV-I 0 W/m 6,3 C 6,9 C 1,6 km/h (1 Bft) 94,44 %
17.10.2017 04:10 6,9 C 11,7 C 96 % 1024,9 hPa 0,0 l/m 1,2 km/h (1 Bft) S 175 0 min 0,000 mm 0,0 UV-I 0 W/m 6,3 C 6,9 C 1,6 km/h (1 Bft) 96,00 %
17.10.2017 04:12 6,9 C 11,7 C 96 % 1024,8 hPa 0,0 l/m 1,8 km/h (1 Bft) S 175 0 min 0,000 mm 0,0 UV-I 0 W/m 6,3 C 6,9 C 3,2 km/h (1 Bft) 92,00 %
17.10.2017 04:14 6,9 C 11,7 C 96 % 1024,9 hPa 0,0 l/m 2,1 km/h (1 Bft) S 175 0 min 0,000 mm 0,0 UV-I 0 W/m 6,3 C 6,9 C 3,2 km/h (1 Bft) 91,49 %
17.10.2017 04:16 6,8 C 11,7 C 96 % 1024,8 hPa 0,0 l/m 1,8 km/h (1 Bft) S 175 0 min 0,000 mm 0,0 UV-I 0 W/m 6,2 C 6,8 C 3,2 km/h (1 Bft) 95,12 %
17.10.2017 04:18 6,8 C 11,7 C 96 % 1024,8 hPa 0,0 l/m 1,6 km/h (1 Bft) S 175 0 min 0,000 mm 0,0 UV-I 0 W/m 6,2 C 6,8 C 3,2 km/h (1 Bft) 96,23 %
17.10.2017 04:20 6,8 C 11,7 C 96 % 1024,8 hPa 0,0 l/m 0,6 km/h (0 Bft) S 175 0 min 0,000 mm 0,0 UV-I 0 W/m 6,2 C 6,8 C 1,6 km/h (1 Bft) 96,00 %
17.10.2017 04:22 6,8 C 11,7 C 96 % 1024,8 hPa 0,0 l/m 0,2 km/h (0 Bft) S 175 0 min 0,000 mm 0,0 UV-I 0 W/m 6,2 C 6,8 C 1,6 km/h (1 Bft) 96,00 %
17.10.2017 04:24 6,7 C 11,7 C 96 % 1024,8 hPa 0,0 l/m 0,1 km/h (0 Bft) S 175 0 min 0,000 mm 0,0 UV-I 0 W/m 6,1 C 6,7 C 1,6 km/h (1 Bft) 91,49 %
17.10.2017 04:26 6,8 C 11,7 C 96 % 1024,9 hPa 0,0 l/m 0,0 km/h (0 Bft) S 175 0 min 0,000 mm 0,0 UV-I 0 W/m 6,2 C 6,8 C 0,0 km/h (0 Bft) 94,29 %
17.10.2017 04:28 6,8 C 11,7 C 96 % 1024,8 hPa 0,0 l/m 0,0 km/h (0 Bft) S 175 0 min 0,000 mm 0,0 UV-I 0 W/m 6,2 C 6,8 C 0,0 km/h (0 Bft) 96,00 %
17.10.2017 04:30 6,8 C 11,7 C 96 % 1024,9 hPa 0,0 l/m 0,0 km/h (0 Bft) S 175 0 min 0,000 mm 0,0 UV-I 0 W/m 6,2 C 6,8 C 0,0 km/h (0 Bft) 94,00 %
17.10.2017 04:32 6,8 C 11,7 C 96 % 1024,9 hPa 0,0 l/m 0,0 km/h (0 Bft) S 175 0 min 0,000 mm 0,0 UV-I 0 W/m 6,2 C 6,8 C 0,0 km/h (0 Bft) 96,00 %
17.10.2017 04:34 6,9 C 11,7 C 96 % 1024,9 hPa 0,0 l/m 0,0 km/h (0 Bft) S 175 0 min 0,000 mm 0,0 UV-I 0 W/m 6,3 C 6,9 C 0,0 km/h (0 Bft) 97,87 %
17.10.2017 04:36 7,1 C 11,7 C 96 % 1024,9 hPa 0,0 l/m 0,0 km/h (0 Bft) S 175 0 min 0,000 mm 0,0 UV-I 0 W/m 6,5 C 7,1 C 0,0 km/h (0 Bft) 97,87 %
17.10.2017 04:38 7,1 C 11,7 C 96 % 1024,8 hPa 0,0 l/m 0,0 km/h (0 Bft) S 175 0 min 0,000 mm 0,0 UV-I 0 W/m 6,5 C 7,1 C 0,0 km/h (0 Bft) 95,74 %
17.10.2017 04:40 7,1 C 11,7 C 96 % 1024,8 hPa 0,0 l/m 0,0 km/h (0 Bft) S 175 0 min 0,000 mm 0,0 UV-I 0 W/m 6,5 C 7,1 C 0,0 km/h (0 Bft) 97,22 %
17.10.2017 04:42 7,0 C 11,7 C 96 % 1024,8 hPa 0,0 l/m 0,0 km/h (0 Bft) S 175 0 min 0,000 mm 0,0 UV-I 0 W/m 6,4 C 7,0 C 0,0 km/h (0 Bft) 100,00 %
17.10.2017 04:44 7,0 C 11,7 C 96 % 1024,9 hPa 0,0 l/m 0,0 km/h (0 Bft) S 175 0 min 0,000 mm 0,0 UV-I 0 W/m 6,4 C 7,0 C 0,0 km/h (0 Bft) 100,00 %
17.10.2017 04:46 7,0 C 11,7 C 96 % 1024,8 hPa 0,0 l/m 0,0 km/h (0 Bft) S 175 0 min 0,000 mm 0,0 UV-I 0 W/m 6,4 C 7,0 C 0,0 km/h (0 Bft) 98,00 %
17.10.2017 04:48 7,1 C 11,7 C 96 % 1024,8 hPa 0,0 l/m 0,0 km/h (0 Bft) S 175 0 min 0,000 mm 0,0 UV-I 0 W/m 6,5 C 7,1 C 0,0 km/h (0 Bft) 100,00 %
17.10.2017 04:50 7,0 C 11,7 C 96 % 1024,8 hPa 0,0 l/m 0,0 km/h (0 Bft) S 175 0 min 0,000 mm 0,0 UV-I 0 W/m 6,4 C 7,0 C 0,0 km/h (0 Bft) 100,00 %
17.10.2017 04:52 6,9 C 11,7 C 96 % 1024,8 hPa 0,0 l/m 0,0 km/h (0 Bft) S 175 0 min 0,000 mm 0,0 UV-I 0 W/m 6,3 C 6,9 C 0,0 km/h (0 Bft) 100,00 %
17.10.2017 04:54 6,8 C 11,7 C 96 % 1024,8 hPa 0,0 l/m 0,0 km/h (0 Bft) S 175 0 min 0,000 mm 0,0 UV-I 0 W/m 6,2 C 6,8 C 0,0 km/h (0 Bft) 100,00 %
17.10.2017 04:56 6,8 C 11,7 C 96 % 1024,8 hPa 0,0 l/m 0,0 km/h (0 Bft) S 175 0 min 0,000 mm 0,0 UV-I 0 W/m 6,2 C 6,8 C 0,0 km/h (0 Bft) 100,00 %
17.10.2017 04:58 6,8 C 11,7 C 96 % 1024,8 hPa 0,0 l/m 0,0 km/h (0 Bft) S 175 0 min 0,000 mm 0,0 UV-I 0 W/m 6,2 C 6,8 C 0,0 km/h (0 Bft) 100,00 %
17.10.2017 05:00 6,8 C 11,7 C 96 % 1024,8 hPa 0,0 l/m 0,0 km/h (0 Bft) S 175 0 min 0,000 mm 0,0 UV-I 0 W/m 6,2 C 6,8 C 0,0 km/h (0 Bft) 100,00 %
17.10.2017 05:02 6,9 C 11,7 C 96 % 1024,8 hPa 0,0 l/m 0,0 km/h (0 Bft) S 175 0 min 0,000 mm 0,0 UV-I 0 W/m 6,3 C 6,9 C 0,0 km/h (0 Bft) 98,00 %
17.10.2017 05:04 6,9 C 11,7 C 96 % 1024,8 hPa 0,0 l/m 0,0 km/h (0 Bft) S 175 0 min 0,000 mm 0,0 UV-I 0 W/m 6,3 C 6,9 C 0,0 km/h (0 Bft) 100,00 %
17.10.2017 05:06 6,9 C 11,7 C 96 % 1024,8 hPa 0,0 l/m 0,0 km/h (0 Bft) S 175 0 min 0,000 mm 0,0 UV-I 0 W/m 6,3 C 6,9 C 0,0 km/h (0 Bft) 100,00 %
17.10.2017 05:08 6,7 C 11,7 C 96 % 1024,8 hPa 0,0 l/m 0,0 km/h (0 Bft) S 175 0 min 0,000 mm 0,0 UV-I 0 W/m 6,1 C 6,7 C 0,0 km/h (0 Bft) 97,87 %
17.10.2017 05:10 6,7 C 11,7 C 96 % 1024,8 hPa 0,0 l/m 0,0 km/h (0 Bft) S 175 0 min 0,000 mm 0,0 UV-I 0 W/m 6,1 C 6,7 C 0,0 km/h (0 Bft) 100,00 %
17.10.2017 05:12 6,6 C 11,7 C 96 % 1024,8 hPa 0,0 l/m 0,0 km/h (0 Bft) S 175 0 min 0,000 mm 0,0 UV-I 0 W/m 6,0 C 6,6 C 0,0 km/h (0 Bft) 95,45 %
17.10.2017 05:14 6,6 C 11,7 C 96 % 1024,8 hPa 0,0 l/m 0,0 km/h (0 Bft) S 175 0 min 0,000 mm 0,0 UV-I 0 W/m 6,0 C 6,6 C 0,0 km/h (0 Bft) 100,00 %
17.10.2017 05:16 6,7 C 11,7 C 96 % 1024,8 hPa 0,0 l/m 0,0 km/h (0 Bft) S 175 0 min 0,000 mm 0,0 UV-I 0 W/m 6,1 C 6,7 C 0,0 km/h (0 Bft) 100,00 %
17.10.2017 05:18 6,7 C 11,7 C 96 % 1024,8 hPa 0,0 l/m 0,0 km/h (0 Bft) S 175 0 min 0,000 mm 0,0 UV-I 0 W/m 6,1 C 6,7 C 0,0 km/h (0 Bft) 100,00 %
17.10.2017 05:20 6,7 C 11,7 C 96 % 1024,8 hPa 0,0 l/m 0,0 km/h (0 Bft) S 175 0 min 0,000 mm 0,0 UV-I 0 W/m 6,1 C 6,7 C 0,0 km/h (0 Bft) 100,00 %
17.10.2017 05:22 6,9 C 11,7 C 96 % 1024,8 hPa 0,0 l/m 0,0 km/h (0 Bft) S 175 0 min 0,000 mm 0,0 UV-I 0 W/m 6,3 C 6,9 C 0,0 km/h (0 Bft) 100,00 %
17.10.2017 05:24 7,0 C 11,7 C 97 % 1024,8 hPa 0,0 l/m 0,0 km/h (0 Bft) S 175 0 min 0,000 mm 0,0 UV-I 0 W/m 6,6 C 7,0 C 0,0 km/h (0 Bft) 100,00 %
17.10.2017 05:26 7,1 C 11,7 C 97 % 1024,8 hPa 0,0 l/m 0,0 km/h (0 Bft) S 175 0 min 0,000 mm 0,0 UV-I 0 W/m 6,7 C 7,1 C 0,0 km/h (0 Bft) 100,00 %
17.10.2017 05:28 7,0 C 11,7 C 96 % 1024,7 hPa 0,0 l/m 0,0 km/h (0 Bft) S 175 0 min 0,000 mm 0,0 UV-I 0 W/m 6,4 C 7,0 C 0,0 km/h (0 Bft) 97,87 %
17.10.2017 05:30 6,9 C 11,7 C 96 % 1024,7 hPa 0,0 l/m 0,0 km/h (0 Bft) S 175 0 min 0,000 mm 0,0 UV-I 0 W/m 6,3 C 6,9 C 0,0 km/h (0 Bft) 97,87 %
17.10.2017 05:32 6,8 C 11,7 C 96 % 1024,7 hPa 0,0 l/m 0,0 km/h (0 Bft) S 175 0 min 0,000 mm 0,0 UV-I 0 W/m 6,2 C 6,8 C 0,0 km/h (0 Bft) 100,00 %
17.10.2017 05:34 6,8 C 11,7 C 96 % 1024,7 hPa 0,0 l/m 0,0 km/h (0 Bft) S 175 0 min 0,000 mm 0,0 UV-I 0 W/m 6,2 C 6,8 C 0,0 km/h (0 Bft) 100,00 %
17.10.2017 05:36 6,7 C 11,7 C 96 % 1024,7 hPa 0,0 l/m 0,0 km/h (0 Bft) S 175 0 min 0,000 mm 0,0 UV-I 0 W/m 6,1 C 6,7 C 0,0 km/h (0 Bft) 97,87 %
17.10.2017 05:38 6,7 C 11,7 C 96 % 1024,7 hPa 0,0 l/m 0,0 km/h (0 Bft) S 175 0 min 0,000 mm 0,0 UV-I 0 W/m 6,1 C 6,7 C 0,0 km/h (0 Bft) 100,00 %
17.10.2017 05:40 6,7 C 11,7 C 96 % 1024,7 hPa 0,0 l/m 0,0 km/h (0 Bft) S 175 0 min 0,000 mm 0,0 UV-I 0 W/m 6,1 C 6,7 C 0,0 km/h (0 Bft) 100,00 %
17.10.2017 05:42 6,7 C 11,7 C 96 % 1024,7 hPa 0,0 l/m 0,0 km/h (0 Bft) S 175 0 min 0,000 mm 0,0 UV-I 0 W/m 6,1 C 6,7 C 0,0 km/h (0 Bft) 100,00 %
17.10.2017 05:44 6,8 C 11,7 C 96 % 1024,7 hPa 0,0 l/m 0,0 km/h (0 Bft) S 175 0 min 0,000 mm 0,0 UV-I 0 W/m 6,2 C 6,8 C 0,0 km/h (0 Bft) 100,00 %
17.10.2017 05:46 6,8 C 11,7 C 96 % 1024,7 hPa 0,0 l/m 0,0 km/h (0 Bft) S 175 0 min 0,000 mm 0,0 UV-I 0 W/m 6,2 C 6,8 C 0,0 km/h (0 Bft) 100,00 %
17.10.2017 05:48 6,8 C 11,7 C 96 % 1024,7 hPa 0,0 l/m 0,0 km/h (0 Bft) S 175 0 min 0,000 mm 0,0 UV-I 0 W/m 6,2 C 6,8 C 0,0 km/h (0 Bft) 95,74 %
17.10.2017 05:50 6,8 C 11,7 C 96 % 1024,7 hPa 0,0 l/m 0,0 km/h (0 Bft) S 175 0 min 0,000 mm 0,0 UV-I 0 W/m 6,2 C 6,8 C 0,0 km/h (0 Bft) 100,00 %
17.10.2017 05:52 6,8 C 11,7 C 96 % 1024,7 hPa 0,0 l/m 0,0 km/h (0 Bft) S 175 0 min 0,000 mm 0,0 UV-I 0 W/m 6,2 C 6,8 C 0,0 km/h (0 Bft) 100,00 %
17.10.2017 05:54 6,8 C 11,7 C 96 % 1024,7 hPa 0,0 l/m 0,0 km/h (0 Bft) S 175 0 min 0,000 mm 0,0 UV-I 0 W/m 6,2 C 6,8 C 0,0 km/h (0 Bft) 100,00 %
17.10.2017 05:56 6,8 C 11,7 C 96 % 1024,7 hPa 0,0 l/m 0,0 km/h (0 Bft) S 175 0 min 0,000 mm 0,0 UV-I 0 W/m 6,2 C 6,8 C 0,0 km/h (0 Bft) 100,00 %
17.10.2017 05:58 6,8 C 11,7 C 96 % 1024,7 hPa 0,0 l/m 0,0 km/h (0 Bft) S 175 0 min 0,000 mm 0,0 UV-I 0 W/m 6,2 C 6,8 C 0,0 km/h (0 Bft) 100,00 %
17.10.2017 06:00 6,8 C 11,7 C 96 % 1024,7 hPa 0,0 l/m 0,0 km/h (0 Bft) S 175 0 min 0,000 mm 0,0 UV-I 0 W/m 6,2 C 6,8 C 0,0 km/h (0 Bft) 100,00 %
17.10.2017 06:02 6,8 C 11,7 C 96 % 1024,8 hPa 0,0 l/m 0,0 km/h (0 Bft) S 175 0 min 0,000 mm 0,0 UV-I 0 W/m 6,2 C 6,8 C 0,0 km/h (0 Bft) 100,00 %
17.10.2017 06:04 6,7 C 11,7 C 96 % 1024,7 hPa 0,0 l/m 0,0 km/h (0 Bft) S 175 0 min 0,000 mm 0,0 UV-I 0 W/m 6,1 C 6,7 C 0,0 km/h (0 Bft) 97,44 %
17.10.2017 06:06 6,6 C 11,7 C 96 % 1024,7 hPa 0,0 l/m 0,0 km/h (0 Bft) S 175 0 min 0,000 mm 0,0 UV-I 0 W/m 6,0 C 6,6 C 0,0 km/h (0 Bft) 100,00 %
17.10.2017 06:08 6,6 C 11,7 C 96 % 1024,8 hPa 0,0 l/m 0,0 km/h (0 Bft) S 175 0 min 0,000 mm 0,0 UV-I 0 W/m 6,0 C 6,6 C 0,0 km/h (0 Bft) 100,00 %
17.10.2017 06:10 6,6 C 11,7 C 96 % 1024,8 hPa 0,0 l/m 0,0 km/h (0 Bft) S 175 0 min 0,000 mm 0,0 UV-I 0 W/m 6,0 C 6,6 C 0,0 km/h (0 Bft) 100,00 %
17.10.2017 06:12 6,6 C 11,7 C 97 % 1024,8 hPa 0,0 l/m 0,0 km/h (0 Bft) S 175 0 min 0,000 mm 0,0 UV-I 0 W/m 6,2 C 6,6 C 0,0 km/h (0 Bft) 100,00 %
17.10.2017 06:14 6,7 C 11,7 C 96 % 1024,8 hPa 0,0 l/m 0,0 km/h (0 Bft) S 175 0 min 0,000 mm 0,0 UV-I 0 W/m 6,1 C 6,7 C 0,0 km/h (0 Bft) 100,00 %
17.10.2017 06:16 6,7 C 11,7 C 97 % 1024,8 hPa 0,0 l/m 0,0 km/h (0 Bft) S 175 0 min 0,000 mm 0,0 UV-I 0 W/m 6,3 C 6,7 C 0,0 km/h (0 Bft) 100,00 %
17.10.2017 06:18 6,7 C 11,7 C 97 % 1024,8 hPa 0,0 l/m 0,0 km/h (0 Bft) S 175 0 min 0,000 mm 0,0 UV-I 0 W/m 6,3 C 6,7 C 0,0 km/h (0 Bft) 97,87 %
17.10.2017 06:20 6,7 C 11,7 C 96 % 1024,8 hPa 0,0 l/m 0,0 km/h (0 Bft) S 175 0 min 0,000 mm 0,0 UV-I 0 W/m 6,1 C 6,7 C 0,0 km/h (0 Bft) 100,00 %
17.10.2017 06:22 6,5 C 11,7 C 96 % 1024,9 hPa 0,0 l/m 0,0 km/h (0 Bft) S 175 0 min 0,000 mm 0,0 UV-I 0 W/m 5,9 C 6,5 C 0,0 km/h (0 Bft) 100,00 %
17.10.2017 06:24 6,4 C 11,7 C 96 % 1024,9 hPa 0,0 l/m 0,0 km/h (0 Bft) S 175 0 min 0,000 mm 0,0 UV-I 0 W/m 5,8 C 6,4 C 0,0 km/h (0 Bft) 100,00 %
17.10.2017 06:26 6,3 C 11,7 C 96 % 1024,9 hPa 0,0 l/m 0,0 km/h (0 Bft) S 175 0 min 0,000 mm 0,0 UV-I 0 W/m 5,7 C 6,3 C 0,0 km/h (0 Bft) 95,74 %
17.10.2017 06:28 6,3 C 11,7 C 96 % 1024,9 hPa 0,0 l/m 0,0 km/h (0 Bft) S 175 0 min 0,000 mm 0,0 UV-I 0 W/m 5,7 C 6,3 C 0,0 km/h (0 Bft) 98,21 %
17.10.2017 06:30 6,3 C 11,7 C 96 % 1024,9 hPa 0,0 l/m 0,0 km/h (0 Bft) S 175 0 min 0,000 mm 0,0 UV-I 0 W/m 5,7 C 6,3 C 0,0 km/h (0 Bft) 95,74 %
17.10.2017 06:32 6,3 C 11,7 C 96 % 1025,0 hPa 0,0 l/m 0,0 km/h (0 Bft) S 175 0 min 0,000 mm 0,0 UV-I 0 W/m 5,7 C 6,3 C 0,0 km/h (0 Bft) 97,37 %
17.10.2017 06:34 6,4 C 11,7 C 97 % 1024,9 hPa 0,0 l/m 0,0 km/h (0 Bft) S 175 0 min 0,000 mm 0,0 UV-I 0 W/m 6,0 C 6,4 C 0,0 km/h (0 Bft) 97,62 %
17.10.2017 06:36 6,4 C 11,7 C 97 % 1024,9 hPa 0,0 l/m 0,0 km/h (0 Bft) S 175 0 min 0,000 mm 0,0 UV-I 0 W/m 6,0 C 6,4 C 0,0 km/h (0 Bft) 98,08 %
17.10.2017 06:38 6,4 C 11,7 C 97 % 1024,9 hPa 0,0 l/m 0,0 km/h (0 Bft) S 175 0 min 0,000 mm 0,0 UV-I 0 W/m 6,0 C 6,4 C 0,0 km/h (0 Bft) 98,00 %
17.10.2017 06:40 6,4 C 11,7 C 97 % 1024,9 hPa 0,0 l/m 0,0 km/h (0 Bft) S 175 0 min 0,000 mm 0,0 UV-I 0 W/m 6,0 C 6,4 C 0,0 km/h (0 Bft) 97,44 %
17.10.2017 06:42 6,4 C 11,7 C 97 % 1024,9 hPa 0,0 l/m 0,0 km/h (0 Bft) S 175 0 min 0,000 mm 0,0 UV-I 0 W/m 6,0 C 6,4 C 0,0 km/h (0 Bft) 98,11 %
17.10.2017 06:44 6,5 C 11,7 C 97 % 1024,9 hPa 0,0 l/m 0,0 km/h (0 Bft) S 175 0 min 0,000 mm 0,0 UV-I 0 W/m 6,1 C 6,5 C 0,0 km/h (0 Bft) 97,87 %
17.10.2017 06:46 6,6 C 11,7 C 97 % 1024,9 hPa 0,0 l/m 0,0 km/h (0 Bft) S 175 0 min 0,000 mm 0,0 UV-I 0 W/m 6,2 C 6,6 C 0,0 km/h (0 Bft) 97,87 %
17.10.2017 06:48 6,6 C 11,7 C 97 % 1024,9 hPa 0,0 l/m 0,0 km/h (0 Bft) S 175 0 min 0,000 mm 0,0 UV-I 0 W/m 6,2 C 6,6 C 0,0 km/h (0 Bft) 94,00 %
17.10.2017 06:50 6,7 C 11,7 C 97 % 1024,9 hPa 0,0 l/m 0,0 km/h (0 Bft) S 175 0 min 0,000 mm 0,0 UV-I 0 W/m 6,3 C 6,7 C 0,0 km/h (0 Bft) 98,00 %
17.10.2017 06:52 6,7 C 11,7 C 97 % 1024,9 hPa 0,0 l/m 0,0 km/h (0 Bft) S 175 0 min 0,000 mm 0,0 UV-I 0 W/m 6,3 C 6,7 C 0,0 km/h (0 Bft) 97,56 %
17.10.2017 06:54 6,7 C 11,7 C 97 % 1024,8 hPa 0,0 l/m 0,0 km/h (0 Bft) S 175 0 min 0,000 mm 0,0 UV-I 0 W/m 6,3 C 6,7 C 0,0 km/h (0 Bft) 98,00 %
17.10.2017 06:56 6,8 C 11,7 C 97 % 1024,8 hPa 0,0 l/m 0,0 km/h (0 Bft) S 175 0 min 0,000 mm 0,0 UV-I 0 W/m 6,4 C 6,8 C 0,0 km/h (0 Bft) 97,87 %
17.10.2017 06:58 6,8 C 11,7 C 97 % 1024,8 hPa 0,0 l/m 0,0 km/h (0 Bft) S 175 0 min 0,000 mm 0,0 UV-I 0 W/m 6,4 C 6,8 C 0,0 km/h (0 Bft) 88,00 %
17.10.2017 07:00 6,9 C 11,7 C 97 % 1024,8 hPa 0,0 l/m 0,0 km/h (0 Bft) S 175 0 min 0,000 mm 0,0 UV-I 0 W/m 6,5 C 6,9 C 0,0 km/h (0 Bft) 95,12 %
17.10.2017 07:02 7,1 C 11,7 C 97 % 1024,8 hPa 0,0 l/m 0,0 km/h (0 Bft) S 175 0 min 0,000 mm 0,0 UV-I 0 W/m 6,7 C 7,1 C 0,0 km/h (0 Bft) 96,00 %
17.10.2017 07:04 7,1 C 11,7 C 97 % 1024,8 hPa 0,0 l/m 0,0 km/h (0 Bft) S 175 0 min 0,000 mm 0,0 UV-I 0 W/m 6,7 C 7,1 C 0,0 km/h (0 Bft) 95,74 %
17.10.2017 07:06 7,2 C 11,7 C 97 % 1024,8 hPa 0,0 l/m 0,0 km/h (0 Bft) S 175 0 min 0,000 mm 0,0 UV-I 0 W/m 6,8 C 7,2 C 0,0 km/h (0 Bft) 97,87 %
17.10.2017 07:08 7,2 C 11,7 C 97 % 1024,8 hPa 0,0 l/m 0,0 km/h (0 Bft) S 175 0 min 0,000 mm 0,0 UV-I 0 W/m 6,8 C 7,2 C 0,0 km/h (0 Bft) 97,87 %
17.10.2017 07:10 7,2 C 11,7 C 97 % 1024,8 hPa 0,0 l/m 0,0 km/h (0 Bft) S 175 0 min 0,000 mm 0,0 UV-I 0 W/m 6,8 C 7,2 C 0,0 km/h (0 Bft) 97,87 %
17.10.2017 07:12 7,3 C 11,7 C 97 % 1024,8 hPa 0,2 l/m 0,0 km/h (0 Bft) S 175 0 min 0,000 mm 0,0 UV-I 2 W/m 6,9 C 7,3 C 0,0 km/h (0 Bft) 97,37 %
17.10.2017 07:14 7,4 C 11,7 C 97 % 1024,8 hPa 0,0 l/m 0,0 km/h (0 Bft) S 175 0 min 0,000 mm 0,0 UV-I 5 W/m 7,0 C 7,4 C 0,0 km/h (0 Bft) 98,11 %
17.10.2017 07:16 7,4 C 11,7 C 97 % 1024,8 hPa 0,0 l/m 0,0 km/h (0 Bft) S 175 0 min 0,000 mm 0,0 UV-I 5 W/m 7,0 C 7,4 C 0,0 km/h (0 Bft) 96,00 %
17.10.2017 07:18 7,4 C 11,7 C 97 % 1024,8 hPa 0,0 l/m 0,0 km/h (0 Bft) S 175 0 min 0,000 mm 0,0 UV-I 5 W/m 7,0 C 7,4 C 0,0 km/h (0 Bft) 95,74 %
17.10.2017 07:20 7,4 C 11,7 C 97 % 1024,8 hPa 0,0 l/m 0,0 km/h (0 Bft) S 175 0 min 0,000 mm 0,0 UV-I 5 W/m 7,0 C 7,4 C 0,0 km/h (0 Bft) 95,74 %
17.10.2017 07:22 7,4 C 11,7 C 97 % 1024,9 hPa 0,0 l/m 0,0 km/h (0 Bft) S 175 0 min 0,000 mm 0,0 UV-I 7 W/m 7,0 C 7,4 C 0,0 km/h (0 Bft) 97,92 %
17.10.2017 07:24 7,4 C 11,7 C 97 % 1024,9 hPa 0,0 l/m 0,0 km/h (0 Bft) S 175 0 min 0,000 mm 0,0 UV-I 7 W/m 7,0 C 7,4 C 0,0 km/h (0 Bft) 95,74 %
17.10.2017 07:26 7,4 C 11,7 C 97 % 1024,9 hPa 0,0 l/m 0,0 km/h (0 Bft) S 175 0 min 0,000 mm 0,0 UV-I 7 W/m 7,0 C 7,4 C 0,0 km/h (0 Bft) 97,22 %
17.10.2017 07:28 7,4 C 11,7 C 97 % 1024,9 hPa 0,0 l/m 0,0 km/h (0 Bft) S 175 0 min 0,000 mm 0,0 UV-I 8 W/m 7,0 C 7,4 C 0,0 km/h (0 Bft) 98,11 %
17.10.2017 07:30 7,5 C 11,7 C 97 % 1024,9 hPa 0,0 l/m 0,0 km/h (0 Bft) S 175 0 min 0,000 mm 0,0 UV-I 9 W/m 7,1 C 7,5 C 0,0 km/h (0 Bft) 97,87 %
17.10.2017 07:32 7,6 C 11,7 C 97 % 1024,9 hPa 0,0 l/m 0,0 km/h (0 Bft) S 175 0 min 0,000 mm 0,0 UV-I 9 W/m 7,2 C 7,6 C 0,0 km/h (0 Bft) 98,00 %
17.10.2017 07:34 7,6 C 11,7 C 97 % 1024,9 hPa 0,0 l/m 0,0 km/h (0 Bft) S 175 0 min 0,000 mm 0,0 UV-I 11 W/m 7,2 C 7,6 C 0,0 km/h (0 Bft) 97,37 %
17.10.2017 07:36 7,6 C 11,7 C 97 % 1024,9 hPa 0,0 l/m 0,0 km/h (0 Bft) S 175 0 min 0,000 mm 0,0 UV-I 11 W/m 7,2 C 7,6 C 0,0 km/h (0 Bft) 97,87 %
17.10.2017 07:38 7,5 C 11,7 C 97 % 1024,9 hPa 0,0 l/m 0,0 km/h (0 Bft) S 175 2 min 0,000 mm 0,0 UV-I 12 W/m 7,1 C 7,5 C 0,0 km/h (0 Bft) 96,23 %
17.10.2017 07:40 7,5 C 11,7 C 97 % 1024,9 hPa 0,0 l/m 0,0 km/h (0 Bft) S 175 0 min 0,000 mm 0,0 UV-I 13 W/m 7,1 C 7,5 C 0,0 km/h (0 Bft) 98,00 %
17.10.2017 07:42 7,6 C 11,7 C 97 % 1024,9 hPa 0,0 l/m 0,0 km/h (0 Bft) S 175 0 min 0,000 mm 0,0 UV-I 14 W/m 7,2 C 7,6 C 0,0 km/h (0 Bft) 97,37 %
17.10.2017 07:44 7,6 C 11,7 C 97 % 1025,0 hPa 0,0 l/m 0,0 km/h (0 Bft) S 175 0 min 0,000 mm 0,0 UV-I 16 W/m 7,2 C 7,6 C 0,0 km/h (0 Bft) 96,23 %
17.10.2017 07:46 7,6 C 11,7 C 97 % 1025,0 hPa 0,0 l/m 0,0 km/h (0 Bft) S 175 0 min 0,000 mm 0,0 UV-I 18 W/m 7,2 C 7,6 C 0,0 km/h (0 Bft) 97,87 %
17.10.2017 07:48 7,6 C 11,7 C 97 % 1024,9 hPa 0,0 l/m 0,0 km/h (0 Bft) S 175 0 min 0,000 mm 0,0 UV-I 19 W/m 7,2 C 7,6 C 0,0 km/h (0 Bft) 97,87 %
17.10.2017 07:50 7,5 C 11,7 C 97 % 1024,9 hPa 0,0 l/m 0,0 km/h (0 Bft) S 175 0 min 0,000 mm 0,0 UV-I 19 W/m 7,1 C 7,5 C 0,0 km/h (0 Bft) 98,00 %
17.10.2017 07:52 7,5 C 11,7 C 97 % 1025,0 hPa 0,0 l/m 0,0 km/h (0 Bft) S 175 0 min 0,000 mm 0,0 UV-I 21 W/m 7,1 C 7,5 C 0,0 km/h (0 Bft) 97,56 %
17.10.2017 07:54 7,6 C 11,7 C 97 % 1025,0 hPa 0,0 l/m 0,0 km/h (0 Bft) S 175 0 min 0,000 mm 0,0 UV-I 22 W/m 7,2 C 7,6 C 0,0 km/h (0 Bft) 98,00 %
17.10.2017 07:56 7,6 C 11,7 C 97 % 1025,0 hPa 0,0 l/m 0,0 km/h (0 Bft) S 175 0 min 0,000 mm 0,0 UV-I 24 W/m 7,2 C 7,6 C 0,0 km/h (0 Bft) 92,68 %
17.10.2017 07:59 7,6 C 11,7 C 97 % 1025,0 hPa 0,0 l/m 0,0 km/h (0 Bft) S 175 0 min 0,000 mm 0,0 UV-I 27 W/m 7,2 C 7,6 C 0,0 km/h (0 Bft) 97,40 %
17.10.2017 08:00 7,6 C 11,7 C 97 % 1025,0 hPa 0,0 l/m 0,0 km/h (0 Bft) S 175 0 min 0,000 mm 0,0 UV-I 30 W/m 7,2 C 7,6 C 0,0 km/h (0 Bft) 100,00 %
17.10.2017 08:02 7,6 C 11,7 C 97 % 1025,0 hPa 0,0 l/m 0,0 km/h (0 Bft) S 175 0 min 0,000 mm 0,0 UV-I 31 W/m 7,2 C 7,6 C 0,0 km/h (0 Bft) 97,44 %
17.10.2017 08:04 7,7 C 11,7 C 97 % 1025,0 hPa 0,0 l/m 0,0 km/h (0 Bft) S 175 0 min 0,000 mm 0,0 UV-I 33 W/m 7,3 C 7,7 C 0,0 km/h (0 Bft) 100,00 %
17.10.2017 08:06 7,7 C 11,7 C 97 % 1025,0 hPa 0,0 l/m 0,0 km/h (0 Bft) S 175 0 min 0,000 mm 0,0 UV-I 37 W/m 7,3 C 7,7 C 0,0 km/h (0 Bft) 100,00 %
17.10.2017 08:08 7,8 C 11,7 C 97 % 1025,0 hPa 0,0 l/m 0,0 km/h (0 Bft) S 175 0 min 0,000 mm 0,0 UV-I 40 W/m 7,4 C 7,8 C 0,0 km/h (0 Bft) 100,00 %
17.10.2017 08:10 7,8 C 11,7 C 97 % 1025,0 hPa 0,0 l/m 0,0 km/h (0 Bft) S 175 0 min 0,000 mm 0,0 UV-I 45 W/m 7,4 C 7,8 C 0,0 km/h (0 Bft) 100,00 %
17.10.2017 08:12 7,9 C 11,7 C 97 % 1025,1 hPa 0,0 l/m 0,0 km/h (0 Bft) S 175 0 min 0,000 mm 0,0 UV-I 49 W/m 7,5 C 7,9 C 0,0 km/h (0 Bft) 100,00 %
17.10.2017 08:14 7,9 C 11,7 C 97 % 1025,1 hPa 0,0 l/m 0,0 km/h (0 Bft) S 175 0 min 0,000 mm 0,0 UV-I 50 W/m 7,5 C 7,9 C 0,0 km/h (0 Bft) 98,00 %
17.10.2017 08:16 7,9 C 11,7 C 97 % 1025,1 hPa 0,0 l/m 0,0 km/h (0 Bft) S 175 0 min 0,000 mm 0,0 UV-I 53 W/m 7,5 C 7,9 C 0,0 km/h (0 Bft) 100,00 %
17.10.2017 08:18 8,0 C 11,7 C 97 % 1025,1 hPa 0,0 l/m 0,0 km/h (0 Bft) S 175 0 min 0,000 mm 0,0 UV-I 53 W/m 7,6 C 8,0 C 0,0 km/h (0 Bft) 100,00 %
17.10.2017 08:20 8,0 C 11,7 C 97 % 1025,1 hPa 0,0 l/m 0,0 km/h (0 Bft) S 175 0 min 0,000 mm 0,0 UV-I 54 W/m 7,6 C 8,0 C 0,0 km/h (0 Bft) 100,00 %
17.10.2017 08:22 8,0 C 11,7 C 97 % 1025,1 hPa 0,0 l/m 0,0 km/h (0 Bft) S 175 0 min 0,000 mm 0,0 UV-I 60 W/m 7,6 C 8,0 C 0,0 km/h (0 Bft) 100,00 %
17.10.2017 08:24 8,0 C 11,7 C 97 % 1025,2 hPa 0,0 l/m 0,0 km/h (0 Bft) S 175 0 min 0,000 mm 0,0 UV-I 67 W/m 7,6 C 8,0 C 0,0 km/h (0 Bft) 100,00 %
17.10.2017 08:26 8,1 C 11,7 C 97 % 1025,2 hPa 0,0 l/m 0,0 km/h (0 Bft) S 175 0 min 0,000 mm 0,0 UV-I 65 W/m 7,7 C 8,1 C 0,0 km/h (0 Bft) 98,00 %
17.10.2017 08:28 8,1 C 11,7 C 97 % 1025,2 hPa 0,0 l/m 0,0 km/h (0 Bft) S 175 0 min 0,000 mm 0,0 UV-I 67 W/m 7,7 C 8,1 C 0,0 km/h (0 Bft) 100,00 %
17.10.2017 08:30 8,1 C 11,7 C 97 % 1025,2 hPa 0,0 l/m 0,0 km/h (0 Bft) S 175 0 min 0,000 mm 0,0 UV-I 66 W/m 7,7 C 8,1 C 0,0 km/h (0 Bft) 100,00 %
17.10.2017 08:32 8,1 C 11,7 C 97 % 1025,2 hPa 0,0 l/m 0,0 km/h (0 Bft) S 175 0 min 0,000 mm 0,0 UV-I 74 W/m 7,7 C 8,1 C 0,0 km/h (0 Bft) 100,00 %
17.10.2017 08:34 8,2 C 11,7 C 97 % 1025,2 hPa 0,0 l/m 0,0 km/h (0 Bft) S 175 0 min 0,000 mm 0,0 UV-I 72 W/m 7,8 C 8,2 C 0,0 km/h (0 Bft) 100,00 %
17.10.2017 08:36 8,2 C 11,7 C 98 % 1025,3 hPa 0,0 l/m 0,0 km/h (0 Bft) S 175 0 min 0,000 mm 0,0 UV-I 84 W/m 7,9 C 8,2 C 0,0 km/h (0 Bft) 98,00 %
17.10.2017 08:38 8,2 C 11,7 C 98 % 1025,3 hPa 0,0 l/m 0,0 km/h (0 Bft) S 175 2 min 0,000 mm 0,0 UV-I 101 W/m 7,9 C 8,2 C 0,0 km/h (0 Bft) 97,44 %
17.10.2017 08:40 8,2 C 11,7 C 98 % 1025,3 hPa 0,0 l/m 0,0 km/h (0 Bft) S 175 2 min 0,000 mm 0,0 UV-I 116 W/m 7,9 C 8,2 C 0,0 km/h (0 Bft) 98,00 %
17.10.2017 08:42 8,2 C 11,7 C 98 % 1025,3 hPa 0,0 l/m 0,0 km/h (0 Bft) S 175 2 min 0,000 mm 0,0 UV-I 118 W/m 7,9 C 8,2 C 0,0 km/h (0 Bft) 97,56 %
17.10.2017 08:44 8,2 C 11,7 C 98 % 1025,3 hPa 0,0 l/m 0,0 km/h (0 Bft) S 175 2 min 0,000 mm 0,0 UV-I 129 W/m 7,9 C 8,2 C 0,0 km/h (0 Bft) 98,11 %
17.10.2017 08:46 8,2 C 11,7 C 98 % 1025,3 hPa 0,0 l/m 0,0 km/h (0 Bft) S 175 2 min 0,000 mm 0,0 UV-I 134 W/m 7,9 C 8,2 C 0,0 km/h (0 Bft) 98,11 %
17.10.2017 08:48 8,2 C 11,7 C 98 % 1025,4 hPa 0,0 l/m 0,0 km/h (0 Bft) S 175 2 min 0,000 mm 0,0 UV-I 145 W/m 7,9 C 8,2 C 0,0 km/h (0 Bft) 95,74 %
17.10.2017 08:50 8,3 C 11,7 C 98 % 1025,4 hPa 0,0 l/m 0,0 km/h (0 Bft) S 175 2 min 0,000 mm 0,0 UV-I 149 W/m 8,0 C 8,3 C 0,0 km/h (0 Bft) 94,74 %
17.10.2017 08:52 8,5 C 11,7 C 98 % 1025,4 hPa 0,0 l/m 0,0 km/h (0 Bft) S 175 2 min 0,000 mm 0,0 UV-I 146 W/m 8,2 C 8,5 C 0,0 km/h (0 Bft) 98,00 %
17.10.2017 08:54 8,4 C 11,7 C 98 % 1025,4 hPa 0,0 l/m 0,0 km/h (0 Bft) S 175 2 min 0,000 mm 0,0 UV-I 147 W/m 8,1 C 8,4 C 0,0 km/h (0 Bft) 97,87 %
17.10.2017 08:56 8,4 C 11,7 C 98 % 1025,4 hPa 0,0 l/m 0,0 km/h (0 Bft) S 175 2 min 0,000 mm 0,0 UV-I 150 W/m 8,1 C 8,4 C 0,0 km/h (0 Bft) 97,37 %
17.10.2017 08:58 8,4 C 11,7 C 98 % 1025,4 hPa 0,0 l/m 0,0 km/h (0 Bft) S 175 2 min 0,000 mm 0,0 UV-I 161 W/m 8,1 C 8,4 C 0,0 km/h (0 Bft) 98,21 %
17.10.2017 09:00 8,6 C 11,7 C 98 % 1025,4 hPa 0,0 l/m 0,0 km/h (0 Bft) S 175 2 min 0,051 mm 0,0 UV-I 170 W/m 8,3 C 8,6 C 0,0 km/h (0 Bft) 98,00 %
17.10.2017 09:02 8,7 C 11,7 C 98 % 1025,4 hPa 0,0 l/m 0,0 km/h (0 Bft) S 175 2 min 0,000 mm 0,0 UV-I 170 W/m 8,4 C 8,7 C 0,0 km/h (0 Bft) 97,87 %
17.10.2017 09:04 8,7 C 11,7 C 98 % 1025,3 hPa 0,0 l/m 0,0 km/h (0 Bft) S 175 2 min 0,000 mm 0,0 UV-I 179 W/m 8,4 C 8,7 C 0,0 km/h (0 Bft) 91,49 %
17.10.2017 09:06 8,8 C 11,7 C 98 % 1025,3 hPa 0,0 l/m 0,0 km/h (0 Bft) S 175 2 min 0,000 mm 0,0 UV-I 184 W/m 8,5 C 8,8 C 0,0 km/h (0 Bft) 93,75 %
17.10.2017 09:08 8,9 C 11,7 C 98 % 1025,3 hPa 0,0 l/m 0,0 km/h (0 Bft) S 175 2 min 0,000 mm 0,0 UV-I 181 W/m 8,6 C 8,9 C 0,0 km/h (0 Bft) 100,00 %
17.10.2017 09:10 9,0 C 11,7 C 98 % 1025,3 hPa 0,0 l/m 0,0 km/h (0 Bft) S 175 2 min 0,000 mm 0,0 UV-I 179 W/m 8,7 C 9,0 C 0,0 km/h (0 Bft) 100,00 %
17.10.2017 09:12 9,1 C 11,7 C 98 % 1025,3 hPa 0,0 l/m 0,0 km/h (0 Bft) S 175 2 min 0,000 mm 0,0 UV-I 189 W/m 8,8 C 9,1 C 0,0 km/h (0 Bft) 100,00 %
17.10.2017 09:14 9,1 C 11,7 C 98 % 1025,3 hPa 0,0 l/m 0,0 km/h (0 Bft) S 175 2 min 0,000 mm 0,0 UV-I 210 W/m 8,8 C 9,1 C 0,0 km/h (0 Bft) 97,87 %
17.10.2017 09:16 9,2 C 11,7 C 98 % 1025,3 hPa 0,0 l/m 0,0 km/h (0 Bft) S 175 2 min 0,000 mm 0,0 UV-I 214 W/m 8,9 C 9,2 C 0,0 km/h (0 Bft) 100,00 %
17.10.2017 09:18 9,2 C 11,7 C 98 % 1025,4 hPa 0,0 l/m 0,0 km/h (0 Bft) S 175 2 min 0,000 mm 0,2 UV-I 179 W/m 8,9 C 9,2 C 0,0 km/h (0 Bft) 95,83 %
17.10.2017 09:20 9,1 C 11,7 C 98 % 1025,3 hPa 0,0 l/m 0,0 km/h (0 Bft) S 175 2 min 0,000 mm 0,5 UV-I 174 W/m 8,8 C 9,1 C 0,0 km/h (0 Bft) 100,00 %
17.10.2017 09:22 9,1 C 11,7 C 98 % 1025,3 hPa 0,0 l/m 0,0 km/h (0 Bft) S 175 2 min 0,000 mm 0,5 UV-I 213 W/m 8,8 C 9,1 C 0,0 km/h (0 Bft) 100,00 %
17.10.2017 09:24 9,1 C 11,7 C 98 % 1025,3 hPa 0,0 l/m 0,0 km/h (0 Bft) S 175 2 min 0,000 mm 0,5 UV-I 189 W/m 8,8 C 9,1 C 0,0 km/h (0 Bft) 100,00 %
17.10.2017 09:26 9,2 C 11,7 C 98 % 1025,3 hPa 0,0 l/m 0,0 km/h (0 Bft) S 175 2 min 0,000 mm 0,5 UV-I 211 W/m 8,9 C 9,2 C 0,0 km/h (0 Bft) 100,00 %
17.10.2017 09:28 9,4 C 11,7 C 98 % 1025,3 hPa 0,0 l/m 0,0 km/h (0 Bft) S 175 2 min 0,000 mm 0,5 UV-I 220 W/m 9,1 C 9,4 C 0,0 km/h (0 Bft) 97,87 %
17.10.2017 09:30 9,6 C 11,7 C 98 % 1025,4 hPa 0,0 l/m 0,0 km/h (0 Bft) S 175 2 min 0,000 mm 0,6 UV-I 238 W/m 9,3 C 9,6 C 0,0 km/h (0 Bft) 100,00 %
17.10.2017 09:32 9,7 C 11,7 C 98 % 1025,3 hPa 0,0 l/m 0,0 km/h (0 Bft) S 175 2 min 0,000 mm 0,6 UV-I 265 W/m 9,4 C 9,7 C 0,0 km/h (0 Bft) 97,87 %
17.10.2017 09:34 9,8 C 11,7 C 98 % 1025,3 hPa 0,0 l/m 0,0 km/h (0 Bft) S 175 2 min 0,000 mm 0,6 UV-I 271 W/m 9,5 C 9,8 C 0,0 km/h (0 Bft) 100,00 %
17.10.2017 09:36 10,0 C 11,7 C 98 % 1025,3 hPa 0,0 l/m 0,0 km/h (0 Bft) S 175 2 min 0,000 mm 0,6 UV-I 269 W/m 9,7 C 10,0 C 0,0 km/h (0 Bft) 100,00 %
17.10.2017 09:38 10,1 C 11,7 C 98 % 1025,3 hPa 0,0 l/m 0,0 km/h (0 Bft) S 175 2 min 0,000 mm 0,7 UV-I 277 W/m 9,8 C 10,1 C 0,0 km/h (0 Bft) 100,00 %
17.10.2017 09:40 10,1 C 11,7 C 98 % 1025,3 hPa 0,0 l/m 0,0 km/h (0 Bft) S 175 2 min 0,000 mm 0,7 UV-I 281 W/m 9,8 C 10,1 C 0,0 km/h (0 Bft) 97,87 %
17.10.2017 09:42 10,2 C 11,7 C 98 % 1025,4 hPa 0,0 l/m 0,0 km/h (0 Bft) S 175 2 min 0,000 mm 0,7 UV-I 296 W/m 9,9 C 10,2 C 0,0 km/h (0 Bft) 95,74 %
17.10.2017 09:44 10,3 C 11,7 C 98 % 1025,3 hPa 0,0 l/m 0,0 km/h (0 Bft) S 175 2 min 0,000 mm 0,7 UV-I 289 W/m 10,0 C 10,3 C 0,0 km/h (0 Bft) 100,00 %
17.10.2017 09:46 10,3 C 11,7 C 98 % 1025,2 hPa 0,0 l/m 0,0 km/h (0 Bft) S 175 2 min 0,000 mm 0,7 UV-I 280 W/m 10,0 C 10,3 C 0,0 km/h (0 Bft) 100,00 %
17.10.2017 09:48 10,3 C 11,7 C 98 % 1025,2 hPa 0,0 l/m 0,0 km/h (0 Bft) S 175 2 min 0,000 mm 0,8 UV-I 260 W/m 10,0 C 10,3 C 0,0 km/h (0 Bft) 95,74 %
17.10.2017 09:50 10,4 C 11,7 C 98 % 1025,3 hPa 0,0 l/m 0,0 km/h (0 Bft) S 175 2 min 0,000 mm 0,8 UV-I 267 W/m 10,1 C 10,4 C 0,0 km/h (0 Bft) 100,00 %
17.10.2017 09:52 10,6 C 11,7 C 98 % 1025,3 hPa 0,0 l/m 0,0 km/h (0 Bft) S 175 2 min 0,000 mm 0,8 UV-I 318 W/m 10,3 C 10,6 C 0,0 km/h (0 Bft) 98,04 %
17.10.2017 09:54 10,7 C 11,7 C 98 % 1025,2 hPa 0,0 l/m 0,0 km/h (0 Bft) S 175 2 min 0,000 mm 0,8 UV-I 350 W/m 10,4 C 10,7 C 0,0 km/h (0 Bft) 100,00 %
17.10.2017 09:56 10,8 C 11,7 C 98 % 1025,2 hPa 0,0 l/m 0,0 km/h (0 Bft) S 175 2 min 0,000 mm 0,9 UV-I 346 W/m 10,5 C 10,8 C 0,0 km/h (0 Bft) 100,00 %
17.10.2017 09:58 10,8 C 11,7 C 98 % 1025,3 hPa 0,0 l/m 0,0 km/h (0 Bft) S 175 2 min 0,000 mm 0,9 UV-I 365 W/m 10,5 C 10,8 C 0,0 km/h (0 Bft) 100,00 %
17.10.2017 10:00 10,7 C 11,7 C 98 % 1025,2 hPa 0,0 l/m 0,0 km/h (0 Bft) S 175 2 min 0,101 mm 0,9 UV-I 340 W/m 10,4 C 10,7 C 0,0 km/h (0 Bft) 100,00 %
17.10.2017 10:02 10,8 C 11,7 C 98 % 1025,2 hPa 0,0 l/m 0,0 km/h (0 Bft) S 175 2 min 0,000 mm 0,9 UV-I 352 W/m 10,5 C 10,8 C 0,0 km/h (0 Bft) 97,96 %
17.10.2017 10:04 10,9 C 11,7 C 98 % 1025,3 hPa 0,0 l/m 0,0 km/h (0 Bft) S-SO 154 2 min 0,000 mm 1,0 UV-I 359 W/m 10,6 C 10,9 C 0,0 km/h (0 Bft) 100,00 %
17.10.2017 10:06 11,1 C 11,7 C 98 % 1025,3 hPa 0,0 l/m 0,0 km/h (0 Bft) S-SO 154 2 min 0,000 mm 1,0 UV-I 368 W/m 10,8 C 11,1 C 0,0 km/h (0 Bft) 100,00 %
17.10.2017 10:08 11,1 C 11,7 C 98 % 1025,3 hPa 0,0 l/m 0,0 km/h (0 Bft) S-SO 154 2 min 0,000 mm 1,0 UV-I 372 W/m 10,8 C 11,1 C 0,0 km/h (0 Bft) 97,87 %
17.10.2017 10:10 11,1 C 11,7 C 98 % 1025,3 hPa 0,0 l/m 0,0 km/h (0 Bft) S-SO 154 2 min 0,000 mm 1,0 UV-I 374 W/m 10,8 C 11,1 C 0,0 km/h (0 Bft) 100,00 %
17.10.2017 10:12 11,2 C 11,7 C 98 % 1025,3 hPa 0,0 l/m 0,0 km/h (0 Bft) S-SO 154 2 min 0,000 mm 1,1 UV-I 377 W/m 10,9 C 11,2 C 0,0 km/h (0 Bft) 100,00 %
17.10.2017 10:14 11,2 C 11,7 C 98 % 1025,2 hPa 0,0 l/m 0,0 km/h (0 Bft) S-SO 154 2 min 0,000 mm 1,1 UV-I 379 W/m 10,9 C 11,2 C 0,0 km/h (0 Bft) 97,87 %
17.10.2017 10:16 11,3 C 11,7 C 97 % 1025,2 hPa 0,0 l/m 0,0 km/h (0 Bft) S-SO 154 2 min 0,000 mm 1,1 UV-I 374 W/m 10,8 C 11,3 C 0,0 km/h (0 Bft) 100,00 %
17.10.2017 10:18 11,3 C 11,7 C 97 % 1025,2 hPa 0,0 l/m 0,0 km/h (0 Bft) S-SO 154 2 min 0,000 mm 1,1 UV-I 377 W/m 10,8 C 11,3 C 0,0 km/h (0 Bft) 100,00 %
17.10.2017 10:20 11,4 C 11,7 C 97 % 1025,2 hPa 0,0 l/m 0,0 km/h (0 Bft) S-SO 154 2 min 0,000 mm 1,2 UV-I 379 W/m 10,9 C 11,4 C 0,0 km/h (0 Bft) 97,87 %
17.10.2017 10:22 11,6 C 11,7 C 97 % 1025,2 hPa 0,0 l/m 0,0 km/h (0 Bft) S-SO 154 2 min 0,000 mm 1,2 UV-I 384 W/m 11,1 C 11,6 C 0,0 km/h (0 Bft) 96,00 %
17.10.2017 10:24 11,7 C 11,7 C 96 % 1025,2 hPa 0,0 l/m 0,0 km/h (0 Bft) S-SO 154 2 min 0,000 mm 1,2 UV-I 388 W/m 11,1 C 11,7 C 0,0 km/h (0 Bft) 98,00 %
17.10.2017 10:26 11,7 C 11,7 C 96 % 1025,1 hPa 0,0 l/m 0,0 km/h (0 Bft) S-SO 154 2 min 0,000 mm 1,3 UV-I 394 W/m 11,1 C 11,7 C 0,0 km/h (0 Bft) 96,00 %
17.10.2017 10:28 11,7 C 11,7 C 95 % 1025,2 hPa 0,0 l/m 0,0 km/h (0 Bft) S-SO 154 2 min 0,000 mm 1,3 UV-I 401 W/m 10,9 C 11,7 C 0,0 km/h (0 Bft) 97,37 %
17.10.2017 10:30 11,8 C 11,7 C 95 % 1025,1 hPa 0,0 l/m 0,0 km/h (0 Bft) S-SO 154 2 min 0,000 mm 1,3 UV-I 408 W/m 11,0 C 11,8 C 0,0 km/h (0 Bft) 98,00 %
17.10.2017 10:32 12,0 C 11,7 C 95 % 1025,1 hPa 0,0 l/m 0,0 km/h (0 Bft) S-SO 154 2 min 0,000 mm 1,4 UV-I 411 W/m 11,2 C 12,0 C 0,0 km/h (0 Bft) 96,00 %
17.10.2017 10:34 12,2 C 11,7 C 95 % 1025,1 hPa 0,0 l/m 0,0 km/h (0 Bft) S-SO 154 2 min 0,000 mm 1,4 UV-I 416 W/m 11,4 C 12,2 C 0,0 km/h (0 Bft) 97,87 %
17.10.2017 10:36 12,3 C 11,7 C 94 % 1025,1 hPa 0,0 l/m 0,0 km/h (0 Bft) S-SO 154 2 min 0,000 mm 1,4 UV-I 423 W/m 11,4 C 12,3 C 0,0 km/h (0 Bft) 100,00 %
17.10.2017 10:38 12,4 C 11,7 C 94 % 1025,0 hPa 0,0 l/m 0,0 km/h (0 Bft) O 86 2 min 0,000 mm 1,5 UV-I 422 W/m 11,5 C 12,4 C 0,0 km/h (0 Bft) 94,00 %
17.10.2017 10:40 12,5 C 11,7 C 94 % 1025,1 hPa 0,0 l/m 0,0 km/h (0 Bft) O 86 2 min 0,000 mm 1,5 UV-I 418 W/m 11,6 C 12,5 C 0,0 km/h (0 Bft) 97,87 %
17.10.2017 10:42 12,7 C 11,7 C 93 % 1024,9 hPa 0,0 l/m 0,0 km/h (0 Bft) O 84 2 min 0,000 mm 1,5 UV-I 421 W/m 11,6 C 12,7 C 0,0 km/h (0 Bft) 98,00 %
17.10.2017 10:44 12,7 C 11,7 C 93 % 1024,9 hPa 0,0 l/m 0,0 km/h (0 Bft) O-NO 60 2 min 0,000 mm 1,5 UV-I 425 W/m 11,6 C 12,7 C 0,0 km/h (0 Bft) 98,11 %
17.10.2017 10:46 12,8 C 11,7 C 92 % 1024,9 hPa 0,0 l/m 0,0 km/h (0 Bft) O-NO 60 2 min 0,000 mm 1,5 UV-I 431 W/m 11,5 C 12,8 C 0,0 km/h (0 Bft) 97,87 %
17.10.2017 10:48 12,8 C 11,7 C 92 % 1024,9 hPa 0,0 l/m 0,0 km/h (0 Bft) O-NO 60 2 min 0,000 mm 1,6 UV-I 438 W/m 11,5 C 12,8 C 0,0 km/h (0 Bft) 100,00 %
17.10.2017 10:50 12,8 C 11,7 C 91 % 1024,9 hPa 0,0 l/m 0,0 km/h (0 Bft) O-NO 60 2 min 0,000 mm 1,6 UV-I 439 W/m 11,4 C 12,8 C 0,0 km/h (0 Bft) 100,00 %
17.10.2017 10:52 12,9 C 11,7 C 91 % 1024,9 hPa 0,0 l/m 0,0 km/h (0 Bft) O-SO 105 2 min 0,000 mm 1,6 UV-I 446 W/m 11,5 C 12,9 C 0,0 km/h (0 Bft) 97,87 %
17.10.2017 10:54 12,8 C 11,7 C 90 % 1024,9 hPa 0,0 l/m 0,0 km/h (0 Bft) O-SO 107 2 min 0,000 mm 1,7 UV-I 452 W/m 11,2 C 12,8 C 0,0 km/h (0 Bft) 96,15 %
17.10.2017 10:56 12,7 C 11,7 C 90 % 1024,9 hPa 0,0 l/m 0,0 km/h (0 Bft) O-SO 107 2 min 0,000 mm 1,7 UV-I 458 W/m 11,1 C 12,7 C 0,0 km/h (0 Bft) 98,39 %
17.10.2017 10:58 12,8 C 11,7 C 91 % 1024,9 hPa 0,0 l/m 0,0 km/h (0 Bft) O-SO 107 2 min 0,000 mm 1,7 UV-I 461 W/m 11,4 C 12,8 C 0,0 km/h (0 Bft) 100,00 %
17.10.2017 11:00 12,8 C 11,7 C 91 % 1024,8 hPa 0,0 l/m 0,0 km/h (0 Bft) O-SO 107 2 min 0,204 mm 1,7 UV-I 463 W/m 11,4 C 12,8 C 0,0 km/h (0 Bft) 97,87 %
17.10.2017 11:02 12,9 C 11,7 C 92 % 1024,9 hPa 0,0 l/m 0,0 km/h (0 Bft) O-SO 107 2 min 0,000 mm 1,7 UV-I 464 W/m 11,6 C 12,9 C 0,0 km/h (0 Bft) 100,00 %
17.10.2017 11:04 13,2 C 11,7 C 91 % 1024,8 hPa 0,0 l/m 0,0 km/h (0 Bft) O-SO 107 2 min 0,000 mm 1,8 UV-I 467 W/m 11,8 C 13,2 C 0,0 km/h (0 Bft) 100,00 %
17.10.2017 11:06 13,4 C 11,7 C 90 % 1024,8 hPa 0,0 l/m 0,0 km/h (0 Bft) N 5 2 min 0,000 mm 1,8 UV-I 469 W/m 11,8 C 13,4 C 0,0 km/h (0 Bft) 100,00 %
17.10.2017 11:08 13,4 C 11,7 C 91 % 1024,8 hPa 0,0 l/m 0,0 km/h (0 Bft) N 5 2 min 0,000 mm 1,8 UV-I 474 W/m 12,0 C 13,4 C 0,0 km/h (0 Bft) 100,00 %
17.10.2017 11:10 13,4 C 11,7 C 90 % 1024,8 hPa 0,0 l/m 0,0 km/h (0 Bft) N 5 2 min 0,000 mm 1,8 UV-I 476 W/m 11,8 C 13,4 C 0,0 km/h (0 Bft) 100,00 %
17.10.2017 11:12 13,5 C 11,7 C 89 % 1024,8 hPa 0,0 l/m 0,0 km/h (0 Bft) N 5 2 min 0,000 mm 1,9 UV-I 479 W/m 11,7 C 13,5 C 0,0 km/h (0 Bft) 100,00 %
17.10.2017 11:14 13,8 C 11,7 C 90 % 1024,8 hPa 0,0 l/m 0,0 km/h (0 Bft) N 5 2 min 0,000 mm 1,9 UV-I 482 W/m 12,2 C 13,8 C 0,0 km/h (0 Bft) 98,00 %
17.10.2017 11:16 13,7 C 11,7 C 88 % 1024,8 hPa 0,0 l/m 0,0 km/h (0 Bft) N 355 2 min 0,000 mm 1,9 UV-I 483 W/m 11,7 C 13,7 C 0,0 km/h (0 Bft) 100,00 %
17.10.2017 11:18 13,7 C 11,7 C 89 % 1024,8 hPa 0,0 l/m 0,0 km/h (0 Bft) N 355 2 min 0,000 mm 1,9 UV-I 487 W/m 11,9 C 13,7 C 0,0 km/h (0 Bft) 100,00 %
17.10.2017 11:20 13,6 C 11,7 C 88 % 1024,8 hPa 0,0 l/m 0,0 km/h (0 Bft) N 355 2 min 0,000 mm 1,9 UV-I 488 W/m 11,6 C 13,6 C 0,0 km/h (0 Bft) 100,00 %
17.10.2017 11:22 13,7 C 11,7 C 88 % 1024,7 hPa 0,0 l/m 0,0 km/h (0 Bft) N 355 2 min 0,000 mm 2,0 UV-I 489 W/m 11,7 C 13,7 C 0,0 km/h (0 Bft) 97,56 %
17.10.2017 11:24 13,8 C 11,7 C 88 % 1024,7 hPa 0,0 l/m 0,0 km/h (0 Bft) N 355 2 min 0,000 mm 2,0 UV-I 492 W/m 11,8 C 13,8 C 0,0 km/h (0 Bft) 100,00 %
17.10.2017 11:26 13,9 C 11,7 C 88 % 1024,6 hPa 0,0 l/m 0,0 km/h (0 Bft) N 355 2 min 0,000 mm 2,0 UV-I 497 W/m 11,9 C 13,9 C 0,0 km/h (0 Bft) 100,00 %
17.10.2017 11:28 14,2 C 11,7 C 88 % 1024,7 hPa 0,0 l/m 0,0 km/h (0 Bft) N 355 2 min 0,000 mm 2,0 UV-I 498 W/m 12,2 C 14,2 C 0,0 km/h (0 Bft) 100,00 %
17.10.2017 11:30 14,3 C 11,7 C 87 % 1024,6 hPa 0,0 l/m 0,0 km/h (0 Bft) N 360 2 min 0,000 mm 2,1 UV-I 500 W/m 12,2 C 14,3 C 0,0 km/h (0 Bft) 97,37 %
17.10.2017 11:32 14,4 C 11,7 C 88 % 1024,7 hPa 0,0 l/m 0,0 km/h (0 Bft) NO 36 2 min 0,000 mm 2,1 UV-I 502 W/m 12,4 C 14,4 C 0,0 km/h (0 Bft) 100,00 %
17.10.2017 11:34 14,5 C 11,7 C 87 % 1024,6 hPa 0,0 l/m 0,0 km/h (0 Bft) NO 36 2 min 0,000 mm 2,1 UV-I 505 W/m 12,4 C 14,5 C 0,0 km/h (0 Bft) 98,00 %
17.10.2017 11:36 14,4 C 11,7 C 87 % 1024,6 hPa 0,0 l/m 0,0 km/h (0 Bft) NO 36 2 min 0,000 mm 2,1 UV-I 506 W/m 12,3 C 14,4 C 0,0 km/h (0 Bft) 100,00 %
17.10.2017 11:38 14,7 C 11,7 C 87 % 1024,6 hPa 0,0 l/m 0,0 km/h (0 Bft) NO 36 2 min 0,000 mm 2,1 UV-I 509 W/m 12,6 C 14,7 C 0,0 km/h (0 Bft) 100,00 %
17.10.2017 11:40 14,8 C 11,7 C 85 % 1024,6 hPa 0,0 l/m 0,0 km/h (0 Bft) NO 36 2 min 0,000 mm 2,1 UV-I 511 W/m 12,3 C 14,8 C 0,0 km/h (0 Bft) 100,00 %
17.10.2017 11:42 14,9 C 11,7 C 86 % 1024,5 hPa 0,0 l/m 0,0 km/h (0 Bft) N-NO 32 2 min 0,000 mm 2,1 UV-I 512 W/m 12,6 C 14,9 C 0,0 km/h (0 Bft) 100,00 %
17.10.2017 11:44 15,1 C 11,7 C 87 % 1024,6 hPa 0,0 l/m 0,0 km/h (0 Bft) NO 48 2 min 0,000 mm 2,2 UV-I 514 W/m 13,0 C 15,1 C 0,0 km/h (0 Bft) 100,00 %
17.10.2017 11:46 15,1 C 11,7 C 85 % 1024,5 hPa 0,0 l/m 0,0 km/h (0 Bft) NO 48 2 min 0,000 mm 2,2 UV-I 516 W/m 12,6 C 15,1 C 0,0 km/h (0 Bft) 100,00 %
17.10.2017 11:48 14,9 C 11,7 C 84 % 1024,5 hPa 0,0 l/m 0,0 km/h (0 Bft) NO 48 2 min 0,000 mm 2,2 UV-I 511 W/m 12,2 C 14,9 C 0,0 km/h (0 Bft) 100,00 %
17.10.2017 11:50 14,9 C 11,7 C 85 % 1024,6 hPa 0,0 l/m 0,0 km/h (0 Bft) NO 47 2 min 0,000 mm 2,2 UV-I 510 W/m 12,4 C 14,9 C 0,0 km/h (0 Bft) 100,00 %
17.10.2017 11:52 15,1 C 11,7 C 85 % 1024,5 hPa 0,0 l/m 0,0 km/h (0 Bft) NO 47 2 min 0,000 mm 2,2 UV-I 521 W/m 12,6 C 15,1 C 0,0 km/h (0 Bft) 100,00 %
17.10.2017 11:54 15,2 C 11,7 C 85 % 1024,5 hPa 0,0 l/m 0,0 km/h (0 Bft) NO 47 2 min 0,000 mm 2,2 UV-I 523 W/m 12,7 C 15,2 C 0,0 km/h (0 Bft) 98,11 %
17.10.2017 11:56 15,1 C 11,7 C 84 % 1024,5 hPa 0,0 l/m 0,0 km/h (0 Bft) NO 47 2 min 0,000 mm 2,2 UV-I 524 W/m 12,4 C 15,1 C 0,0 km/h (0 Bft) 100,00 %
17.10.2017 11:58 15,2 C 11,7 C 86 % 1024,4 hPa 0,0 l/m 0,0 km/h (0 Bft) NO 47 2 min 0,000 mm 2,2 UV-I 526 W/m 12,9 C 15,2 C 0,0 km/h (0 Bft) 97,22 %
17.10.2017 12:00 15,2 C 11,7 C 85 % 1024,4 hPa 0,0 l/m 0,0 km/h (0 Bft) NO 47 2 min 0,254 mm 2,2 UV-I 526 W/m 12,7 C 15,2 C 0,0 km/h (0 Bft) 97,87 %
17.10.2017 12:02 15,0 C 11,7 C 84 % 1024,4 hPa 0,0 l/m 0,0 km/h (0 Bft) NO 47 2 min 0,000 mm 2,3 UV-I 527 W/m 12,3 C 15,0 C 0,0 km/h (0 Bft) 95,12 %
17.10.2017 12:04 15,0 C 11,7 C 86 % 1024,4 hPa 0,0 l/m 0,0 km/h (0 Bft) O-NO 63 2 min 0,000 mm 2,3 UV-I 528 W/m 12,7 C 15,0 C 0,0 km/h (0 Bft) 96,77 %
17.10.2017 12:06 15,3 C 11,7 C 86 % 1024,3 hPa 0,0 l/m 0,0 km/h (0 Bft) NO 49 2 min 0,000 mm 2,3 UV-I 531 W/m 13,0 C 15,3 C 0,0 km/h (0 Bft) 97,37 %
17.10.2017 12:08 15,5 C 11,7 C 85 % 1024,3 hPa 0,0 l/m 0,0 km/h (0 Bft) NO 55 2 min 0,000 mm 2,3 UV-I 531 W/m 13,0 C 15,5 C 0,0 km/h (0 Bft) 98,00 %
17.10.2017 12:10 15,4 C 11,7 C 84 % 1024,3 hPa 0,0 l/m 0,0 km/h (0 Bft) NO 55 2 min 0,000 mm 2,3 UV-I 534 W/m 12,7 C 15,4 C 0,0 km/h (0 Bft) 96,00 %
17.10.2017 12:12 15,3 C 11,7 C 83 % 1024,3 hPa 0,0 l/m 0,0 km/h (0 Bft) NO 48 2 min 0,000 mm 2,3 UV-I 537 W/m 12,4 C 15,3 C 0,0 km/h (0 Bft) 98,00 %
17.10.2017 12:14 15,4 C 11,7 C 83 % 1024,2 hPa 0,0 l/m 0,0 km/h (0 Bft) NO 50 2 min 0,000 mm 2,3 UV-I 535 W/m 12,5 C 15,4 C 0,0 km/h (0 Bft) 94,74 %
17.10.2017 12:16 15,7 C 11,7 C 85 % 1024,2 hPa 0,0 l/m 0,0 km/h (0 Bft) N-NO 30 2 min 0,000 mm 2,3 UV-I 490 W/m 13,2 C 15,7 C 0,0 km/h (0 Bft) 94,64 %
17.10.2017 12:18 15,7 C 11,7 C 84 % 1024,1 hPa 0,0 l/m 0,0 km/h (0 Bft) N-NO 30 2 min 0,000 mm 2,4 UV-I 500 W/m 13,0 C 15,7 C 0,0 km/h (0 Bft) 97,87 %
17.10.2017 12:20 15,7 C 11,7 C 84 % 1024,1 hPa 0,0 l/m 0,0 km/h (0 Bft) N-NO 22 2 min 0,000 mm 2,4 UV-I 536 W/m 13,0 C 15,7 C 0,0 km/h (0 Bft) 97,87 %
17.10.2017 12:22 15,7 C 11,7 C 82 % 1024,1 hPa 0,0 l/m 0,0 km/h (0 Bft) N-NO 22 2 min 0,000 mm 2,4 UV-I 430 W/m 12,6 C 15,7 C 0,0 km/h (0 Bft) 97,56 %
17.10.2017 12:24 15,7 C 11,7 C 84 % 1024,0 hPa 0,0 l/m 0,0 km/h (0 Bft) N-NO 22 2 min 0,000 mm 2,4 UV-I 344 W/m 13,0 C 15,7 C 0,0 km/h (0 Bft) 97,87 %
17.10.2017 12:26 15,9 C 11,7 C 85 % 1024,0 hPa 0,0 l/m 0,0 km/h (0 Bft) O-NO 65 2 min 0,000 mm 2,4 UV-I 425 W/m 13,4 C 15,9 C 0,0 km/h (0 Bft) 97,87 %
17.10.2017 12:28 15,9 C 11,7 C 83 % 1024,0 hPa 0,0 l/m 0,0 km/h (0 Bft) NO 50 2 min 0,000 mm 2,4 UV-I 505 W/m 13,0 C 15,9 C 0,0 km/h (0 Bft) 97,73 %
17.10.2017 12:30 16,1 C 11,7 C 85 % 1023,9 hPa 0,0 l/m 0,0 km/h (0 Bft) NO 50 2 min 0,000 mm 2,4 UV-I 539 W/m 13,6 C 16,1 C 0,0 km/h (0 Bft) 96,00 %
17.10.2017 12:32 16,1 C 11,7 C 83 % 1023,9 hPa 0,0 l/m 0,0 km/h (0 Bft) NO 50 2 min 0,000 mm 2,4 UV-I 526 W/m 13,2 C 16,1 C 0,0 km/h (0 Bft) 100,00 %
17.10.2017 12:34 16,1 C 11,7 C 83 % 1023,9 hPa 0,0 l/m 0,0 km/h (0 Bft) NO 50 2 min 0,000 mm 2,2 UV-I 545 W/m 13,2 C 16,1 C 0,0 km/h (0 Bft) 100,00 %
17.10.2017 12:36 16,2 C 11,7 C 84 % 1023,8 hPa 0,0 l/m 0,0 km/h (0 Bft) NO 50 2 min 0,000 mm 2,3 UV-I 541 W/m 13,5 C 16,2 C 0,0 km/h (0 Bft) 100,00 %
17.10.2017 12:38 16,3 C 11,7 C 83 % 1023,8 hPa 0,0 l/m 0,0 km/h (0 Bft) O-NO 78 2 min 0,000 mm 2,4 UV-I 521 W/m 13,4 C 16,3 C 0,0 km/h (0 Bft) 97,44 %
17.10.2017 12:40 16,3 C 11,7 C 81 % 1023,8 hPa 0,0 l/m 0,0 km/h (0 Bft) O 96 2 min 0,000 mm 2,4 UV-I 491 W/m 13,0 C 16,3 C 0,0 km/h (0 Bft) 98,00 %
17.10.2017 12:42 16,3 C 11,7 C 83 % 1023,7 hPa 0,0 l/m 0,0 km/h (0 Bft) NO 55 2 min 0,000 mm 2,4 UV-I 534 W/m 13,4 C 16,3 C 0,0 km/h (0 Bft) 98,11 %
17.10.2017 12:44 16,5 C 11,7 C 83 % 1023,7 hPa 0,0 l/m 0,0 km/h (0 Bft) NO 50 2 min 0,000 mm 2,4 UV-I 540 W/m 13,6 C 16,5 C 0,0 km/h (0 Bft) 100,00 %
17.10.2017 12:46 16,6 C 11,7 C 82 % 1023,7 hPa 0,0 l/m 0,0 km/h (0 Bft) NO 51 2 min 0,000 mm 2,4 UV-I 545 W/m 13,5 C 16,6 C 0,0 km/h (0 Bft) 100,00 %
17.10.2017 12:48 16,4 C 11,7 C 82 % 1023,7 hPa 0,0 l/m 0,0 km/h (0 Bft) O 84 2 min 0,000 mm 2,4 UV-I 544 W/m 13,3 C 16,4 C 0,0 km/h (0 Bft) 98,00 %
17.10.2017 12:50 16,7 C 11,7 C 83 % 1023,7 hPa 0,0 l/m 0,0 km/h (0 Bft) O-SO 112 2 min 0,000 mm 2,4 UV-I 546 W/m 13,8 C 16,7 C 0,0 km/h (0 Bft) 100,00 %
17.10.2017 12:52 16,8 C 11,7 C 83 % 1023,7 hPa 0,0 l/m 0,0 km/h (0 Bft) O-NO 78 2 min 0,000 mm 2,0 UV-I 538 W/m 13,9 C 16,8 C 0,0 km/h (0 Bft) 100,00 %
17.10.2017 12:54 16,8 C 11,7 C 83 % 1023,6 hPa 0,0 l/m 0,0 km/h (0 Bft) O-NO 57 2 min 0,000 mm 2,4 UV-I 540 W/m 13,9 C 16,8 C 0,0 km/h (0 Bft) 100,00 %
17.10.2017 12:56 16,8 C 11,7 C 82 % 1023,6 hPa 0,0 l/m 0,0 km/h (0 Bft) O-NO 69 2 min 0,000 mm 2,4 UV-I 538 W/m 13,7 C 16,8 C 0,0 km/h (0 Bft) 100,00 %
17.10.2017 12:58 16,8 C 11,7 C 81 % 1023,6 hPa 0,0 l/m 0,0 km/h (0 Bft) NO 55 2 min 0,000 mm 2,4 UV-I 537 W/m 13,5 C 16,8 C 0,0 km/h (0 Bft) 97,87 %
17.10.2017 13:00 16,8 C 11,7 C 82 % 1023,5 hPa 0,0 l/m 0,0 km/h (0 Bft) NO 55 2 min 0,000 mm 2,4 UV-I 542 W/m 13,7 C 16,8 C 0,0 km/h (0 Bft) 97,87 %
17.10.2017 13:02 16,7 C 11,7 C 80 % 1023,6 hPa 0,0 l/m 0,0 km/h (0 Bft) NO 55 2 min 0,279 mm 2,4 UV-I 539 W/m 13,2 C 16,7 C 0,0 km/h (0 Bft) 100,00 %
17.10.2017 13:04 16,9 C 11,7 C 80 % 1023,5 hPa 0,0 l/m 0,0 km/h (0 Bft) O 90 2 min 0,000 mm 2,4 UV-I 538 W/m 13,4 C 16,9 C 0,0 km/h (0 Bft) 100,00 %
17.10.2017 13:06 16,9 C 11,7 C 80 % 1023,5 hPa 0,0 l/m 4,2 km/h (1 Bft) O-NO 71 2 min 0,000 mm 2,4 UV-I 537 W/m 13,4 C 16,9 C 8,0 km/h (2 Bft) 100,00 %
17.10.2017 13:08 17,1 C 11,7 C 79 % 1023,4 hPa 0,0 l/m 5,0 km/h (1 Bft) O 92 2 min 0,000 mm 2,4 UV-I 535 W/m 13,4 C 17,1 C 8,0 km/h (2 Bft) 100,00 %
17.10.2017 13:10 17,1 C 11,7 C 78 % 1023,4 hPa 0,0 l/m 2,1 km/h (1 Bft) O-SO 102 2 min 0,000 mm 2,4 UV-I 534 W/m 13,2 C 17,1 C 9,7 km/h (2 Bft) 100,00 %
17.10.2017 13:12 17,1 C 11,7 C 79 % 1023,4 hPa 0,0 l/m 4,4 km/h (1 Bft) O 96 2 min 0,000 mm 2,4 UV-I 533 W/m 13,4 C 17,1 C 6,4 km/h (2 Bft) 98,00 %
17.10.2017 13:14 17,1 C 11,7 C 77 % 1023,3 hPa 0,0 l/m 1,3 km/h (1 Bft) O 93 2 min 0,000 mm 2,4 UV-I 541 W/m 13,0 C 17,1 C 4,8 km/h (1 Bft) 100,00 %
17.10.2017 13:16 17,2 C 11,7 C 80 % 1023,3 hPa 0,0 l/m 4,3 km/h (1 Bft) NO 42 2 min 0,000 mm 2,4 UV-I 541 W/m 13,7 C 17,2 C 8,0 km/h (2 Bft) 100,00 %
17.10.2017 13:18 17,3 C 11,7 C 78 % 1023,3 hPa 0,0 l/m 4,1 km/h (1 Bft) O-NO 63 2 min 0,000 mm 2,4 UV-I 538 W/m 13,4 C 17,3 C 6,4 km/h (2 Bft) 100,00 %
17.10.2017 13:20 17,3 C 11,7 C 76 % 1023,2 hPa 0,0 l/m 4,2 km/h (1 Bft) O 80 2 min 0,000 mm 2,4 UV-I 535 W/m 13,0 C 17,3 C 8,0 km/h (2 Bft) 100,00 %
17.10.2017 13:22 17,3 C 11,7 C 76 % 1023,2 hPa 0,0 l/m 3,7 km/h (1 Bft) N-NO 13 2 min 0,000 mm 2,3 UV-I 531 W/m 13,0 C 17,3 C 6,4 km/h (2 Bft) 100,00 %
17.10.2017 13:24 17,3 C 11,7 C 78 % 1023,2 hPa 0,0 l/m 1,5 km/h (1 Bft) N-NO 13 2 min 0,000 mm 2,3 UV-I 533 W/m 13,4 C 17,3 C 3,2 km/h (1 Bft) 100,00 %
17.10.2017 13:26 17,6 C 11,7 C 79 % 1023,1 hPa 0,0 l/m 6,0 km/h (2 Bft) NO 46 2 min 0,000 mm 2,3 UV-I 533 W/m 13,9 C 17,6 C 9,7 km/h (2 Bft) 100,00 %
17.10.2017 13:29 17,6 C 11,7 C 76 % 1023,1 hPa 0,0 l/m 3,3 km/h (1 Bft) NO 45 3 min 0,000 mm 2,3 UV-I 517 W/m 13,3 C 17,6 C 6,4 km/h (2 Bft) 100,00 %
17.10.2017 13:30 17,6 C 11,7 C 76 % 1023,1 hPa 0,0 l/m 0,5 km/h (0 Bft) NO 45 1 min 0,000 mm 2,3 UV-I 517 W/m 13,3 C 17,6 C 1,6 km/h (1 Bft) 100,00 %
17.10.2017 13:32 17,7 C 11,7 C 75 % 1023,1 hPa 0,0 l/m 5,2 km/h (1 Bft) N-NO 18 2 min 0,000 mm 2,3 UV-I 502 W/m 13,2 C 17,7 C 6,4 km/h (2 Bft) 100,00 %
17.10.2017 13:34 17,7 C 11,7 C 75 % 1023,0 hPa 0,0 l/m 3,4 km/h (1 Bft) NO 34 2 min 0,000 mm 2,2 UV-I 499 W/m 13,2 C 17,7 C 6,4 km/h (2 Bft) 100,00 %
17.10.2017 13:36 17,7 C 11,7 C 75 % 1022,9 hPa 0,0 l/m 2,4 km/h (1 Bft) NO 34 2 min 0,000 mm 2,3 UV-I 520 W/m 13,2 C 17,7 C 4,8 km/h (1 Bft) 97,14 %
17.10.2017 13:38 17,6 C 11,7 C 74 % 1022,9 hPa 0,0 l/m 3,6 km/h (1 Bft) NO 54 2 min 0,000 mm 2,3 UV-I 522 W/m 12,9 C 17,6 C 6,4 km/h (2 Bft) 100,00 %
17.10.2017 13:40 17,8 C 11,7 C 78 % 1022,9 hPa 0,0 l/m 4,5 km/h (1 Bft) NO 35 2 min 0,000 mm 2,3 UV-I 525 W/m 13,9 C 17,8 C 9,7 km/h (2 Bft) 100,00 %
17.10.2017 13:42 17,8 C 11,7 C 75 % 1022,8 hPa 0,0 l/m 4,3 km/h (1 Bft) NO 40 2 min 0,000 mm 2,2 UV-I 523 W/m 13,3 C 17,8 C 6,4 km/h (2 Bft) 100,00 %
17.10.2017 13:44 17,8 C 11,7 C 74 % 1022,8 hPa 0,0 l/m 4,1 km/h (1 Bft) NO 55 2 min 0,000 mm 2,2 UV-I 520 W/m 13,1 C 17,8 C 6,4 km/h (2 Bft) 100,00 %
17.10.2017 13:46 17,8 C 11,7 C 74 % 1022,7 hPa 0,0 l/m 3,9 km/h (1 Bft) NO 44 2 min 0,000 mm 2,2 UV-I 520 W/m 13,1 C 17,8 C 6,4 km/h (2 Bft) 100,00 %
17.10.2017 13:48 17,9 C 11,7 C 73 % 1022,7 hPa 0,0 l/m 5,3 km/h (1 Bft) O-NO 57 2 min 0,000 mm 2,2 UV-I 518 W/m 13,0 C 17,9 C 6,4 km/h (2 Bft) 100,00 %
17.10.2017 13:50 18,1 C 11,7 C 73 % 1022,7 hPa 0,0 l/m 4,3 km/h (1 Bft) NO 53 2 min 0,000 mm 2,2 UV-I 518 W/m 13,2 C 18,1 C 6,4 km/h (2 Bft) 98,00 %
17.10.2017 13:52 18,1 C 11,7 C 73 % 1022,6 hPa 0,0 l/m 2,9 km/h (1 Bft) O-SO 102 2 min 0,000 mm 2,2 UV-I 517 W/m 13,2 C 18,1 C 6,4 km/h (2 Bft) 97,87 %
17.10.2017 13:54 18,1 C 11,7 C 73 % 1022,6 hPa 0,0 l/m 5,0 km/h (1 Bft) O-NO 72 2 min 0,000 mm 2,2 UV-I 515 W/m 13,2 C 18,1 C 8,0 km/h (2 Bft) 98,00 %
17.10.2017 13:56 18,0 C 11,7 C 73 % 1022,6 hPa 0,0 l/m 4,8 km/h (1 Bft) O-NO 64 2 min 0,000 mm 2,2 UV-I 512 W/m 13,1 C 18,0 C 6,4 km/h (2 Bft) 97,78 %
17.10.2017 13:58 18,1 C 11,7 C 73 % 1022,5 hPa 0,0 l/m 5,1 km/h (1 Bft) O-NO 69 2 min 0,000 mm 2,2 UV-I 502 W/m 13,2 C 18,1 C 6,4 km/h (2 Bft) 97,56 %
17.10.2017 14:00 18,2 C 11,7 C 73 % 1022,5 hPa 0,0 l/m 3,6 km/h (1 Bft) O-SO 105 2 min 0,305 mm 2,1 UV-I 509 W/m 13,3 C 18,2 C 6,4 km/h (2 Bft) 94,34 %
17.10.2017 14:02 18,2 C 11,7 C 73 % 1022,4 hPa 0,0 l/m 4,9 km/h (1 Bft) NO 40 2 min 0,000 mm 2,1 UV-I 508 W/m 13,3 C 18,2 C 6,4 km/h (2 Bft) 95,74 %
17.10.2017 14:04 18,2 C 11,7 C 74 % 1022,4 hPa 0,0 l/m 4,4 km/h (1 Bft) NO 55 2 min 0,000 mm 2,1 UV-I 509 W/m 13,5 C 18,2 C 8,0 km/h (2 Bft) 95,12 %
17.10.2017 14:06 18,1 C 11,7 C 73 % 1022,4 hPa 0,0 l/m 3,4 km/h (1 Bft) NO 55 2 min 0,000 mm 2,1 UV-I 504 W/m 13,2 C 18,1 C 4,8 km/h (1 Bft) 98,11 %
17.10.2017 14:08 18,1 C 11,7 C 73 % 1022,2 hPa 0,0 l/m 4,4 km/h (1 Bft) O-NO 59 2 min 0,000 mm 2,1 UV-I 503 W/m 13,2 C 18,1 C 6,4 km/h (2 Bft) 97,87 %
17.10.2017 14:10 18,2 C 11,7 C 73 % 1022,2 hPa 0,0 l/m 3,4 km/h (1 Bft) O-NO 59 2 min 0,000 mm 2,0 UV-I 477 W/m 13,3 C 18,2 C 8,0 km/h (2 Bft) 97,37 %
17.10.2017 14:12 18,3 C 11,7 C 73 % 1022,1 hPa 0,0 l/m 2,6 km/h (1 Bft) O-NO 73 2 min 0,000 mm 2,0 UV-I 493 W/m 13,4 C 18,3 C 6,4 km/h (2 Bft) 98,21 %
17.10.2017 14:14 18,3 C 11,7 C 72 % 1022,1 hPa 0,0 l/m 4,2 km/h (1 Bft) O 80 2 min 0,000 mm 2,0 UV-I 497 W/m 13,2 C 18,3 C 6,4 km/h (2 Bft) 94,74 %
17.10.2017 14:16 18,1 C 11,7 C 72 % 1022,1 hPa 0,0 l/m 2,7 km/h (1 Bft) O-NO 68 2 min 0,000 mm 2,0 UV-I 471 W/m 13,0 C 18,1 C 4,8 km/h (1 Bft) 98,00 %
17.10.2017 14:18 18,1 C 11,7 C 71 % 1022,1 hPa 0,0 l/m 3,6 km/h (1 Bft) O 93 2 min 0,000 mm 1,9 UV-I 478 W/m 12,8 C 18,1 C 4,8 km/h (1 Bft) 96,23 %
17.10.2017 14:20 18,2 C 11,7 C 72 % 1022,0 hPa 0,0 l/m 4,4 km/h (1 Bft) O-NO 65 2 min 0,000 mm 1,9 UV-I 470 W/m 13,1 C 18,2 C 6,4 km/h (2 Bft) 100,00 %
17.10.2017 14:22 18,3 C 11,7 C 73 % 1022,0 hPa 0,0 l/m 4,0 km/h (1 Bft) NO 49 2 min 0,000 mm 1,9 UV-I 481 W/m 13,4 C 18,3 C 6,4 km/h (2 Bft) 97,87 %
17.10.2017 14:24 18,3 C 11,7 C 72 % 1021,9 hPa 0,0 l/m 4,3 km/h (1 Bft) O-NO 67 2 min 0,000 mm 1,9 UV-I 471 W/m 13,2 C 18,3 C 8,0 km/h (2 Bft) 100,00 %
17.10.2017 14:26 18,3 C 11,7 C 72 % 1021,9 hPa 0,0 l/m 3,7 km/h (1 Bft) O-NO 67 2 min 0,000 mm 1,8 UV-I 434 W/m 13,2 C 18,3 C 4,8 km/h (1 Bft) 100,00 %
17.10.2017 14:28 18,2 C 11,7 C 72 % 1021,9 hPa 0,0 l/m 1,9 km/h (1 Bft) O-NO 67 2 min 0,000 mm 1,8 UV-I 444 W/m 13,1 C 18,2 C 4,8 km/h (1 Bft) 100,00 %
17.10.2017 14:30 18,3 C 11,7 C 72 % 1021,8 hPa 0,0 l/m 3,4 km/h (1 Bft) N-NO 26 2 min 0,000 mm 1,8 UV-I 447 W/m 13,2 C 18,3 C 6,4 km/h (2 Bft) 100,00 %
17.10.2017 14:32 18,4 C 11,7 C 71 % 1021,8 hPa 0,0 l/m 4,8 km/h (1 Bft) O-NO 69 2 min 0,000 mm 1,7 UV-I 413 W/m 13,0 C 18,4 C 8,0 km/h (2 Bft) 100,00 %
17.10.2017 14:34 18,4 C 11,7 C 73 % 1021,8 hPa 0,0 l/m 4,7 km/h (1 Bft) O-NO 61 2 min 0,000 mm 1,7 UV-I 411 W/m 13,5 C 18,4 C 6,4 km/h (2 Bft) 100,00 %
17.10.2017 14:36 18,5 C 11,7 C 69 % 1021,8 hPa 0,0 l/m 4,5 km/h (1 Bft) NO 54 2 min 0,000 mm 1,7 UV-I 453 W/m 12,7 C 18,5 C 6,4 km/h (2 Bft) 100,00 %
17.10.2017 14:38 18,6 C 11,7 C 69 % 1021,8 hPa 0,0 l/m 3,7 km/h (1 Bft) O-NO 71 2 min 0,000 mm 1,7 UV-I 475 W/m 12,8 C 18,6 C 6,4 km/h (2 Bft) 100,00 %
17.10.2017 14:40 18,7 C 11,7 C 72 % 1021,8 hPa 0,0 l/m 5,4 km/h (1 Bft) O 95 2 min 0,000 mm 1,7 UV-I 468 W/m 13,5 C 18,7 C 9,7 km/h (2 Bft) 100,00 %
17.10.2017 14:42 18,7 C 11,7 C 68 % 1021,8 hPa 0,0 l/m 4,9 km/h (1 Bft) O 95 2 min 0,000 mm 1,7 UV-I 450 W/m 12,7 C 18,7 C 6,4 km/h (2 Bft) 100,00 %
17.10.2017 14:44 18,7 C 11,7 C 70 % 1021,7 hPa 0,0 l/m 3,1 km/h (1 Bft) O 95 2 min 0,000 mm 1,6 UV-I 421 W/m 13,1 C 18,7 C 6,4 km/h (2 Bft) 100,00 %
17.10.2017 14:46 18,7 C 11,7 C 69 % 1021,7 hPa 0,0 l/m 3,1 km/h (1 Bft) O 99 2 min 0,000 mm 1,6 UV-I 437 W/m 12,9 C 18,7 C 6,4 km/h (2 Bft) 100,00 %
17.10.2017 14:48 18,7 C 11,7 C 68 % 1021,6 hPa 0,0 l/m 3,1 km/h (1 Bft) O 98 2 min 0,000 mm 1,6 UV-I 454 W/m 12,7 C 18,7 C 4,8 km/h (1 Bft) 100,00 %
17.10.2017 14:50 18,7 C 11,7 C 67 % 1021,6 hPa 0,0 l/m 3,2 km/h (1 Bft) O 98 2 min 0,000 mm 1,6 UV-I 442 W/m 12,4 C 18,7 C 4,8 km/h (1 Bft) 100,00 %
17.10.2017 14:52 18,6 C 11,7 C 71 % 1021,6 hPa 0,0 l/m 4,1 km/h (1 Bft) N-NO 32 2 min 0,000 mm 1,5 UV-I 418 W/m 13,2 C 18,6 C 6,4 km/h (2 Bft) 100,00 %
17.10.2017 14:54 18,7 C 11,7 C 70 % 1021,6 hPa 0,0 l/m 2,3 km/h (1 Bft) O 94 2 min 0,000 mm 1,5 UV-I 421 W/m 13,1 C 18,7 C 4,8 km/h (1 Bft) 100,00 %
17.10.2017 14:56 18,9 C 11,7 C 70 % 1021,5 hPa 0,0 l/m 4,0 km/h (1 Bft) O-NO 67 2 min 0,000 mm 1,5 UV-I 430 W/m 13,3 C 18,9 C 6,4 km/h (2 Bft) 100,00 %
17.10.2017 14:58 18,9 C 11,7 C 68 % 1021,5 hPa 0,0 l/m 3,9 km/h (1 Bft) O-NO 67 2 min 0,000 mm 1,5 UV-I 409 W/m 12,9 C 18,9 C 6,4 km/h (2 Bft) 100,00 %
17.10.2017 15:00 18,8 C 11,7 C 69 % 1021,5 hPa 0,0 l/m 4,0 km/h (1 Bft) O-NO 78 2 min 0,279 mm 1,4 UV-I 399 W/m 13,0 C 18,8 C 8,0 km/h (2 Bft) 100,00 %
17.10.2017 15:02 18,9 C 11,7 C 68 % 1021,4 hPa 0,0 l/m 4,2 km/h (1 Bft) NO 55 2 min 0,000 mm 1,4 UV-I 417 W/m 12,9 C 18,9 C 6,4 km/h (2 Bft) 97,87 %
17.10.2017 15:04 18,9 C 11,7 C 68 % 1021,4 hPa 0,0 l/m 3,8 km/h (1 Bft) NO 55 2 min 0,000 mm 1,4 UV-I 409 W/m 12,9 C 18,9 C 6,4 km/h (2 Bft) 100,00 %
17.10.2017 15:06 19,1 C 11,7 C 69 % 1021,4 hPa 0,0 l/m 3,8 km/h (1 Bft) O-NO 76 2 min 0,000 mm 1,4 UV-I 417 W/m 13,3 C 19,1 C 4,8 km/h (1 Bft) 98,51 %
17.10.2017 15:08 19,0 C 11,7 C 68 % 1021,3 hPa 0,0 l/m 3,1 km/h (1 Bft) O-NO 74 2 min 0,000 mm 1,4 UV-I 421 W/m 13,0 C 19,0 C 4,8 km/h (1 Bft) 100,00 %
17.10.2017 15:10 19,1 C 11,7 C 69 % 1021,3 hPa 0,0 l/m 5,4 km/h (1 Bft) O-NO 75 2 min 0,000 mm 1,4 UV-I 419 W/m 13,3 C 19,1 C 9,7 km/h (2 Bft) 98,00 %
17.10.2017 15:12 19,0 C 11,7 C 69 % 1021,2 hPa 0,0 l/m 4,0 km/h (1 Bft) O-NO 73 2 min 0,000 mm 1,3 UV-I 416 W/m 13,2 C 19,0 C 6,4 km/h (2 Bft) 100,00 %
17.10.2017 15:14 19,0 C 11,7 C 67 % 1021,3 hPa 0,0 l/m 5,0 km/h (1 Bft) O 80 2 min 0,000 mm 1,3 UV-I 411 W/m 12,7 C 19,0 C 8,0 km/h (2 Bft) 100,00 %
17.10.2017 15:16 19,0 C 11,7 C 68 % 1021,2 hPa 0,0 l/m 4,2 km/h (1 Bft) NO 46 2 min 0,000 mm 1,3 UV-I 406 W/m 13,0 C 19,0 C 6,4 km/h (2 Bft) 100,00 %
17.10.2017 15:18 18,9 C 11,7 C 69 % 1021,2 hPa 0,0 l/m 3,7 km/h (1 Bft) NO 38 2 min 0,000 mm 1,2 UV-I 356 W/m 13,1 C 18,9 C 6,4 km/h (2 Bft) 100,00 %
17.10.2017 15:20 18,8 C 11,7 C 69 % 1021,2 hPa 0,0 l/m 3,7 km/h (1 Bft) NO 50 2 min 0,000 mm 1,2 UV-I 338 W/m 13,0 C 18,8 C 6,4 km/h (2 Bft) 100,00 %
17.10.2017 15:22 18,8 C 11,7 C 68 % 1021,1 hPa 0,0 l/m 4,4 km/h (1 Bft) O-NO 73 2 min 0,000 mm 1,1 UV-I 274 W/m 12,8 C 18,8 C 6,4 km/h (2 Bft) 100,00 %
17.10.2017 15:24 18,8 C 11,7 C 68 % 1021,1 hPa 0,0 l/m 4,5 km/h (1 Bft) O-NO 72 2 min 0,000 mm 1,1 UV-I 309 W/m 12,8 C 18,8 C 6,4 km/h (2 Bft) 100,00 %
17.10.2017 15:26 18,9 C 11,7 C 69 % 1021,1 hPa 0,0 l/m 3,6 km/h (1 Bft) O-NO 71 2 min 0,000 mm 1,1 UV-I 302 W/m 13,1 C 18,9 C 4,8 km/h (1 Bft) 100,00 %
17.10.2017 15:28 18,8 C 11,7 C 67 % 1021,0 hPa 0,0 l/m 4,1 km/h (1 Bft) O 82 2 min 0,000 mm 1,0 UV-I 280 W/m 12,5 C 18,8 C 6,4 km/h (2 Bft) 100,00 %
17.10.2017 15:30 18,8 C 11,7 C 69 % 1021,0 hPa 0,0 l/m 3,8 km/h (1 Bft) O-NO 70 2 min 0,000 mm 1,0 UV-I 254 W/m 13,0 C 18,8 C 4,8 km/h (1 Bft) 100,00 %
17.10.2017 15:32 18,8 C 11,7 C 70 % 1021,0 hPa 0,0 l/m 4,6 km/h (1 Bft) O 93 2 min 0,000 mm 1,0 UV-I 272 W/m 13,2 C 18,8 C 6,4 km/h (2 Bft) 100,00 %
17.10.2017 15:34 18,7 C 11,7 C 68 % 1021,1 hPa 0,0 l/m 3,7 km/h (1 Bft) O-SO 105 2 min 0,000 mm 1,0 UV-I 286 W/m 12,7 C 18,7 C 4,8 km/h (1 Bft) 100,00 %
17.10.2017 15:36 18,7 C 11,7 C 70 % 1021,0 hPa 0,0 l/m 3,5 km/h (1 Bft) O-NO 74 2 min 0,000 mm 1,0 UV-I 299 W/m 13,1 C 18,7 C 6,4 km/h (2 Bft) 100,00 %
17.10.2017 15:38 18,7 C 11,7 C 68 % 1021,1 hPa 0,0 l/m 2,2 km/h (1 Bft) O-NO 74 2 min 0,000 mm 1,0 UV-I 320 W/m 12,7 C 18,7 C 3,2 km/h (1 Bft) 100,00 %
17.10.2017 15:40 18,7 C 11,7 C 70 % 1021,0 hPa 0,0 l/m 2,9 km/h (1 Bft) O-NO 74 2 min 0,000 mm 1,0 UV-I 328 W/m 13,1 C 18,7 C 4,8 km/h (1 Bft) 98,00 %
17.10.2017 15:42 18,7 C 11,7 C 69 % 1021,0 hPa 0,0 l/m 2,9 km/h (1 Bft) O-NO 71 2 min 0,000 mm 0,9 UV-I 305 W/m 12,9 C 18,7 C 6,4 km/h (2 Bft) 100,00 %
17.10.2017 15:44 18,7 C 11,7 C 70 % 1021,0 hPa 0,0 l/m 3,5 km/h (1 Bft) O-NO 60 2 min 0,000 mm 0,9 UV-I 289 W/m 13,1 C 18,7 C 4,8 km/h (1 Bft) 97,44 %
17.10.2017 15:46 18,8 C 11,7 C 69 % 1021,0 hPa 0,0 l/m 4,9 km/h (1 Bft) O-NO 65 2 min 0,000 mm 0,9 UV-I 290 W/m 13,0 C 18,8 C 8,0 km/h (2 Bft) 98,11 %
17.10.2017 15:48 18,7 C 11,7 C 69 % 1020,9 hPa 0,0 l/m 3,4 km/h (1 Bft) O 95 2 min 0,000 mm 0,9 UV-I 269 W/m 12,9 C 18,7 C 6,4 km/h (2 Bft) 95,74 %
17.10.2017 15:50 18,7 C 11,7 C 71 % 1020,9 hPa 0,0 l/m 5,3 km/h (1 Bft) O 81 2 min 0,000 mm 0,8 UV-I 265 W/m 13,3 C 18,7 C 9,7 km/h (2 Bft) 98,00 %
17.10.2017 15:52 18,7 C 11,7 C 69 % 1020,8 hPa 0,0 l/m 3,0 km/h (1 Bft) O 81 2 min 0,000 mm 0,8 UV-I 274 W/m 12,9 C 18,7 C 4,8 km/h (1 Bft) 96,23 %
17.10.2017 15:54 18,6 C 11,7 C 69 % 1020,8 hPa 0,0 l/m 3,4 km/h (1 Bft) O-NO 69 2 min 0,000 mm 0,8 UV-I 250 W/m 12,8 C 18,6 C 4,8 km/h (1 Bft) 95,12 %
17.10.2017 15:56 18,7 C 11,7 C 69 % 1020,8 hPa 0,0 l/m 3,5 km/h (1 Bft) O-NO 68 2 min 0,000 mm 0,8 UV-I 253 W/m 12,9 C 18,7 C 4,8 km/h (1 Bft) 97,87 %
17.10.2017 15:58 18,7 C 11,7 C 71 % 1020,8 hPa 0,0 l/m 4,5 km/h (1 Bft) O-NO 73 2 min 0,000 mm 0,7 UV-I 264 W/m 13,3 C 18,7 C 6,4 km/h (2 Bft) 97,87 %
17.10.2017 16:00 18,7 C 11,7 C 72 % 1020,8 hPa 0,0 l/m 5,2 km/h (1 Bft) O-NO 74 2 min 0,203 mm 0,7 UV-I 268 W/m 13,5 C 18,7 C 6,4 km/h (2 Bft) 98,00 %
17.10.2017 16:02 18,7 C 11,7 C 71 % 1020,7 hPa 0,0 l/m 2,6 km/h (1 Bft) O-NO 74 2 min 0,000 mm 0,7 UV-I 284 W/m 13,3 C 18,7 C 4,8 km/h (1 Bft) 93,75 %
17.10.2017 16:04 18,7 C 11,7 C 72 % 1020,7 hPa 0,0 l/m 2,8 km/h (1 Bft) NO 40 2 min 0,000 mm 0,7 UV-I 268 W/m 13,5 C 18,7 C 4,8 km/h (1 Bft) 97,87 %
17.10.2017 16:06 18,6 C 11,7 C 73 % 1020,7 hPa 0,0 l/m 3,6 km/h (1 Bft) NO 40 2 min 0,000 mm 0,7 UV-I 250 W/m 13,7 C 18,6 C 6,4 km/h (2 Bft) 100,00 %
17.10.2017 16:08 18,6 C 11,7 C 73 % 1020,7 hPa 0,0 l/m 4,0 km/h (1 Bft) NO 40 2 min 0,000 mm 0,6 UV-I 248 W/m 13,7 C 18,6 C 6,4 km/h (2 Bft) 96,92 %
17.10.2017 16:10 18,6 C 11,7 C 72 % 1020,7 hPa 0,0 l/m 4,9 km/h (1 Bft) O-NO 59 2 min 0,000 mm 0,6 UV-I 249 W/m 13,4 C 18,6 C 6,4 km/h (2 Bft) 97,87 %
17.10.2017 16:12 18,6 C 11,7 C 72 % 1020,7 hPa 0,0 l/m 3,7 km/h (1 Bft) NO 49 2 min 0,000 mm 0,6 UV-I 229 W/m 13,4 C 18,6 C 6,4 km/h (2 Bft) 95,45 %
17.10.2017 16:14 18,6 C 11,7 C 72 % 1020,7 hPa 0,0 l/m 3,2 km/h (1 Bft) NO 49 2 min 0,000 mm 0,6 UV-I 214 W/m 13,4 C 18,6 C 4,8 km/h (1 Bft) 97,14 %
17.10.2017 16:16 18,4 C 11,7 C 74 % 1020,6 hPa 0,0 l/m 2,9 km/h (1 Bft) NO 54 2 min 0,000 mm 0,5 UV-I 183 W/m 13,7 C 18,4 C 6,4 km/h (2 Bft) 95,38 %
17.10.2017 16:18 18,4 C 11,7 C 73 % 1020,6 hPa 0,0 l/m 3,1 km/h (1 Bft) NO 54 2 min 0,000 mm 0,5 UV-I 165 W/m 13,5 C 18,4 C 4,8 km/h (1 Bft) 97,56 %
17.10.2017 16:20 18,3 C 11,7 C 73 % 1020,6 hPa 0,0 l/m 3,7 km/h (1 Bft) NO 54 0 min 0,000 mm 0,5 UV-I 150 W/m 13,4 C 18,3 C 4,8 km/h (1 Bft) 98,11 %
17.10.2017 16:22 18,2 C 11,7 C 74 % 1020,6 hPa 0,0 l/m 4,6 km/h (1 Bft) NO 53 2 min 0,000 mm 0,5 UV-I 169 W/m 13,5 C 18,2 C 4,8 km/h (1 Bft) 97,56 %
17.10.2017 16:24 18,2 C 11,7 C 74 % 1020,5 hPa 0,0 l/m 2,4 km/h (1 Bft) NO 53 2 min 0,000 mm 0,5 UV-I 166 W/m 13,5 C 18,2 C 4,8 km/h (1 Bft) 97,44 %
17.10.2017 16:26 18,1 C 11,7 C 74 % 1020,5 hPa 0,0 l/m 1,1 km/h (1 Bft) NO 53 0 min 0,000 mm 0,0 UV-I 140 W/m 13,4 C 18,1 C 3,2 km/h (1 Bft) 98,18 %
17.10.2017 16:28 18,1 C 11,7 C 75 % 1020,5 hPa 0,0 l/m 3,0 km/h (1 Bft) NO 53 0 min 0,000 mm 0,0 UV-I 140 W/m 13,6 C 18,1 C 4,8 km/h (1 Bft) 96,08 %
17.10.2017 16:30 18,0 C 11,7 C 75 % 1020,5 hPa 0,0 l/m 3,1 km/h (1 Bft) NO 53 0 min 0,000 mm 0,0 UV-I 139 W/m 13,5 C 18,0 C 4,8 km/h (1 Bft) 94,74 %
17.10.2017 16:32 18,0 C 11,7 C 75 % 1020,5 hPa 0,0 l/m 2,4 km/h (1 Bft) NO 53 0 min 0,000 mm 0,0 UV-I 126 W/m 13,5 C 18,0 C 4,8 km/h (1 Bft) 90,00 %
17.10.2017 16:34 18,0 C 11,7 C 75 % 1020,5 hPa 0,0 l/m 2,4 km/h (1 Bft) NO 53 0 min 0,000 mm 0,0 UV-I 118 W/m 13,5 C 18,0 C 3,2 km/h (1 Bft) 98,00 %
17.10.2017 16:36 17,9 C 11,7 C 75 % 1020,4 hPa 0,0 l/m 2,9 km/h (1 Bft) NO 53 0 min 0,000 mm 0,0 UV-I 111 W/m 13,4 C 17,9 C 4,8 km/h (1 Bft) 97,56 %
17.10.2017 16:38 17,9 C 11,7 C 76 % 1020,4 hPa 0,0 l/m 2,5 km/h (1 Bft) NO 53 0 min 0,000 mm 0,0 UV-I 106 W/m 13,6 C 17,9 C 4,8 km/h (1 Bft) 97,87 %
17.10.2017 16:40 17,8 C 11,7 C 77 % 1020,4 hPa 0,0 l/m 2,6 km/h (1 Bft) NO 53 0 min 0,000 mm 0,0 UV-I 113 W/m 13,7 C 17,8 C 3,2 km/h (1 Bft) 98,00 %
17.10.2017 16:42 17,9 C 11,7 C 77 % 1020,3 hPa 0,0 l/m 3,3 km/h (1 Bft) NO 53 2 min 0,000 mm 0,0 UV-I 148 W/m 13,8 C 17,9 C 4,8 km/h (1 Bft) 97,37 %
17.10.2017 16:44 17,8 C 11,7 C 77 % 1020,3 hPa 0,0 l/m 2,8 km/h (1 Bft) NO 53 2 min 0,000 mm 0,0 UV-I 153 W/m 13,7 C 17,8 C 3,2 km/h (1 Bft) 96,77 %
17.10.2017 16:46 17,8 C 11,7 C 77 % 1020,3 hPa 0,0 l/m 3,2 km/h (1 Bft) NO 53 2 min 0,000 mm 0,0 UV-I 124 W/m 13,7 C 17,8 C 4,8 km/h (1 Bft) 97,37 %
17.10.2017 16:48 17,8 C 11,7 C 77 % 1020,3 hPa 0,0 l/m 2,9 km/h (1 Bft) NO 53 0 min 0,000 mm 0,0 UV-I 97 W/m 13,7 C 17,8 C 4,8 km/h (1 Bft) 97,87 %
17.10.2017 16:50 17,8 C 11,7 C 77 % 1020,3 hPa 0,0 l/m 3,7 km/h (1 Bft) NO 53 0 min 0,000 mm 0,0 UV-I 90 W/m 13,7 C 17,8 C 6,4 km/h (2 Bft) 98,11 %
17.10.2017 16:52 17,7 C 11,7 C 78 % 1020,3 hPa 0,0 l/m 3,3 km/h (1 Bft) NO 53 0 min 0,000 mm 0,0 UV-I 86 W/m 13,8 C 17,7 C 4,8 km/h (1 Bft) 96,30 %
17.10.2017 16:54 17,6 C 11,7 C 78 % 1020,3 hPa 0,0 l/m 3,6 km/h (1 Bft) O-NO 76 0 min 0,000 mm 0,0 UV-I 86 W/m 13,7 C 17,6 C 6,4 km/h (2 Bft) 98,36 %
17.10.2017 16:56 17,5 C 11,7 C 78 % 1020,3 hPa 0,0 l/m 3,5 km/h (1 Bft) O-NO 76 0 min 0,000 mm 0,0 UV-I 84 W/m 13,6 C 17,5 C 4,8 km/h (1 Bft) 96,30 %
17.10.2017 16:58 17,5 C 11,7 C 78 % 1020,3 hPa 0,0 l/m 2,9 km/h (1 Bft) O-NO 76 0 min 0,000 mm 0,0 UV-I 83 W/m 13,6 C 17,5 C 4,8 km/h (1 Bft) 96,88 %
17.10.2017 17:00 17,5 C 11,7 C 78 % 1020,2 hPa 0,0 l/m 3,3 km/h (1 Bft) O-NO 76 0 min 0,102 mm 0,0 UV-I 81 W/m 13,6 C 17,5 C 6,4 km/h (2 Bft) 97,87 %
17.10.2017 17:02 17,4 C 11,7 C 78 % 1020,1 hPa 0,0 l/m 2,9 km/h (1 Bft) O-NO 76 0 min 0,000 mm 0,0 UV-I 83 W/m 13,5 C 17,4 C 4,8 km/h (1 Bft) 98,00 %
17.10.2017 17:04 17,4 C 11,7 C 78 % 1020,2 hPa 0,0 l/m 3,6 km/h (1 Bft) O-NO 76 0 min 0,000 mm 0,0 UV-I 93 W/m 13,5 C 17,4 C 4,8 km/h (1 Bft) 98,11 %
17.10.2017 17:06 17,5 C 11,7 C 78 % 1020,1 hPa 0,0 l/m 3,6 km/h (1 Bft) O-NO 71 2 min 0,000 mm 0,0 UV-I 101 W/m 13,6 C 17,5 C 4,8 km/h (1 Bft) 97,44 %
17.10.2017 17:08 17,6 C 11,7 C 78 % 1020,1 hPa 0,0 l/m 3,2 km/h (1 Bft) O-NO 71 2 min 0,000 mm 0,0 UV-I 95 W/m 13,7 C 17,6 C 4,8 km/h (1 Bft) 98,00 %
17.10.2017 17:10 17,6 C 11,7 C 77 % 1020,1 hPa 0,0 l/m 2,6 km/h (1 Bft) O-NO 71 0 min 0,000 mm 0,0 UV-I 81 W/m 13,5 C 17,6 C 4,8 km/h (1 Bft) 96,23 %
17.10.2017 17:12 17,5 C 11,7 C 78 % 1020,1 hPa 0,0 l/m 2,5 km/h (1 Bft) O-NO 71 0 min 0,000 mm 0,0 UV-I 80 W/m 13,6 C 17,5 C 3,2 km/h (1 Bft) 97,37 %
17.10.2017 17:14 17,4 C 11,7 C 78 % 1020,1 hPa 0,0 l/m 2,1 km/h (1 Bft) O-NO 71 2 min 0,000 mm 0,0 UV-I 101 W/m 13,5 C 17,4 C 3,2 km/h (1 Bft) 97,87 %
17.10.2017 17:16 17,4 C 11,7 C 78 % 1020,1 hPa 0,0 l/m 2,0 km/h (1 Bft) O-NO 71 2 min 0,000 mm 0,0 UV-I 112 W/m 13,5 C 17,4 C 3,2 km/h (1 Bft) 96,43 %
17.10.2017 17:18 17,4 C 11,7 C 78 % 1020,0 hPa 0,0 l/m 1,5 km/h (1 Bft) O-NO 71 2 min 0,000 mm 0,0 UV-I 94 W/m 13,5 C 17,4 C 3,2 km/h (1 Bft) 100,00 %
17.10.2017 17:20 17,3 C 11,7 C 78 % 1019,9 hPa 0,0 l/m 2,2 km/h (1 Bft) O-NO 71 2 min 0,000 mm 0,0 UV-I 93 W/m 13,4 C 17,3 C 3,2 km/h (1 Bft) 96,23 %
17.10.2017 17:22 17,3 C 11,7 C 78 % 1020,0 hPa 0,0 l/m 1,6 km/h (1 Bft) O-NO 71 2 min 0,000 mm 0,0 UV-I 85 W/m 13,4 C 17,3 C 3,2 km/h (1 Bft) 96,00 %
17.10.2017 17:24 17,3 C 11,7 C 79 % 1019,9 hPa 0,0 l/m 2,8 km/h (1 Bft) O-NO 71 2 min 0,000 mm 0,0 UV-I 81 W/m 13,6 C 17,3 C 4,8 km/h (1 Bft) 97,37 %
17.10.2017 17:26 17,2 C 11,7 C 79 % 1019,9 hPa 0,0 l/m 2,7 km/h (1 Bft) O-NO 71 2 min 0,000 mm 0,0 UV-I 72 W/m 13,5 C 17,2 C 4,8 km/h (1 Bft) 98,00 %
17.10.2017 17:28 17,2 C 11,7 C 79 % 1019,9 hPa 0,0 l/m 2,8 km/h (1 Bft) O-NO 71 2 min 0,000 mm 0,0 UV-I 61 W/m 13,5 C 17,2 C 4,8 km/h (1 Bft) 98,00 %
17.10.2017 17:30 17,2 C 11,7 C 79 % 1019,9 hPa 0,0 l/m 2,7 km/h (1 Bft) O-NO 71 0 min 0,000 mm 0,0 UV-I 55 W/m 13,5 C 17,2 C 4,8 km/h (1 Bft) 98,00 %
17.10.2017 17:32 17,1 C 11,7 C 79 % 1019,9 hPa 0,0 l/m 3,4 km/h (1 Bft) O-NO 71 0 min 0,000 mm 0,0 UV-I 51 W/m 13,4 C 17,1 C 4,8 km/h (1 Bft) 97,87 %
17.10.2017 17:34 17,0 C 11,7 C 80 % 1019,9 hPa 0,0 l/m 3,0 km/h (1 Bft) O-NO 71 0 min 0,000 mm 0,0 UV-I 47 W/m 13,5 C 17,0 C 4,8 km/h (1 Bft) 100,00 %
17.10.2017 17:36 16,8 C 11,7 C 81 % 1019,9 hPa 0,0 l/m 2,1 km/h (1 Bft) O-NO 71 0 min 0,000 mm 0,0 UV-I 44 W/m 13,5 C 16,8 C 3,2 km/h (1 Bft) 100,00 %
17.10.2017 17:38 16,6 C 11,7 C 82 % 1019,8 hPa 0,0 l/m 2,0 km/h (1 Bft) O-NO 71 0 min 0,000 mm 0,0 UV-I 41 W/m 13,5 C 16,6 C 3,2 km/h (1 Bft) 100,00 %
17.10.2017 17:40 16,3 C 11,7 C 82 % 1019,8 hPa 0,0 l/m 2,9 km/h (1 Bft) O-NO 71 0 min 0,000 mm 0,0 UV-I 38 W/m 13,2 C 16,3 C 4,8 km/h (1 Bft) 100,00 %
17.10.2017 17:42 16,2 C 11,7 C 83 % 1019,8 hPa 0,0 l/m 2,8 km/h (1 Bft) O-NO 71 0 min 0,000 mm 0,0 UV-I 36 W/m 13,3 C 16,2 C 4,8 km/h (1 Bft) 100,00 %
17.10.2017 17:44 16,0 C 11,7 C 84 % 1019,7 hPa 0,0 l/m 3,0 km/h (1 Bft) O-NO 71 0 min 0,000 mm 0,0 UV-I 33 W/m 13,3 C 16,0 C 4,8 km/h (1 Bft) 100,00 %
17.10.2017 17:46 15,9 C 11,7 C 84 % 1019,7 hPa 0,0 l/m 3,4 km/h (1 Bft) O-NO 71 2 min 0,000 mm 0,0 UV-I 31 W/m 13,2 C 15,9 C 4,8 km/h (1 Bft) 95,92 %
17.10.2017 17:48 15,8 C 11,7 C 84 % 1019,7 hPa 0,0 l/m 3,5 km/h (1 Bft) O-NO 74 2 min 0,000 mm 0,0 UV-I 29 W/m 13,1 C 15,8 C 4,8 km/h (1 Bft) 97,22 %
17.10.2017 17:50 15,7 C 11,7 C 85 % 1019,7 hPa 0,0 l/m 3,7 km/h (1 Bft) O-NO 74 2 min 0,000 mm 0,0 UV-I 27 W/m 13,2 C 15,7 C 4,8 km/h (1 Bft) 96,36 %
17.10.2017 17:52 15,6 C 11,7 C 85 % 1019,7 hPa 0,0 l/m 3,9 km/h (1 Bft) O-NO 78 2 min 0,000 mm 0,0 UV-I 25 W/m 13,1 C 15,6 C 4,8 km/h (1 Bft) 98,00 %
17.10.2017 17:54 15,6 C 11,7 C 85 % 1019,6 hPa 0,0 l/m 3,8 km/h (1 Bft) O-NO 78 2 min 0,000 mm 0,0 UV-I 23 W/m 13,1 C 15,6 C 4,8 km/h (1 Bft) 97,73 %
17.10.2017 17:56 15,7 C 11,7 C 85 % 1019,6 hPa 0,0 l/m 3,7 km/h (1 Bft) O-NO 78 2 min 0,000 mm 0,0 UV-I 20 W/m 13,2 C 15,7 C 6,4 km/h (2 Bft) 97,56 %
17.10.2017 17:58 15,7 C 11,7 C 84 % 1019,6 hPa 0,0 l/m 4,7 km/h (1 Bft) O 86 2 min 0,000 mm 0,0 UV-I 18 W/m 13,0 C 15,7 C 6,4 km/h (2 Bft) 98,11 %
17.10.2017 18:00 15,8 C 11,7 C 83 % 1019,6 hPa 0,0 l/m 4,5 km/h (1 Bft) O 86 2 min 0,051 mm 0,0 UV-I 17 W/m 12,9 C 15,8 C 6,4 km/h (2 Bft) 97,87 %
17.10.2017 18:02 15,8 C 11,7 C 83 % 1019,6 hPa 0,0 l/m 3,7 km/h (1 Bft) O 86 0 min 0,000 mm 0,0 UV-I 14 W/m 12,9 C 15,8 C 4,8 km/h (1 Bft) 96,00 %
17.10.2017 18:04 15,8 C 11,7 C 83 % 1019,6 hPa 0,0 l/m 4,8 km/h (1 Bft) O 86 0 min 0,000 mm 0,0 UV-I 12 W/m 12,9 C 15,8 C 6,4 km/h (2 Bft) 100,00 %
17.10.2017 18:06 15,7 C 11,7 C 83 % 1019,5 hPa 0,0 l/m 4,1 km/h (1 Bft) O 86 0 min 0,000 mm 0,0 UV-I 11 W/m 12,8 C 15,7 C 6,4 km/h (2 Bft) 95,74 %
17.10.2017 18:08 15,7 C 11,7 C 83 % 1019,5 hPa 0,0 l/m 2,8 km/h (1 Bft) O 86 0 min 0,000 mm 0,0 UV-I 9 W/m 12,8 C 15,7 C 4,8 km/h (1 Bft) 98,11 %
17.10.2017 18:10 15,8 C 11,7 C 83 % 1019,5 hPa 0,0 l/m 3,1 km/h (1 Bft) O 85 0 min 0,000 mm 0,0 UV-I 7 W/m 12,9 C 15,8 C 4,8 km/h (1 Bft) 97,87 %
17.10.2017 18:12 15,7 C 11,7 C 83 % 1019,5 hPa 0,0 l/m 2,5 km/h (1 Bft) O 85 0 min 0,000 mm 0,0 UV-I 7 W/m 12,8 C 15,7 C 4,8 km/h (1 Bft) 96,00 %
17.10.2017 18:14 15,7 C 11,7 C 83 % 1019,5 hPa 0,0 l/m 2,7 km/h (1 Bft) O 85 0 min 0,000 mm 0,0 UV-I 7 W/m 12,8 C 15,7 C 4,8 km/h (1 Bft) 97,37 %
17.10.2017 18:16 15,4 C 11,7 C 83 % 1019,6 hPa 0,0 l/m 1,9 km/h (1 Bft) O 85 0 min 0,000 mm 0,0 UV-I 5 W/m 12,5 C 15,4 C 3,2 km/h (1 Bft) 98,21 %
17.10.2017 18:18 15,2 C 11,7 C 85 % 1019,6 hPa 0,0 l/m 0,4 km/h (0 Bft) O 85 0 min 0,000 mm 0,0 UV-I 5 W/m 12,7 C 15,2 C 1,6 km/h (1 Bft) 97,37 %
17.10.2017 18:20 14,9 C 11,7 C 86 % 1019,5 hPa 0,0 l/m 0,0 km/h (0 Bft) O 85 0 min 0,000 mm 0,0 UV-I 5 W/m 12,6 C 14,9 C 0,0 km/h (0 Bft) 96,43 %
17.10.2017 18:22 14,8 C 11,7 C 87 % 1019,5 hPa 0,0 l/m 0,0 km/h (0 Bft) O 85 0 min 0,000 mm 0,0 UV-I 5 W/m 12,7 C 14,8 C 0,0 km/h (0 Bft) 95,74 %
17.10.2017 18:24 14,7 C 11,7 C 87 % 1019,6 hPa 0,0 l/m 0,0 km/h (0 Bft) O 85 0 min 0,000 mm 0,0 UV-I 6 W/m 12,6 C 14,7 C 0,0 km/h (0 Bft) 97,87 %
17.10.2017 18:26 14,6 C 11,7 C 88 % 1019,5 hPa 0,0 l/m 0,0 km/h (0 Bft) O 85 0 min 0,000 mm 0,0 UV-I 0 W/m 12,6 C 14,6 C 0,0 km/h (0 Bft) 100,00 %
17.10.2017 18:28 14,5 C 11,7 C 89 % 1019,5 hPa 0,0 l/m 0,0 km/h (0 Bft) O 85 0 min 0,000 mm 0,0 UV-I 5 W/m 12,7 C 14,5 C 0,0 km/h (0 Bft) 98,00 %
17.10.2017 18:30 14,4 C 11,7 C 88 % 1019,5 hPa 0,0 l/m 0,0 km/h (0 Bft) O 85 0 min 0,000 mm 0,0 UV-I 2 W/m 12,4 C 14,4 C 0,0 km/h (0 Bft) 96,23 %
17.10.2017 18:32 14,3 C 11,7 C 89 % 1019,6 hPa 0,0 l/m 0,9 km/h (0 Bft) O 85 0 min 0,000 mm 0,0 UV-I 0 W/m 12,5 C 14,3 C 3,2 km/h (1 Bft) 100,00 %
17.10.2017 18:34 14,3 C 11,7 C 89 % 1019,5 hPa 0,0 l/m 2,4 km/h (1 Bft) O 85 0 min 0,000 mm 0,0 UV-I 0 W/m 12,5 C 14,3 C 3,2 km/h (1 Bft) 100,00 %
17.10.2017 18:36 14,3 C 11,7 C 89 % 1019,5 hPa 0,0 l/m 2,9 km/h (1 Bft) O 85 0 min 0,000 mm 0,0 UV-I 0 W/m 12,5 C 14,3 C 3,2 km/h (1 Bft) 100,00 %
17.10.2017 18:38 14,3 C 11,7 C 89 % 1019,5 hPa 0,0 l/m 2,7 km/h (1 Bft) O 85 0 min 0,000 mm 0,0 UV-I 0 W/m 12,5 C 14,3 C 3,2 km/h (1 Bft) 100,00 %
17.10.2017 18:40 14,4 C 11,7 C 89 % 1019,5 hPa 0,0 l/m 2,6 km/h (1 Bft) O 85 0 min 0,000 mm 0,0 UV-I 0 W/m 12,6 C 14,4 C 3,2 km/h (1 Bft) 98,00 %
17.10.2017 18:42 14,5 C 11,7 C 88 % 1019,5 hPa 0,0 l/m 1,9 km/h (1 Bft) O 85 0 min 0,000 mm 0,0 UV-I 0 W/m 12,5 C 14,5 C 3,2 km/h (1 Bft) 100,00 %
17.10.2017 18:44 14,7 C 11,7 C 88 % 1019,5 hPa 0,0 l/m 2,3 km/h (1 Bft) O 85 0 min 0,000 mm 0,0 UV-I 0 W/m 12,7 C 14,7 C 3,2 km/h (1 Bft) 100,00 %
17.10.2017 18:46 14,7 C 11,7 C 87 % 1019,5 hPa 0,0 l/m 1,9 km/h (1 Bft) O 85 0 min 0,000 mm 0,0 UV-I 0 W/m 12,6 C 14,7 C 3,2 km/h (1 Bft) 97,14 %
17.10.2017 18:48 14,4 C 11,7 C 85 % 1019,4 hPa 0,0 l/m 0,3 km/h (0 Bft) O 85 0 min 0,000 mm 0,0 UV-I 0 W/m 11,9 C 14,4 C 1,6 km/h (1 Bft) 100,00 %
17.10.2017 18:50 14,1 C 11,7 C 86 % 1019,4 hPa 0,0 l/m 0,0 km/h (0 Bft) O 85 0 min 0,000 mm 0,0 UV-I 0 W/m 11,8 C 14,1 C 0,0 km/h (0 Bft) 100,00 %
17.10.2017 18:52 13,8 C 11,7 C 87 % 1019,4 hPa 0,0 l/m 0,0 km/h (0 Bft) O 85 0 min 0,000 mm 0,0 UV-I 0 W/m 11,7 C 13,8 C 0,0 km/h (0 Bft) 98,00 %
17.10.2017 18:54 13,6 C 11,7 C 88 % 1019,5 hPa 0,0 l/m 0,0 km/h (0 Bft) O 85 0 min 0,000 mm 0,0 UV-I 0 W/m 11,6 C 13,6 C 0,0 km/h (0 Bft) 97,37 %
17.10.2017 18:56 13,5 C 11,7 C 89 % 1019,4 hPa 0,0 l/m 0,0 km/h (0 Bft) O 85 0 min 0,000 mm 0,0 UV-I 0 W/m 11,7 C 13,5 C 0,0 km/h (0 Bft) 100,00 %
17.10.2017 18:58 13,4 C 11,7 C 89 % 1019,4 hPa 0,0 l/m 0,0 km/h (0 Bft) O 86 0 min 0,000 mm 0,0 UV-I 0 W/m 11,6 C 13,4 C 0,0 km/h (0 Bft) 98,00 %
17.10.2017 19:00 13,3 C 11,7 C 90 % 1019,4 hPa 0,0 l/m 0,0 km/h (0 Bft) O 85 0 min 0,000 mm 0,0 UV-I 0 W/m 11,7 C 13,3 C 0,0 km/h (0 Bft) 100,00 %
17.10.2017 19:02 13,3 C 11,7 C 91 % 1019,4 hPa 0,0 l/m 0,0 km/h (0 Bft) O 85 0 min 0,000 mm 0,0 UV-I 0 W/m 11,9 C 13,3 C 0,0 km/h (0 Bft) 100,00 %
17.10.2017 19:04 13,3 C 11,7 C 91 % 1019,4 hPa 0,0 l/m 0,7 km/h (0 Bft) O 85 0 min 0,000 mm 0,0 UV-I 0 W/m 11,9 C 13,3 C 3,2 km/h (1 Bft) 97,87 %
17.10.2017 19:06 13,3 C 11,7 C 91 % 1019,4 hPa 0,0 l/m 2,4 km/h (1 Bft) O 85 0 min 0,000 mm 0,0 UV-I 0 W/m 11,9 C 13,3 C 3,2 km/h (1 Bft) 100,00 %
17.10.2017 19:08 13,4 C 11,7 C 91 % 1019,3 hPa 0,0 l/m 2,6 km/h (1 Bft) O 85 0 min 0,000 mm 0,0 UV-I 0 W/m 12,0 C 13,4 C 3,2 km/h (1 Bft) 100,00 %
17.10.2017 19:10 13,6 C 11,7 C 91 % 1019,4 hPa 0,0 l/m 2,7 km/h (1 Bft) O 85 0 min 0,000 mm 0,0 UV-I 0 W/m 12,2 C 13,6 C 4,8 km/h (1 Bft) 100,00 %
17.10.2017 19:12 13,7 C 11,7 C 90 % 1019,4 hPa 0,0 l/m 2,2 km/h (1 Bft) O 85 0 min 0,000 mm 0,0 UV-I 0 W/m 12,1 C 13,7 C 3,2 km/h (1 Bft) 97,87 %
17.10.2017 19:14 13,7 C 11,7 C 90 % 1019,4 hPa 0,0 l/m 3,1 km/h (1 Bft) O 85 0 min 0,000 mm 0,0 UV-I 0 W/m 12,1 C 13,7 C 4,8 km/h (1 Bft) 100,00 %
17.10.2017 19:16 13,8 C 11,7 C 90 % 1019,4 hPa 0,0 l/m 3,1 km/h (1 Bft) O 85 0 min 0,000 mm 0,0 UV-I 0 W/m 12,2 C 13,8 C 4,8 km/h (1 Bft) 100,00 %
17.10.2017 19:18 13,9 C 11,7 C 89 % 1019,4 hPa 0,0 l/m 3,0 km/h (1 Bft) O 85 0 min 0,000 mm 0,0 UV-I 0 W/m 12,1 C 13,9 C 4,8 km/h (1 Bft) 100,00 %
17.10.2017 19:20 13,9 C 11,7 C 89 % 1019,4 hPa 0,0 l/m 2,8 km/h (1 Bft) O 85 0 min 0,000 mm 0,0 UV-I 0 W/m 12,1 C 13,9 C 4,8 km/h (1 Bft) 100,00 %
17.10.2017 19:22 14,0 C 11,7 C 89 % 1019,5 hPa 0,0 l/m 3,4 km/h (1 Bft) O 85 0 min 0,000 mm 0,0 UV-I 0 W/m 12,2 C 14,0 C 4,8 km/h (1 Bft) 100,00 %
17.10.2017 19:24 14,1 C 11,7 C 89 % 1019,4 hPa 0,0 l/m 3,1 km/h (1 Bft) O 85 0 min 0,000 mm 0,0 UV-I 0 W/m 12,3 C 14,1 C 4,8 km/h (1 Bft) 100,00 %
17.10.2017 19:26 14,1 C 11,7 C 89 % 1019,5 hPa 0,0 l/m 3,2 km/h (1 Bft) O 85 0 min 0,000 mm 0,0 UV-I 0 W/m 12,3 C 14,1 C 4,8 km/h (1 Bft) 100,00 %
17.10.2017 19:28 14,1 C 11,7 C 88 % 1019,5 hPa 0,0 l/m 2,0 km/h (1 Bft) O 85 0 min 0,000 mm 0,0 UV-I 0 W/m 12,1 C 14,1 C 3,2 km/h (1 Bft) 97,56 %
17.10.2017 19:30 14,0 C 11,7 C 88 % 1019,4 hPa 0,0 l/m 1,0 km/h (0 Bft) O 85 0 min 0,000 mm 0,0 UV-I 0 W/m 12,0 C 14,0 C 3,2 km/h (1 Bft) 100,00 %
17.10.2017 19:32 13,9 C 11,7 C 88 % 1019,5 hPa 0,0 l/m 0,0 km/h (0 Bft) O 85 0 min 0,000 mm 0,0 UV-I 0 W/m 11,9 C 13,9 C 0,0 km/h (0 Bft) 100,00 %
17.10.2017 19:34 13,6 C 11,7 C 87 % 1019,5 hPa 0,0 l/m 0,0 km/h (0 Bft) O 85 0 min 0,000 mm 0,0 UV-I 0 W/m 11,5 C 13,6 C 0,0 km/h (0 Bft) 100,00 %
17.10.2017 19:36 13,3 C 11,7 C 87 % 1019,5 hPa 0,0 l/m 0,0 km/h (0 Bft) O 85 0 min 0,000 mm 0,0 UV-I 0 W/m 11,2 C 13,3 C 0,0 km/h (0 Bft) 100,00 %
17.10.2017 19:38 13,0 C 11,7 C 88 % 1019,5 hPa 0,0 l/m 0,0 km/h (0 Bft) O 85 0 min 0,000 mm 0,0 UV-I 0 W/m 11,1 C 13,0 C 0,0 km/h (0 Bft) 100,00 %
17.10.2017 19:40 12,7 C 11,7 C 88 % 1019,5 hPa 0,0 l/m 0,0 km/h (0 Bft) O 85 0 min 0,000 mm 0,0 UV-I 0 W/m 10,8 C 12,7 C 0,0 km/h (0 Bft) 100,00 %
17.10.2017 19:42 12,4 C 11,7 C 89 % 1019,4 hPa 0,0 l/m 0,0 km/h (0 Bft) O 85 0 min 0,000 mm 0,0 UV-I 0 W/m 10,6 C 12,4 C 0,0 km/h (0 Bft) 100,00 %
17.10.2017 19:44 12,3 C 11,7 C 90 % 1019,4 hPa 0,0 l/m 1,6 km/h (1 Bft) O 85 0 min 0,000 mm 0,0 UV-I 0 W/m 10,7 C 12,3 C 3,2 km/h (1 Bft) 100,00 %
17.10.2017 19:46 12,2 C 11,7 C 90 % 1019,4 hPa 0,0 l/m 1,7 km/h (1 Bft) O 85 0 min 0,000 mm 0,0 UV-I 0 W/m 10,6 C 12,2 C 3,2 km/h (1 Bft) 100,00 %
17.10.2017 19:48 12,3 C 11,7 C 91 % 1019,3 hPa 0,0 l/m 0,0 km/h (0 Bft) O 85 0 min 0,000 mm 0,0 UV-I 0 W/m 10,9 C 12,3 C 0,0 km/h (0 Bft) 100,00 %
17.10.2017 19:50 12,3 C 11,7 C 92 % 1019,3 hPa 0,0 l/m 0,3 km/h (0 Bft) O 85 0 min 0,000 mm 0,0 UV-I 0 W/m 11,0 C 12,3 C 1,6 km/h (1 Bft) 97,87 %
17.10.2017 19:52 12,5 C 11,7 C 93 % 1019,3 hPa 0,0 l/m 0,0 km/h (0 Bft) O 85 0 min 0,000 mm 0,0 UV-I 0 W/m 11,4 C 12,5 C 0,0 km/h (0 Bft) 98,00 %
17.10.2017 19:54 12,6 C 11,7 C 92 % 1019,4 hPa 0,0 l/m 0,0 km/h (0 Bft) O 85 0 min 0,000 mm 0,0 UV-I 0 W/m 11,3 C 12,6 C 0,0 km/h (0 Bft) 95,12 %
17.10.2017 19:56 12,5 C 11,7 C 92 % 1019,3 hPa 0,0 l/m 0,0 km/h (0 Bft) O 85 0 min 0,000 mm 0,0 UV-I 0 W/m 11,2 C 12,5 C 0,0 km/h (0 Bft) 100,00 %
17.10.2017 19:58 12,5 C 11,7 C 92 % 1019,3 hPa 0,0 l/m 0,0 km/h (0 Bft) O 85 0 min 0,000 mm 0,0 UV-I 0 W/m 11,2 C 12,5 C 0,0 km/h (0 Bft) 100,00 %
17.10.2017 20:00 12,5 C 11,7 C 92 % 1019,3 hPa 0,0 l/m 0,0 km/h (0 Bft) O 85 0 min 0,000 mm 0,0 UV-I 0 W/m 11,2 C 12,5 C 0,0 km/h (0 Bft) 100,00 %
17.10.2017 20:02 12,5 C 11,7 C 92 % 1019,3 hPa 0,0 l/m 0,0 km/h (0 Bft) O 85 0 min 0,000 mm 0,0 UV-I 0 W/m 11,2 C 12,5 C 0,0 km/h (0 Bft) 100,00 %
17.10.2017 20:04 12,5 C 11,7 C 92 % 1019,3 hPa 0,0 l/m 0,0 km/h (0 Bft) O 85 0 min 0,000 mm 0,0 UV-I 0 W/m 11,2 C 12,5 C 0,0 km/h (0 Bft) 100,00 %
17.10.2017 20:06 12,6 C 11,7 C 93 % 1019,3 hPa 0,0 l/m 0,4 km/h (0 Bft) O 85 0 min 0,000 mm 0,0 UV-I 0 W/m 11,5 C 12,6 C 1,6 km/h (1 Bft) 98,00 %
17.10.2017 20:08 12,6 C 11,7 C 93 % 1019,3 hPa 0,0 l/m 0,1 km/h (0 Bft) O 85 0 min 0,000 mm 0,0 UV-I 0 W/m 11,5 C 12,6 C 1,6 km/h (1 Bft) 96,00 %
17.10.2017 20:10 12,6 C 11,7 C 93 % 1019,3 hPa 0,0 l/m 0,3 km/h (0 Bft) O 85 0 min 0,000 mm 0,0 UV-I 0 W/m 11,5 C 12,6 C 3,2 km/h (1 Bft) 97,87 %
17.10.2017 20:12 12,7 C 11,7 C 93 % 1019,3 hPa 0,0 l/m 1,6 km/h (1 Bft) O 85 0 min 0,000 mm 0,0 UV-I 0 W/m 11,6 C 12,7 C 4,8 km/h (1 Bft) 97,37 %
17.10.2017 20:14 12,8 C 11,7 C 93 % 1019,3 hPa 0,0 l/m 3,2 km/h (1 Bft) O 85 0 min 0,000 mm 0,0 UV-I 0 W/m 11,7 C 12,8 C 4,8 km/h (1 Bft) 95,74 %
17.10.2017 20:16 12,9 C 11,7 C 93 % 1019,3 hPa 0,0 l/m 4,7 km/h (1 Bft) O 80 0 min 0,000 mm 0,0 UV-I 0 W/m 11,8 C 12,9 C 6,4 km/h (2 Bft) 97,87 %
17.10.2017 20:18 13,1 C 11,7 C 93 % 1019,3 hPa 0,0 l/m 5,9 km/h (2 Bft) O 88 0 min 0,000 mm 0,0 UV-I 0 W/m 12,0 C 13,1 C 11,3 km/h (2 Bft) 96,00 %
17.10.2017 20:20 13,2 C 11,7 C 93 % 1019,2 hPa 0,0 l/m 5,0 km/h (1 Bft) O 79 0 min 0,000 mm 0,0 UV-I 0 W/m 12,1 C 13,2 C 8,0 km/h (2 Bft) 97,62 %
17.10.2017 20:22 13,3 C 11,7 C 93 % 1019,3 hPa 0,0 l/m 4,2 km/h (1 Bft) O-NO 71 0 min 0,000 mm 0,0 UV-I 0 W/m 12,2 C 13,3 C 6,4 km/h (2 Bft) 96,00 %
17.10.2017 20:24 13,4 C 11,7 C 92 % 1019,3 hPa 0,0 l/m 4,1 km/h (1 Bft) O-NO 71 0 min 0,000 mm 0,0 UV-I 0 W/m 12,1 C 13,4 C 6,4 km/h (2 Bft) 93,62 %
17.10.2017 20:26 13,4 C 11,7 C 92 % 1019,2 hPa 0,0 l/m 3,4 km/h (1 Bft) O-NO 71 0 min 0,000 mm 0,0 UV-I 0 W/m 12,1 C 13,4 C 4,8 km/h (1 Bft) 97,14 %
17.10.2017 20:28 13,5 C 11,7 C 92 % 1019,2 hPa 0,0 l/m 3,1 km/h (1 Bft) O-NO 70 0 min 0,000 mm 0,0 UV-I 0 W/m 12,2 C 13,5 C 4,8 km/h (1 Bft) 93,85 %
17.10.2017 20:30 13,6 C 11,7 C 92 % 1019,2 hPa 0,0 l/m 3,8 km/h (1 Bft) O 79 0 min 0,000 mm 0,0 UV-I 0 W/m 12,3 C 13,6 C 6,4 km/h (2 Bft) 94,29 %
17.10.2017 20:32 13,6 C 11,7 C 92 % 1019,2 hPa 0,0 l/m 4,0 km/h (1 Bft) O-NO 78 0 min 0,000 mm 0,0 UV-I 0 W/m 12,3 C 13,6 C 6,4 km/h (2 Bft) 94,64 %
17.10.2017 20:34 13,7 C 11,7 C 91 % 1019,1 hPa 0,0 l/m 5,5 km/h (1 Bft) O-NO 74 0 min 0,000 mm 0,0 UV-I 0 W/m 12,3 C 13,7 C 8,0 km/h (2 Bft) 93,62 %
17.10.2017 20:36 13,7 C 11,7 C 91 % 1019,1 hPa 0,0 l/m 5,3 km/h (1 Bft) O-NO 62 0 min 0,000 mm 0,0 UV-I 0 W/m 12,3 C 13,7 C 8,0 km/h (2 Bft) 95,12 %
17.10.2017 20:38 13,7 C 11,7 C 91 % 1019,0 hPa 0,0 l/m 7,2 km/h (2 Bft) O-NO 76 0 min 0,000 mm 0,0 UV-I 0 W/m 12,3 C 13,2 C 14,5 km/h (3 Bft) 95,74 %
17.10.2017 20:40 13,7 C 11,7 C 91 % 1019,0 hPa 0,0 l/m 7,6 km/h (2 Bft) O-NO 68 0 min 0,000 mm 0,0 UV-I 0 W/m 12,3 C 13,0 C 12,9 km/h (3 Bft) 92,45 %
17.10.2017 20:42 13,7 C 11,7 C 91 % 1019,0 hPa 0,0 l/m 9,0 km/h (2 Bft) O-NO 71 0 min 0,000 mm 0,0 UV-I 0 W/m 12,3 C 12,2 C 12,9 km/h (3 Bft) 95,12 %
17.10.2017 20:44 13,8 C 11,7 C 91 % 1019,0 hPa 0,0 l/m 9,5 km/h (2 Bft) O 88 0 min 0,000 mm 0,0 UV-I 0 W/m 12,4 C 12,0 C 12,9 km/h (3 Bft) 98,00 %
17.10.2017 20:46 13,8 C 11,7 C 91 % 1019,0 hPa 0,0 l/m 9,9 km/h (2 Bft) O 96 0 min 0,000 mm 0,0 UV-I 0 W/m 12,4 C 11,8 C 12,9 km/h (3 Bft) 98,11 %
17.10.2017 20:48 13,8 C 11,7 C 91 % 1019,0 hPa 0,0 l/m 7,0 km/h (2 Bft) O 82 0 min 0,000 mm 0,0 UV-I 0 W/m 12,4 C 13,4 C 11,3 km/h (2 Bft) 97,37 %
17.10.2017 20:50 13,8 C 11,7 C 91 % 1019,0 hPa 0,0 l/m 6,5 km/h (2 Bft) O 100 0 min 0,000 mm 0,0 UV-I 0 W/m 12,4 C 13,8 C 9,7 km/h (2 Bft) 97,87 %
17.10.2017 20:52 13,8 C 11,7 C 91 % 1019,0 hPa 0,0 l/m 5,3 km/h (1 Bft) O 86 0 min 0,000 mm 0,0 UV-I 0 W/m 12,4 C 13,8 C 12,9 km/h (3 Bft) 94,00 %
17.10.2017 20:54 13,9 C 11,7 C 91 % 1019,0 hPa 0,0 l/m 5,2 km/h (1 Bft) O 100 0 min 0,000 mm 0,0 UV-I 0 W/m 12,5 C 13,9 C 8,0 km/h (2 Bft) 97,44 %
17.10.2017 20:56 13,9 C 11,7 C 91 % 1019,0 hPa 0,0 l/m 4,0 km/h (1 Bft) O 84 0 min 0,000 mm 0,0 UV-I 0 W/m 12,5 C 13,9 C 6,4 km/h (2 Bft) 98,08 %
17.10.2017 20:58 13,9 C 11,7 C 91 % 1019,0 hPa 0,0 l/m 4,8 km/h (1 Bft) O 85 0 min 0,000 mm 0,0 UV-I 0 W/m 12,5 C 13,9 C 8,0 km/h (2 Bft) 97,87 %
17.10.2017 21:00 13,9 C 11,7 C 91 % 1018,9 hPa 0,0 l/m 5,1 km/h (1 Bft) O-NO 61 0 min 0,000 mm 0,0 UV-I 0 W/m 12,5 C 13,9 C 8,0 km/h (2 Bft) 98,11 %
17.10.2017 21:02 13,8 C 11,7 C 91 % 1018,9 hPa 0,0 l/m 3,1 km/h (1 Bft) O-NO 70 0 min 0,000 mm 0,0 UV-I 0 W/m 12,4 C 13,8 C 6,4 km/h (2 Bft) 93,62 %
17.10.2017 21:04 13,7 C 11,7 C 90 % 1018,9 hPa 0,0 l/m 3,7 km/h (1 Bft) O-NO 62 0 min 0,000 mm 0,0 UV-I 0 W/m 12,1 C 13,7 C 4,8 km/h (1 Bft) 97,22 %
17.10.2017 21:06 13,6 C 11,7 C 90 % 1018,9 hPa 0,0 l/m 3,4 km/h (1 Bft) O-NO 62 0 min 0,000 mm 0,0 UV-I 0 W/m 12,0 C 13,6 C 4,8 km/h (1 Bft) 98,31 %
17.10.2017 21:08 13,4 C 11,7 C 90 % 1018,9 hPa 0,0 l/m 4,0 km/h (1 Bft) O-NO 61 0 min 0,000 mm 0,0 UV-I 0 W/m 11,8 C 13,4 C 6,4 km/h (2 Bft) 97,56 %
17.10.2017 21:10 13,4 C 11,7 C 91 % 1018,9 hPa 0,0 l/m 5,0 km/h (1 Bft) O-NO 59 0 min 0,000 mm 0,0 UV-I 0 W/m 12,0 C 13,4 C 8,0 km/h (2 Bft) 97,87 %
17.10.2017 21:12 13,4 C 11,7 C 91 % 1018,9 hPa 0,0 l/m 3,7 km/h (1 Bft) O-NO 59 0 min 0,000 mm 0,0 UV-I 0 W/m 12,0 C 13,4 C 4,8 km/h (1 Bft) 96,00 %
17.10.2017 21:14 13,3 C 11,7 C 91 % 1018,9 hPa 0,0 l/m 4,8 km/h (1 Bft) O-NO 59 0 min 0,000 mm 0,0 UV-I 0 W/m 11,9 C 13,3 C 6,4 km/h (2 Bft) 97,56 %
17.10.2017 21:16 13,3 C 11,7 C 91 % 1018,8 hPa 0,0 l/m 4,2 km/h (1 Bft) O-NO 63 0 min 0,000 mm 0,0 UV-I 0 W/m 11,9 C 13,3 C 8,0 km/h (2 Bft) 96,00 %
17.10.2017 21:18 13,2 C 11,7 C 92 % 1018,8 hPa 0,0 l/m 3,7 km/h (1 Bft) O-NO 59 0 min 0,000 mm 0,0 UV-I 0 W/m 11,9 C 13,2 C 4,8 km/h (1 Bft) 97,73 %
17.10.2017 21:20 13,2 C 11,7 C 92 % 1018,9 hPa 0,0 l/m 3,0 km/h (1 Bft) O-NO 57 0 min 0,000 mm 0,0 UV-I 0 W/m 11,9 C 13,2 C 6,4 km/h (2 Bft) 98,11 %
17.10.2017 21:22 13,1 C 11,7 C 92 % 1018,9 hPa 0,0 l/m 2,5 km/h (1 Bft) O-NO 57 0 min 0,000 mm 0,0 UV-I 0 W/m 11,8 C 13,1 C 4,8 km/h (1 Bft) 97,87 %
17.10.2017 21:24 13,1 C 11,7 C 92 % 1018,9 hPa 0,0 l/m 2,2 km/h (1 Bft) O-NO 57 0 min 0,000 mm 0,0 UV-I 0 W/m 11,8 C 13,1 C 4,8 km/h (1 Bft) 97,37 %
17.10.2017 21:26 13,1 C 11,7 C 92 % 1018,8 hPa 0,0 l/m 2,3 km/h (1 Bft) O-NO 57 0 min 0,000 mm 0,0 UV-I 0 W/m 11,8 C 13,1 C 3,2 km/h (1 Bft) 97,87 %
17.10.2017 21:28 13,0 C 11,7 C 92 % 1018,8 hPa 0,0 l/m 2,2 km/h (1 Bft) O-NO 57 0 min 0,000 mm 0,0 UV-I 0 W/m 11,7 C 13,0 C 4,8 km/h (1 Bft) 98,21 %
17.10.2017 21:30 12,9 C 11,7 C 92 % 1018,8 hPa 0,0 l/m 2,2 km/h (1 Bft) O-NO 57 0 min 0,000 mm 0,0 UV-I 0 W/m 11,6 C 12,9 C 4,8 km/h (1 Bft) 97,14 %
17.10.2017 21:32 12,9 C 11,7 C 93 % 1018,8 hPa 0,0 l/m 1,5 km/h (1 Bft) O-NO 57 0 min 0,000 mm 0,0 UV-I 0 W/m 11,8 C 12,9 C 3,2 km/h (1 Bft) 100,00 %
17.10.2017 21:34 12,9 C 11,7 C 93 % 1018,8 hPa 0,0 l/m 1,2 km/h (1 Bft) O-NO 57 0 min 0,000 mm 0,0 UV-I 0 W/m 11,8 C 12,9 C 3,2 km/h (1 Bft) 100,00 %
17.10.2017 21:36 12,9 C 11,7 C 93 % 1018,8 hPa 0,0 l/m 1,4 km/h (1 Bft) O-NO 57 0 min 0,000 mm 0,0 UV-I 0 W/m 11,8 C 12,9 C 3,2 km/h (1 Bft) 100,00 %
17.10.2017 21:38 12,9 C 11,7 C 93 % 1018,8 hPa 0,0 l/m 1,8 km/h (1 Bft) O-NO 57 0 min 0,000 mm 0,0 UV-I 0 W/m 11,8 C 12,9 C 3,2 km/h (1 Bft) 100,00 %
17.10.2017 21:40 12,9 C 11,7 C 93 % 1018,8 hPa 0,0 l/m 1,6 km/h (1 Bft) O-NO 57 0 min 0,000 mm 0,0 UV-I 0 W/m 11,8 C 12,9 C 3,2 km/h (1 Bft) 100,00 %
17.10.2017 21:42 12,9 C 11,7 C 93 % 1018,8 hPa 0,0 l/m 1,9 km/h (1 Bft) O-NO 57 0 min 0,000 mm 0,0 UV-I 0 W/m 11,8 C 12,9 C 3,2 km/h (1 Bft) 100,00 %
17.10.2017 21:44 12,9 C 11,7 C 93 % 1018,8 hPa 0,0 l/m 0,3 km/h (0 Bft) O-NO 57 0 min 0,000 mm 0,0 UV-I 0 W/m 11,8 C 12,9 C 1,6 km/h (1 Bft) 100,00 %
17.10.2017 21:46 12,8 C 11,7 C 93 % 1018,8 hPa 0,0 l/m 0,0 km/h (0 Bft) O-NO 57 0 min 0,000 mm 0,0 UV-I 0 W/m 11,7 C 12,8 C 0,0 km/h (0 Bft) 100,00 %
17.10.2017 21:48 12,8 C 11,7 C 93 % 1018,8 hPa 0,0 l/m 0,0 km/h (0 Bft) O-NO 57 0 min 0,000 mm 0,0 UV-I 0 W/m 11,7 C 12,8 C 0,0 km/h (0 Bft) 100,00 %
17.10.2017 21:50 12,7 C 11,7 C 93 % 1018,8 hPa 0,0 l/m 0,0 km/h (0 Bft) O-NO 57 0 min 0,000 mm 0,0 UV-I 0 W/m 11,6 C 12,7 C 0,0 km/h (0 Bft) 100,00 %
17.10.2017 21:52 12,6 C 11,7 C 93 % 1018,8 hPa 0,0 l/m 0,0 km/h (0 Bft) O-NO 57 0 min 0,000 mm 0,0 UV-I 0 W/m 11,5 C 12,6 C 0,0 km/h (0 Bft) 96,83 %
17.10.2017 21:54 12,6 C 11,7 C 93 % 1018,8 hPa 0,0 l/m 0,0 km/h (0 Bft) O-NO 57 0 min 0,000 mm 0,0 UV-I 0 W/m 11,5 C 12,6 C 0,0 km/h (0 Bft) 100,00 %
17.10.2017 21:56 12,4 C 11,7 C 94 % 1018,8 hPa 0,0 l/m 0,1 km/h (0 Bft) O-NO 57 0 min 0,000 mm 0,0 UV-I 0 W/m 11,5 C 12,4 C 1,6 km/h (1 Bft) 98,00 %
17.10.2017 21:58 12,4 C 11,7 C 94 % 1018,8 hPa 0,0 l/m 0,0 km/h (0 Bft) O-NO 57 0 min 0,000 mm 0,0 UV-I 0 W/m 11,5 C 12,4 C 0,0 km/h (0 Bft) 97,87 %
17.10.2017 22:00 12,3 C 11,7 C 94 % 1018,8 hPa 0,0 l/m 0,0 km/h (0 Bft) O-NO 57 0 min 0,000 mm 0,0 UV-I 0 W/m 11,4 C 12,3 C 0,0 km/h (0 Bft) 100,00 %
17.10.2017 22:02 12,3 C 11,7 C 94 % 1018,7 hPa 0,0 l/m 0,0 km/h (0 Bft) O-NO 57 0 min 0,000 mm 0,0 UV-I 0 W/m 11,4 C 12,3 C 0,0 km/h (0 Bft) 100,00 %
17.10.2017 22:04 12,3 C 11,7 C 94 % 1018,8 hPa 0,0 l/m 0,0 km/h (0 Bft) O-NO 57 0 min 0,000 mm 0,0 UV-I 0 W/m 11,4 C 12,3 C 1,6 km/h (1 Bft) 98,00 %
17.10.2017 22:06 12,2 C 11,7 C 94 % 1018,8 hPa 0,0 l/m 1,1 km/h (1 Bft) O-NO 57 0 min 0,000 mm 0,0 UV-I 0 W/m 11,3 C 12,2 C 1,6 km/h (1 Bft) 100,00 %
17.10.2017 22:08 12,2 C 11,7 C 94 % 1018,7 hPa 0,0 l/m 1,3 km/h (1 Bft) O-NO 57 0 min 0,000 mm 0,0 UV-I 0 W/m 11,3 C 12,2 C 3,2 km/h (1 Bft) 100,00 %
17.10.2017 22:10 12,1 C 11,7 C 94 % 1018,7 hPa 0,0 l/m 0,3 km/h (0 Bft) O-NO 57 0 min 0,000 mm 0,0 UV-I 0 W/m 11,2 C 12,1 C 1,6 km/h (1 Bft) 94,59 %
17.10.2017 22:12 12,1 C 11,7 C 95 % 1018,7 hPa 0,0 l/m 0,0 km/h (0 Bft) O-NO 57 0 min 0,000 mm 0,0 UV-I 0 W/m 11,3 C 12,1 C 1,6 km/h (1 Bft) 100,00 %
17.10.2017 22:14 12,0 C 11,7 C 95 % 1018,7 hPa 0,0 l/m 0,0 km/h (0 Bft) O-NO 57 0 min 0,000 mm 0,0 UV-I 0 W/m 11,2 C 12,0 C 1,6 km/h (1 Bft) 98,00 %
17.10.2017 22:16 11,9 C 11,7 C 94 % 1018,7 hPa 0,0 l/m 0,0 km/h (0 Bft) O-NO 57 0 min 0,000 mm 0,0 UV-I 0 W/m 11,0 C 11,9 C 1,6 km/h (1 Bft) 98,00 %
17.10.2017 22:18 11,9 C 11,7 C 95 % 1018,7 hPa 0,0 l/m 0,0 km/h (0 Bft) O-NO 57 0 min 0,000 mm 0,0 UV-I 0 W/m 11,1 C 11,9 C 1,6 km/h (1 Bft) 95,74 %
17.10.2017 22:20 11,8 C 11,7 C 95 % 1018,7 hPa 0,0 l/m 0,2 km/h (0 Bft) O-NO 57 0 min 0,000 mm 0,0 UV-I 0 W/m 11,0 C 11,8 C 1,6 km/h (1 Bft) 97,87 %
17.10.2017 22:22 11,8 C 11,7 C 95 % 1018,7 hPa 0,0 l/m 0,0 km/h (0 Bft) O-NO 57 0 min 0,000 mm 0,0 UV-I 0 W/m 11,0 C 11,8 C 0,0 km/h (0 Bft) 95,83 %
17.10.2017 22:24 11,8 C 11,7 C 95 % 1018,8 hPa 0,0 l/m 0,2 km/h (0 Bft) O-NO 57 0 min 0,000 mm 0,0 UV-I 0 W/m 11,0 C 11,8 C 1,6 km/h (1 Bft) 95,74 %
17.10.2017 22:26 11,8 C 11,7 C 95 % 1018,7 hPa 0,0 l/m 1,0 km/h (0 Bft) O-NO 57 0 min 0,000 mm 0,0 UV-I 0 W/m 11,0 C 11,8 C 1,6 km/h (1 Bft) 97,37 %
17.10.2017 22:28 11,7 C 11,7 C 95 % 1018,7 hPa 0,0 l/m 0,0 km/h (0 Bft) O-NO 57 0 min 0,000 mm 0,0 UV-I 0 W/m 10,9 C 11,7 C 0,0 km/h (0 Bft) 98,11 %
17.10.2017 22:30 11,6 C 11,7 C 95 % 1018,7 hPa 0,0 l/m 0,0 km/h (0 Bft) O-NO 57 0 min 0,000 mm 0,0 UV-I 0 W/m 10,8 C 11,6 C 0,0 km/h (0 Bft) 98,00 %
17.10.2017 22:32 11,5 C 11,7 C 95 % 1018,7 hPa 0,0 l/m 0,5 km/h (0 Bft) O-NO 57 0 min 0,000 mm 0,0 UV-I 0 W/m 10,7 C 11,5 C 1,6 km/h (1 Bft) 94,87 %
17.10.2017 22:34 11,4 C 11,7 C 95 % 1018,7 hPa 0,0 l/m 1,9 km/h (1 Bft) O-NO 57 0 min 0,000 mm 0,0 UV-I 0 W/m 10,6 C 11,4 C 3,2 km/h (1 Bft) 93,62 %
17.10.2017 22:36 11,3 C 11,7 C 95 % 1018,7 hPa 0,0 l/m 2,4 km/h (1 Bft) O-NO 57 0 min 0,000 mm 0,0 UV-I 0 W/m 10,5 C 11,3 C 3,2 km/h (1 Bft) 98,11 %
17.10.2017 22:38 11,3 C 11,7 C 95 % 1018,7 hPa 0,0 l/m 2,2 km/h (1 Bft) O-NO 57 0 min 0,000 mm 0,0 UV-I 0 W/m 10,5 C 11,3 C 3,2 km/h (1 Bft) 97,37 %
17.10.2017 22:40 11,3 C 11,7 C 95 % 1018,7 hPa 0,0 l/m 2,0 km/h (1 Bft) O-NO 57 0 min 0,000 mm 0,0 UV-I 0 W/m 10,5 C 11,3 C 3,2 km/h (1 Bft) 96,43 %
17.10.2017 22:42 11,4 C 11,7 C 96 % 1018,7 hPa 0,0 l/m 1,6 km/h (1 Bft) O-NO 57 0 min 0,000 mm 0,0 UV-I 0 W/m 10,8 C 11,4 C 3,2 km/h (1 Bft) 100,00 %
17.10.2017 22:44 11,4 C 11,7 C 96 % 1018,6 hPa 0,0 l/m 1,7 km/h (1 Bft) O-NO 57 0 min 0,000 mm 0,0 UV-I 0 W/m 10,8 C 11,4 C 3,2 km/h (1 Bft) 96,00 %
17.10.2017 22:46 11,4 C 11,7 C 96 % 1018,6 hPa 0,0 l/m 1,2 km/h (1 Bft) O-NO 57 0 min 0,000 mm 0,0 UV-I 0 W/m 10,8 C 11,4 C 3,2 km/h (1 Bft) 98,11 %
17.10.2017 22:48 11,3 C 11,7 C 95 % 1018,6 hPa 0,0 l/m 0,3 km/h (0 Bft) O-NO 57 0 min 0,000 mm 0,0 UV-I 0 W/m 10,5 C 11,3 C 1,6 km/h (1 Bft) 97,50 %
17.10.2017 22:50 11,3 C 11,7 C 96 % 1018,6 hPa 0,0 l/m 0,0 km/h (0 Bft) O-NO 57 0 min 0,000 mm 0,0 UV-I 0 W/m 10,7 C 11,3 C 0,0 km/h (0 Bft) 100,00 %
17.10.2017 22:52 11,3 C 11,7 C 96 % 1018,6 hPa 0,0 l/m 0,0 km/h (0 Bft) O-NO 57 0 min 0,000 mm 0,0 UV-I 0 W/m 10,7 C 11,3 C 0,0 km/h (0 Bft) 100,00 %
17.10.2017 22:54 11,2 C 11,7 C 95 % 1018,6 hPa 0,0 l/m 0,0 km/h (0 Bft) O-NO 57 0 min 0,000 mm 0,0 UV-I 0 W/m 10,4 C 11,2 C 0,0 km/h (0 Bft) 100,00 %
17.10.2017 22:56 10,9 C 11,7 C 95 % 1018,6 hPa 0,0 l/m 0,0 km/h (0 Bft) O-NO 57 0 min 0,000 mm 0,0 UV-I 0 W/m 10,1 C 10,9 C 0,0 km/h (0 Bft) 100,00 %
17.10.2017 22:58 10,6 C 11,7 C 95 % 1018,6 hPa 0,0 l/m 0,0 km/h (0 Bft) O-NO 57 0 min 0,000 mm 0,0 UV-I 0 W/m 9,8 C 10,6 C 0,0 km/h (0 Bft) 100,00 %
17.10.2017 23:00 10,4 C 11,7 C 95 % 1018,6 hPa 0,0 l/m 0,0 km/h (0 Bft) O-NO 57 0 min 0,000 mm 0,0 UV-I 0 W/m 9,6 C 10,4 C 0,0 km/h (0 Bft) 98,11 %
17.10.2017 23:02 10,3 C 11,7 C 95 % 1018,6 hPa 0,0 l/m 0,0 km/h (0 Bft) O-NO 57 0 min 0,000 mm 0,0 UV-I 0 W/m 9,5 C 10,3 C 0,0 km/h (0 Bft) 100,00 %
17.10.2017 23:04 10,4 C 11,7 C 96 % 1018,5 hPa 0,0 l/m 0,0 km/h (0 Bft) O-NO 57 0 min 0,000 mm 0,0 UV-I 0 W/m 9,8 C 10,4 C 0,0 km/h (0 Bft) 100,00 %
17.10.2017 23:06 10,4 C 11,7 C 96 % 1018,6 hPa 0,0 l/m 0,0 km/h (0 Bft) O-NO 57 0 min 0,000 mm 0,0 UV-I 0 W/m 9,8 C 10,4 C 0,0 km/h (0 Bft) 100,00 %
17.10.2017 23:08 10,4 C 11,7 C 96 % 1018,6 hPa 0,0 l/m 0,0 km/h (0 Bft) O-NO 57 0 min 0,000 mm 0,0 UV-I 0 W/m 9,8 C 10,4 C 0,0 km/h (0 Bft) 100,00 %
17.10.2017 23:10 10,4 C 11,7 C 96 % 1018,5 hPa 0,0 l/m 1,0 km/h (0 Bft) O-NO 57 0 min 0,000 mm 0,0 UV-I 0 W/m 9,8 C 10,4 C 3,2 km/h (1 Bft) 100,00 %
17.10.2017 23:12 10,3 C 11,7 C 95 % 1018,5 hPa 0,0 l/m 1,7 km/h (1 Bft) O-NO 57 0 min 0,000 mm 0,0 UV-I 0 W/m 9,5 C 10,3 C 3,2 km/h (1 Bft) 97,87 %
17.10.2017 23:14 10,2 C 11,7 C 96 % 1018,5 hPa 0,0 l/m 1,9 km/h (1 Bft) O-NO 57 0 min 0,000 mm 0,0 UV-I 0 W/m 9,6 C 10,2 C 3,2 km/h (1 Bft) 100,00 %
17.10.2017 23:16 10,3 C 11,7 C 96 % 1018,5 hPa 0,0 l/m 2,2 km/h (1 Bft) O-NO 57 0 min 0,000 mm 0,0 UV-I 0 W/m 9,7 C 10,3 C 3,2 km/h (1 Bft) 100,00 %
17.10.2017 23:18 10,3 C 11,7 C 96 % 1018,5 hPa 0,0 l/m 2,2 km/h (1 Bft) O-NO 57 0 min 0,000 mm 0,0 UV-I 0 W/m 9,7 C 10,3 C 3,2 km/h (1 Bft) 100,00 %
17.10.2017 23:20 10,3 C 11,7 C 96 % 1018,4 hPa 0,0 l/m 1,9 km/h (1 Bft) O-NO 57 0 min 0,000 mm 0,0 UV-I 0 W/m 9,7 C 10,3 C 3,2 km/h (1 Bft) 98,11 %
17.10.2017 23:22 10,2 C 11,7 C 96 % 1018,5 hPa 0,0 l/m 1,7 km/h (1 Bft) O-NO 57 0 min 0,000 mm 0,0 UV-I 0 W/m 9,6 C 10,2 C 3,2 km/h (1 Bft) 100,00 %
17.10.2017 23:24 10,2 C 11,7 C 96 % 1018,5 hPa 0,0 l/m 1,7 km/h (1 Bft) SO 125 0 min 0,000 mm 0,0 UV-I 0 W/m 9,6 C 10,2 C 3,2 km/h (1 Bft) 100,00 %
17.10.2017 23:26 10,1 C 11,7 C 96 % 1018,5 hPa 0,0 l/m 1,2 km/h (1 Bft) SO 125 0 min 0,000 mm 0,0 UV-I 0 W/m 9,5 C 10,1 C 3,2 km/h (1 Bft) 100,00 %
17.10.2017 23:28 10,1 C 11,7 C 96 % 1018,5 hPa 0,0 l/m 0,8 km/h (0 Bft) SO 125 0 min 0,000 mm 0,0 UV-I 0 W/m 9,5 C 10,1 C 1,6 km/h (1 Bft) 100,00 %
17.10.2017 23:30 10,1 C 11,7 C 96 % 1018,4 hPa 0,0 l/m 0,9 km/h (0 Bft) SO 125 0 min 0,000 mm 0,0 UV-I 0 W/m 9,5 C 10,1 C 3,2 km/h (1 Bft) 100,00 %
17.10.2017 23:32 10,2 C 11,7 C 96 % 1018,4 hPa 0,0 l/m 0,3 km/h (0 Bft) SO 125 0 min 0,000 mm 0,0 UV-I 0 W/m 9,6 C 10,2 C 1,6 km/h (1 Bft) 100,00 %
17.10.2017 23:34 10,2 C 11,7 C 96 % 1018,4 hPa 0,0 l/m 0,7 km/h (0 Bft) SO 125 0 min 0,000 mm 0,0 UV-I 0 W/m 9,6 C 10,2 C 3,2 km/h (1 Bft) 98,00 %
17.10.2017 23:36 10,2 C 11,7 C 96 % 1018,4 hPa 0,0 l/m 0,1 km/h (0 Bft) SO 125 0 min 0,000 mm 0,0 UV-I 0 W/m 9,6 C 10,2 C 1,6 km/h (1 Bft) 100,00 %
17.10.2017 23:38 10,2 C 11,7 C 96 % 1018,4 hPa 0,0 l/m 0,0 km/h (0 Bft) SO 125 0 min 0,000 mm 0,0 UV-I 0 W/m 9,6 C 10,2 C 1,6 km/h (1 Bft) 98,00 %
17.10.2017 23:40 10,3 C 11,7 C 97 % 1018,3 hPa 0,0 l/m 0,0 km/h (0 Bft) SO 125 0 min 0,000 mm 0,0 UV-I 0 W/m 9,8 C 10,3 C 0,0 km/h (0 Bft) 100,00 %
17.10.2017 23:42 10,3 C 11,7 C 96 % 1018,2 hPa 0,0 l/m 0,1 km/h (0 Bft) SO 125 0 min 0,000 mm 0,0 UV-I 0 W/m 9,7 C 10,3 C 1,6 km/h (1 Bft) 100,00 %
17.10.2017 23:44 10,2 C 11,7 C 96 % 1018,2 hPa 0,0 l/m 0,0 km/h (0 Bft) SO 125 0 min 0,000 mm 0,0 UV-I 0 W/m 9,6 C 10,2 C 0,0 km/h (0 Bft) 100,00 %
17.10.2017 23:46 10,3 C 11,7 C 96 % 1018,2 hPa 0,0 l/m 0,0 km/h (0 Bft) SO 125 0 min 0,000 mm 0,0 UV-I 0 W/m 9,7 C 10,3 C 1,6 km/h (1 Bft) 97,87 %
17.10.2017 23:48 10,2 C 11,7 C 96 % 1018,2 hPa 0,0 l/m 0,1 km/h (0 Bft) SO 125 0 min 0,000 mm 0,0 UV-I 0 W/m 9,6 C 10,2 C 1,6 km/h (1 Bft) 100,00 %
17.10.2017 23:50 10,2 C 11,7 C 96 % 1018,2 hPa 0,0 l/m 0,0 km/h (0 Bft) SO 125 0 min 0,000 mm 0,0 UV-I 0 W/m 9,6 C 10,2 C 0,0 km/h (0 Bft) 96,23 %
17.10.2017 23:52 10,2 C 11,7 C 96 % 1018,2 hPa 0,0 l/m 0,0 km/h (0 Bft) SO 125 0 min 0,000 mm 0,0 UV-I 0 W/m 9,6 C 10,2 C 0,0 km/h (0 Bft) 100,00 %
17.10.2017 23:54 10,2 C 11,7 C 96 % 1018,1 hPa 0,0 l/m 0,0 km/h (0 Bft) SO 125 0 min 0,000 mm 0,0 UV-I 0 W/m 9,6 C 10,2 C 0,0 km/h (0 Bft) 100,00 %
17.10.2017 23:56 10,1 C 11,7 C 96 % 1018,0 hPa 0,0 l/m 0,3 km/h (0 Bft) SO 125 0 min 0,000 mm 0,0 UV-I 0 W/m 9,5 C 10,1 C 1,6 km/h (1 Bft) 100,00 %
17.10.2017 23:58 9,9 C 11,7 C 96 % 1018,0 hPa 0,0 l/m 0,4 km/h (0 Bft) SO 125 0 min 0,000 mm 0,0 UV-I 0 W/m 9,3 C 9,9 C 1,6 km/h (1 Bft) 100,00 %
_ Min-Zeit 06:26 00:00 14:50 23:56 - 00:00 - - - - - - 06:26 06:26 00:00 06:58
Minimum _ 6,3 C 11,7 C 67 % 1018,0 hPa - 0,0 km/h (0 Bft) - - - - - - 5,7 C 6,3 C 0,0 km/h (0 Bft) 88,00 %
_ Max-Zeit 15:06 00:00 08:36 00:02 07:12 20:46 - - 13:29 14:00 12:18 12:50 13:26 15:06 20:38 00:00
Maximum _ 19,1 C 11,7 C 98 % 1025,7 hPa 0,2 l/m 9,9 km/h
O (2 Bft)
- - 3 min 0,305 mm 2,4 UV-I 546 W/m 13,9 C 19,1 C 14,5 km/h
O-NO (3 Bft)
100,00 %
Durchschnitt _ 11,9 C 11,7 C 90 % 1022,7 hPa #0,2 l/m 1,3 km/h (1 Bft) O-NO - #8:30 h #1,829 mm 1,6 UV-I 291 W/m 10,1 C 11,9 C 2,2 km/h (1 Bft) 98,25 %